Date StartTime U_cm/s V_cm/s W_cm/s Ustd_cm/s Vstd_cm/s Wstd_cm/s Uvar_(cm/s)^2 Vvar_(cm/s)^2 Wvar_(cm/s)^2 KE_(m/s)^2 TurbulentKE_(m/s)^2 HorizWindSpeed_cm/s FrictionSpeec_cm/s DragCoef SpeedOfSound_m/s SonicTemperature_C Pressure_mb 
01/17/2015  00:00:00      -40.858       32.689       -6.525       13.535       23.182        8.322      183.193      537.385       69.256        0.179        0.039       52.325        5.407        0.011      336.880        8.479      868.261
01/17/2015  00:01:00      -51.540       27.884       -9.649       11.708       15.879        9.885      137.089      252.138       97.711        0.201        0.024       58.599        6.527        0.012      336.818        8.375      868.239
01/17/2015  00:02:00      -49.297       13.132       -6.538       12.871       11.387       10.444      165.650      129.673      109.074        0.152        0.020       51.016        3.698        0.005      336.793        8.332      868.214
01/17/2015  00:03:00      -78.937       56.423      -22.294       22.072       29.438       11.598      487.160      866.576      134.517        0.570        0.074       97.029       13.717        0.020      336.819        8.378      868.192
01/17/2015  00:04:00      -87.628       45.850      -17.727       14.166       29.078       10.842      200.686      845.523      117.549        0.563        0.058       98.899        8.100        0.007      336.772        8.298      868.189
01/17/2015  00:05:00      -74.078       15.770      -10.950       16.088       15.673       11.329      258.823      245.631      128.356        0.324        0.032       75.738        7.893        0.011      336.712        8.199      868.198
01/17/2015  00:06:00      -71.053       29.780      -12.036       22.850       27.433       12.352      522.109      752.595      152.572        0.375        0.071       77.041       11.044        0.021      336.645        8.088      868.216
01/17/2015  00:07:00      -72.387       33.040      -14.735       17.131       26.231       15.215      293.486      688.081      231.482        0.388        0.061       79.571        8.479        0.011      336.662        8.115      868.216
01/17/2015  00:08:00      -77.366       20.044      -21.692       17.939       24.424       18.210      321.806      596.533      331.602        0.405        0.062       79.920        6.608        0.007      336.707        8.190      868.217
01/17/2015  00:09:00      -69.422        6.233      -14.536       17.553       23.230       15.839      308.102      539.634      250.888        0.308        0.055       69.701        7.341        0.011      336.623        8.050      868.225
01/17/2015  00:10:00      -65.565       -6.888       -6.977       22.688       19.191       14.838      514.725      368.283      220.175        0.275        0.055       65.926        8.516        0.017      336.609        8.026      868.230
01/17/2015  00:11:00      -98.496      -24.205      -11.298       16.764       18.663       11.813      281.015      348.303      139.551        0.559        0.038      101.427        7.830        0.006      336.573        7.964      868.219
01/17/2015  00:12:00      -47.169       -2.408       -5.583       20.945       16.849       10.687      438.713      283.887      114.216        0.155        0.042       47.230        7.980        0.029      336.532        7.898      868.198
01/17/2015  00:13:00      -73.562        7.457       -6.533       18.618       23.891       12.222      346.633      570.792      149.365        0.329        0.053       73.939        8.476        0.013      336.595        8.002      868.177
01/17/2015  00:14:00     -100.811        2.443      -12.342       37.352       16.139       11.297     1395.165      260.478      127.611        0.605        0.089      100.841       13.316        0.017      336.620        8.045      868.171
01/17/2015  00:15:00     -107.530       -6.378      -13.303       25.760       18.907       15.029      663.555      357.467      225.871        0.651        0.062      107.719       12.623        0.014      336.531        7.898      868.169
01/17/2015  00:16:00      -72.900       -7.825       -3.501       24.276       22.355       15.829      589.320      499.750      250.555        0.336        0.067       73.319       12.772        0.030      336.481        7.812      868.155
01/17/2015  00:17:00      -99.010       -3.605      -11.771       14.600       14.125        8.284      213.171      199.516       68.625        0.522        0.024       99.075        4.124        0.002      336.496        7.837      868.141
01/17/2015  00:18:00     -102.370      -16.400       -8.942       15.144       14.318       11.770      229.333      205.014      138.536        0.570        0.029      103.675        7.457        0.005      336.448        7.757      868.144
01/17/2015  00:19:00     -104.367       -7.377       -6.285       28.930       21.610       16.428      836.954      466.987      269.886        0.628        0.079      104.627       13.565        0.017      336.457        7.772      868.166
01/17/2015  00:20:00      -90.393       -8.773       -3.861       34.218       28.588       22.910     1170.877      817.266      524.856        0.539        0.126       90.818       20.093        0.049      336.498        7.841      868.201
01/17/2015  00:21:00     -158.165       12.175      -14.347       36.171       21.381       15.843     1308.327      457.144      251.000        1.369        0.101      158.633       17.851        0.013      336.474        7.800      868.222
01/17/2015  00:22:00     -143.216       26.160      -14.900       22.725       20.404       12.749      516.438      416.326      162.532        1.126        0.055      145.586        8.544        0.003      336.454        7.766      868.224
01/17/2015  00:23:00     -101.432        7.617      -14.053       25.620       21.619       13.320      656.363      467.386      177.433        0.592        0.065      101.718        7.773        0.006      336.510        7.861      868.197
01/17/2015  00:24:00      -66.732        8.677       -8.991       16.758       22.378       12.632      280.825      500.764      159.559        0.278        0.047       67.294        6.878        0.010      336.548        7.925      868.144
01/17/2015  00:25:00      -43.892       21.227       -1.372       26.727       23.451       14.547      714.311      549.928      211.616        0.193        0.074       48.755       10.903        0.050      336.553        7.932      868.073
01/17/2015  00:26:00      -48.721       30.962       -9.996       17.111       18.766       11.882      292.799      352.176      141.176        0.211        0.039       57.727        9.447        0.027      336.561        7.948      868.014
01/17/2015  00:27:00      -47.812       35.838      -20.383       13.373       15.142        6.828      178.835      229.267       46.627        0.222        0.023       59.752        6.439        0.012      336.647        8.090      867.983
01/17/2015  00:28:00      -56.063       45.520      -13.398       12.815       19.985        8.899      164.218      399.413       79.188        0.302        0.032       72.216        8.303        0.013      336.533        7.898      867.980
01/17/2015  00:29:00      -35.942       36.026      -10.851       18.263       21.600        9.665      333.537      466.581       93.407        0.180        0.045       50.889       10.241        0.040      336.637        8.073      867.997
01/17/2015  00:30:00      -51.803       55.671       -9.552       29.563       25.174       11.191      873.948      633.737      125.242        0.375        0.082       76.045        8.719        0.013      336.702        8.180      868.022
01/17/2015  00:31:00      -41.320       55.223       -7.563       25.256       26.943       16.492      637.865      725.947      271.987        0.322        0.082       68.971       12.006        0.030      336.778        8.309      868.053
01/17/2015  00:32:00      -63.085       -2.933       -9.835       13.372       18.049       11.433      178.815      325.762      130.714        0.236        0.032       63.153        4.934        0.006      336.390        7.660      868.078
01/17/2015  00:33:00      -65.312       -5.662       -7.960       27.091       17.215       13.171      733.947      296.357      173.472        0.278        0.060       65.557       13.726        0.044      336.262        7.445      868.082
01/17/2015  00:34:00      -52.348       -4.053       -4.918       26.108       12.565       12.024      681.606      157.878      144.576        0.188        0.049       52.505       12.834        0.060      336.273        7.464      868.070
01/17/2015  00:35:00      -45.669       22.194      -10.827       18.363       15.735        9.529      337.194      247.579       90.808        0.169        0.034       50.777        9.486        0.035      336.524        7.884      868.040
01/17/2015  00:36:00        8.999       37.319       -2.328       28.741       17.782       11.504      826.051      316.201      132.349        0.138        0.064       38.389       11.385        0.088      336.624        8.051      868.006
01/17/2015  00:37:00       18.497       77.513       -7.287       14.399       26.495       16.282      207.345      702.011      265.103        0.379        0.059       79.689       14.361        0.032      336.680        8.145      867.974
01/17/2015  00:38:00       11.652       60.338       -6.832       17.219       15.453       12.956      296.485      238.805      167.863        0.226        0.035       61.453       10.696        0.030      336.611        8.031      867.961
01/17/2015  00:39:00       -6.558       78.681      -12.253       13.414       12.893        7.556      179.929      166.231       57.095        0.339        0.020       78.954        6.701        0.007      336.658        8.108      867.959
01/17/2015  00:40:00      -20.804       80.467      -13.372       15.373       13.959       11.652      236.315      194.867      135.774        0.383        0.028       83.113        8.712        0.011      336.720        8.213      867.962
01/17/2015  00:41:00      -34.846       27.220       -4.027       18.836       17.551        9.549      354.801      308.053       91.191        0.136        0.038       44.217        9.766        0.049      336.633        8.068      867.962
01/17/2015  00:42:00      -37.677       34.453       -7.026       18.911       19.676       11.029      357.632      387.127      121.638        0.176        0.043       51.055       11.095        0.047      336.653        8.100      867.951
01/17/2015  00:43:00      -51.638       41.932      -11.093       18.944       20.599       10.245      358.870      424.303      104.950        0.272        0.044       66.519        8.828        0.018      336.607        8.023      867.950
01/17/2015  00:44:00      -13.935       56.997       -8.123       28.003       24.475       11.170      784.146      599.003      124.765        0.251        0.075       58.675        9.510        0.026      336.688        8.159      867.965
01/17/2015  00:45:00        3.778       65.423       -3.204       15.956       18.780       15.036      254.597      352.694      226.084        0.257        0.042       65.532       12.917        0.039      336.753        8.265      867.981
01/17/2015  00:46:00        8.071       61.453       -2.982       16.766       19.235       13.902      281.085      369.985      193.278        0.235        0.042       61.981       12.340        0.040      336.693        8.167      868.002
01/17/2015  00:47:00       23.826       47.829       -5.999       22.626       20.510       16.499      511.928      420.646      272.226        0.205        0.060       53.435       14.426        0.073      336.640        8.080      868.019
01/17/2015  00:48:00       11.720       27.586       -1.212       10.614       15.370        8.453      112.655      236.231       71.457        0.066        0.021       29.973        9.347        0.097      336.615        8.036      868.033
01/17/2015  00:49:00       -2.363       46.226       -8.727        6.068        8.749        6.208       36.824       76.546       38.542        0.119        0.008       46.286        5.265        0.013      336.613        8.035      868.046
01/17/2015  00:50:00      -17.006       71.456      -11.773       11.854       12.425        7.564      140.516      154.384       57.217        0.294        0.018       73.452        3.309        0.002      336.697        8.175      868.060
01/17/2015  00:51:00      -13.572       60.489       -4.403        9.950       15.599        9.609       99.011      243.342       92.324        0.215        0.022       61.993        7.264        0.014      336.648        8.094      868.062
01/17/2015  00:52:00      -24.603       11.721        3.034       14.060       18.231        8.683      197.697      332.359       75.390        0.068        0.030       27.252        7.167        0.069      336.543        7.916      868.060
01/17/2015  00:53:00      -22.942      -11.300       -3.632        9.613        7.331        4.171       92.404       53.747       17.400        0.042        0.008       25.574        5.008        0.038      336.438        7.739      868.049
01/17/2015  00:54:00       -8.932       -1.485        4.105        8.692        7.154        7.859       75.545       51.180       61.765        0.014        0.009        9.054        4.091        0.204      336.494        7.835      868.028
01/17/2015  00:55:00       -4.784        1.816        0.518       17.820       11.828        7.864      317.553      139.901       61.835        0.027        0.026        5.117        5.596        1.196      336.596        8.004      868.010
01/17/2015  00:56:00       -1.407       18.486       -5.190        9.650       13.321        6.027       93.124      177.445       36.331        0.034        0.015       18.540        6.610        0.127      336.646        8.088      867.999
01/17/2015  00:57:00      -31.453        5.663       -0.612       14.023       12.235        9.072      196.640      149.690       82.306        0.073        0.021       31.958        7.309        0.052      336.631        8.062      867.992
01/17/2015  00:58:00      -43.085       -6.887       -5.476       11.372        8.774        8.130      129.323       76.981       66.104        0.110        0.014       43.632        6.416        0.022      336.484        7.816      867.988
01/17/2015  00:59:00      -54.917       -4.796      -10.462       11.099       11.810        8.174      123.183      139.468       66.807        0.174        0.016       55.126        6.553        0.014      336.431        7.729      867.985
01/17/2015  01:00:00      -58.107       24.953      -10.935       19.504       29.390       12.032      380.388      863.767      144.773        0.275        0.069       63.238        4.305        0.005      336.471        7.795      867.968
01/17/2015  01:01:00      -65.858       22.634       -7.498       25.219       28.309       13.125      635.984      801.393      172.257        0.326        0.080       69.639        4.570        0.004      336.533        7.899      867.962
01/17/2015  01:02:00      -70.025       13.014       -7.595       33.565       25.711       18.148     1126.638      661.037      329.348        0.362        0.106       71.225       14.125        0.039      336.526        7.887      867.965
01/17/2015  01:03:00     -107.100       -8.507      -14.050       24.759       21.830       17.429      613.032      476.565      303.785        0.657        0.070      107.437       14.273        0.018      336.426        7.720      867.966
01/17/2015  01:04:00      -75.023       -7.743       -7.708       35.790       23.835       18.320     1280.924      568.110      335.619        0.397        0.109       75.422       16.277        0.047      336.428        7.722      867.972
01/17/2015  01:05:00     -105.174        3.967      -17.102       25.270       21.685       16.565      638.594      470.253      274.393        0.638        0.069      105.249       10.413        0.010      336.440        7.743      867.967
01/17/2015  01:06:00      -83.299        4.017       -6.951       38.563       29.668       20.235     1487.070      880.217      409.467        0.489        0.139       83.396       15.608        0.035      336.425        7.717      867.969
01/17/2015  01:07:00      -89.090       -6.073       -8.912       26.096       27.242       18.300      680.988      742.109      334.903        0.491        0.088       89.297       17.205        0.037      336.434        7.733      867.977
01/17/2015  01:08:00     -106.673        1.251       -9.589       27.509       22.698       20.104      756.740      515.194      404.186        0.657        0.084      106.680       13.805        0.017      336.455        7.767      867.990
01/17/2015  01:09:00     -123.268      -10.274      -13.963       32.837       24.237       18.664     1078.300      587.415      348.362        0.875        0.101      123.695       10.278        0.007      336.401        7.678      868.006
01/17/2015  01:10:00     -110.887        9.411      -12.030       29.405       30.710       20.872      864.632      943.102      435.631        0.739        0.112      111.285        9.134        0.007      336.373        7.631      868.025
01/17/2015  01:11:00      -74.242       15.045      -10.038       28.657       21.497       14.321      821.223      462.115      205.078        0.366        0.074       75.751        3.583        0.002      336.360        7.611      868.048
01/17/2015  01:12:00      -52.341        5.749       -6.734       24.510       16.554       10.825      600.738      274.045      117.187        0.190        0.050       52.656        6.287        0.014      336.372        7.631      868.061
01/17/2015  01:13:00      -79.749       27.465      -20.886       18.442       44.007       16.701      340.100     1936.622      278.908        0.505        0.128       84.346       20.534        0.059      336.400        7.675      868.066
01/17/2015  01:14:00      -60.029       19.527      -16.647       28.039       28.186       15.790      786.173      794.440      249.322        0.305        0.091       63.125       11.158        0.031      336.409        7.692      868.061
01/17/2015  01:15:00      -53.560       22.288       -5.907       24.150       25.424       13.373      583.204      646.373      178.850        0.240        0.070       58.012       11.982        0.043      336.435        7.734      868.061
01/17/2015  01:16:00      -57.125       16.705       -9.200       30.825       21.338       18.491      950.179      455.293      341.920        0.269        0.087       59.518       19.729        0.110      336.496        7.836      868.083
01/17/2015  01:17:00      -77.387       43.126      -15.163       15.657       27.313       15.050      245.157      746.021      226.509        0.465        0.061       88.592        9.501        0.012      336.539        7.909      868.115
01/17/2015  01:18:00      -59.934       13.603      -13.902       11.442       21.674        9.207      130.923      469.747       84.774        0.233        0.034       61.458       10.225        0.028      336.493        7.834      868.133
01/17/2015  01:19:00      -53.990      -11.917       -7.323       14.899       13.130        9.982      221.968      172.390       99.631        0.180        0.025       55.290        4.763        0.007      336.490        7.828      868.129
01/17/2015  01:20:00      -52.414      -20.499       -6.485       12.948       18.022       10.247      167.639      324.797      104.993        0.190        0.030       56.280        3.916        0.005      336.449        7.757      868.092
01/17/2015  01:21:00      -55.715      -25.645       -7.753       12.205       13.908        7.807      148.955      193.441       60.950        0.211        0.020       61.334        2.813        0.002      336.400        7.675      868.050
01/17/2015  01:22:00      -32.301       -1.522       -2.547       25.355       23.978       11.221      642.882      574.966      125.920        0.120        0.067       32.336       10.960        0.115      336.405        7.686      868.019
01/17/2015  01:23:00      -51.490       15.883      -13.251       18.557       22.537       11.303      344.379      507.926      127.767        0.203        0.049       53.884       12.827        0.057      336.432        7.731      868.005
01/17/2015  01:24:00      -47.433       10.903      -11.319       21.740       17.240       13.589      472.609      297.214      184.669        0.173        0.048       48.670       11.503        0.056      336.417        7.704      867.999
01/17/2015  01:25:00      -36.692      -14.723       -8.922       14.395       18.268       10.937      207.207      333.708      119.627        0.115        0.033       39.535        6.933        0.031      336.417        7.702      867.986
01/17/2015  01:26:00      -75.487       18.127      -10.194       24.220       17.504       21.171      586.591      306.398      448.213        0.374        0.067       77.633       15.534        0.040      336.438        7.738      867.968
01/17/2015  01:27:00      -43.801        5.984        1.534       15.693       23.363       18.360      246.259      545.832      337.093        0.154        0.056       44.208       19.279        0.190      336.441        7.743      867.938
01/17/2015  01:28:00      -66.419       48.668      -19.300       31.283       27.075       18.459      978.609      733.062      340.719        0.460        0.103       82.342       16.208        0.039      336.527        7.888      867.929
01/17/2015  01:29:00      -86.958       78.152      -18.538       20.988       26.440       15.923      440.482      699.096      253.544        0.770        0.070      116.916       10.311        0.008      336.574        7.968      867.930
01/17/2015  01:30:00      -76.488       81.321      -12.454       22.712       36.990       24.094      515.851     1368.244      580.504        0.754        0.123      111.641       18.879        0.029      336.590        7.995      867.949
01/17/2015  01:31:00      -64.839       22.747      -10.329       17.808       17.161       15.758      317.119      294.494      248.329        0.284        0.043       68.713        7.739        0.013      336.613        8.033      867.945
01/17/2015  01:32:00      -84.797       50.864      -20.370       29.585       20.295       16.281      875.287      411.875      265.074        0.587        0.078       98.882       14.067        0.020      336.601        8.014      867.912
01/17/2015  01:33:00      -84.766       55.444      -19.626       25.315       25.159       13.717      640.829      632.973      188.162        0.605        0.073      101.289       12.936        0.016      336.589        7.993      867.871
01/17/2015  01:34:00     -107.129       79.798      -26.955       21.223       30.199       18.940      450.427      911.995      358.729        1.015        0.086      133.583       17.663        0.017      336.686        8.157      867.859
01/17/2015  01:35:00      -79.541       23.919      -18.256       22.918       48.268       16.790      525.218     2329.799      281.889        0.518        0.157       83.059       20.631        0.062      336.671        8.131      867.862
01/17/2015  01:36:00      -86.171       55.447      -20.049       25.917       22.719       17.065      671.668      516.140      291.209        0.619        0.074      102.469       13.233        0.017      336.609        8.025      867.873
01/17/2015  01:37:00      -91.517       10.300      -15.748       25.718       30.219       14.091      661.433      913.160      198.556        0.525        0.089       92.095       10.343        0.013      336.590        7.993      867.878
01/17/2015  01:38:00      -75.437        7.630      -14.738       20.410       17.882       15.636      416.561      319.755      244.496        0.347        0.049       75.822        9.513        0.016      336.550        7.928      867.869
01/17/2015  01:39:00      -74.880       -2.515      -10.610       21.971       30.211       14.374      482.741      912.703      206.607        0.366        0.080       74.922        8.397        0.013      336.486        7.820      867.856
01/17/2015  01:40:00      -68.489       11.378      -14.728       24.844       20.490       15.984      617.228      419.850      255.477        0.316        0.065       69.427        9.259        0.018      336.558        7.943      867.850
01/17/2015  01:41:00      -61.182       63.761      -15.359       27.680       38.913       16.938      766.160     1514.236      286.879        0.531        0.128       88.367       19.163        0.047      336.591        7.997      867.860
01/17/2015  01:42:00     -104.771      117.037      -33.766       36.139       36.988       23.250     1306.029     1368.085      540.561        1.451        0.161      157.082       17.441        0.012      336.644        8.086      867.872
01/17/2015  01:43:00      -57.912       54.877      -13.837       29.791       41.657       24.935      887.496     1735.292      621.735        0.490        0.162       79.783       29.851        0.140      336.603        8.019      867.875
01/17/2015  01:44:00      -48.909       56.902      -13.178       31.142       27.040       19.747      969.821      731.183      389.962        0.395        0.105       75.033       20.145        0.072      336.601        8.013      867.855
01/17/2015  01:45:00      -62.244       60.539      -14.864       28.238       32.293       20.315      797.401     1042.825      412.680        0.501        0.113       86.829       15.020        0.030      336.658        8.109      867.832
01/17/2015  01:46:00      -59.592       43.491      -11.401       16.021       21.317       15.050      256.686      454.427      226.493        0.325        0.047       73.775       12.800        0.030      336.638        8.075      867.822
01/17/2015  01:47:00      -30.758        7.290       -4.617       19.552       17.021       11.632      382.292      289.722      135.299        0.091        0.040       31.610       12.506        0.157      336.640        8.081      867.836
01/17/2015  01:48:00      -68.642       14.012      -10.864        9.172       13.435        7.833       84.128      180.487       61.350        0.268        0.016       70.057        4.805        0.005      336.612        8.031      867.854
01/17/2015  01:49:00      -55.457       -2.560       -7.178       10.112       11.393        9.254      102.262      129.811       85.643        0.173        0.016       55.516        4.704        0.007      336.525        7.884      867.865
01/17/2015  01:50:00      -48.883      -14.553       -3.225       16.403       21.175       11.475      269.051      448.381      131.667        0.173        0.042       51.003        7.533        0.022      336.471        7.796      867.876
01/17/2015  01:51:00      -44.161      -23.134       -2.612       18.292       10.681        9.640      334.615      114.084       92.924        0.152        0.027       49.853        9.095        0.033      336.480        7.812      867.886
01/17/2015  01:52:00      -36.248       16.514       -1.508       19.866       26.439       12.629      394.659      699.003      159.483        0.142        0.063       39.832       16.005        0.161      336.517        7.872      867.904
01/17/2015  01:53:00      -21.448        3.586       -0.926       14.618       11.752        4.888      213.690      138.119       23.893        0.042        0.019       21.745        5.055        0.054      336.533        7.899      867.925
01/17/2015  01:54:00       -4.676       15.343      -10.553       16.643       18.473        9.784      276.974      341.263       95.723        0.054        0.036       16.039        8.594        0.287      336.559        7.944      867.938
01/17/2015  01:55:00       16.624       61.533      -11.970        9.606       10.849        9.844       92.268      117.694       96.904        0.226        0.015       63.739        7.508        0.014      336.549        7.923      867.951
01/17/2015  01:56:00        7.392       28.845        7.608       27.312       29.582       14.964      745.969      875.083      223.935        0.139        0.092       29.777       18.765        0.397      336.523        7.882      867.940
01/17/2015  01:57:00      -31.185       -6.231       -2.376        8.361        8.522        7.310       69.904       72.617       53.436        0.061        0.010       31.801        3.640        0.013      336.509        7.859      867.913
01/17/2015  01:58:00      -18.701      -11.573        0.541       12.525        8.340        5.570      156.874       69.561       31.029        0.037        0.013       21.992        5.127        0.054      336.459        7.775      867.890
01/17/2015  01:59:00      -20.185      -11.643       -0.605        6.680        7.218        8.092       44.617       52.099       65.487        0.035        0.008       23.302        4.596        0.039      336.489        7.823      867.876
01/17/2015  02:00:00      -22.385      -15.828       -5.613        9.265        9.738        6.352       85.844       94.823       40.345        0.050        0.011       27.415        4.509        0.027      336.493        7.833      867.881
01/17/2015  02:01:00      -31.849       -5.180       -2.894        8.509       20.242        9.391       72.395      409.756       88.200        0.081        0.029       32.268        6.832        0.045      336.517        7.873      867.910
01/17/2015  02:02:00      -45.084        8.495       -4.747        9.927       13.591        7.536       98.543      184.723       56.790        0.123        0.017       45.878        6.130        0.018      336.469        7.790      867.934
01/17/2015  02:03:00      -39.772       21.944       -6.631       13.163       11.243        8.248      173.267      126.406       68.033        0.124        0.018       45.424        6.922        0.023      336.487        7.823      867.948
01/17/2015  02:04:00       -7.663       52.073       -5.072       18.716       23.150       11.258      350.305      535.924      126.741        0.190        0.051       52.633        9.267        0.031      336.526        7.886      867.935
01/17/2015  02:05:00       -2.085       54.580       -3.335       10.679       22.473        8.284      114.040      505.031       68.621        0.184        0.034       54.619        9.017        0.027      336.528        7.892      867.928
01/17/2015  02:06:00      -15.837       12.233       -0.530        9.140       12.434        4.215       83.531      154.595       17.768        0.033        0.013       20.012        4.067        0.041      336.553        7.934      867.962
01/17/2015  02:07:00      -52.537       -3.915       -1.388       13.692        8.195        9.150      187.471       67.161       83.726        0.156        0.017       52.682        6.825        0.017      336.425        7.719      868.016
01/17/2015  02:08:00      -53.392       16.059       -7.709       14.834       12.643        7.852      220.059      159.841       61.654        0.180        0.022       55.755        5.620        0.010      336.462        7.781      868.069
01/17/2015  02:09:00      -23.710       -8.667       -0.277       15.793       13.205        7.179      249.407      174.384       51.534        0.056        0.024       25.244        6.886        0.074      336.459        7.773      868.093
01/17/2015  02:10:00      -44.909      -25.103       -3.116        9.847       10.838        5.889       96.960      117.463       34.682        0.145        0.012       51.449        3.337        0.004      336.423        7.713      868.106
01/17/2015  02:11:00      -23.924      -15.822        5.109       16.260       10.680        9.737      264.392      114.063       94.817        0.066        0.024       28.682        8.933        0.097      336.424        7.715      868.111
01/17/2015  02:12:00      -13.963      -13.941        0.879       14.702        8.271        7.345      216.155       68.406       53.949        0.036        0.017       19.731        4.043        0.042      336.458        7.774      868.105
01/17/2015  02:13:00       -3.859       -5.426        4.088        9.140        8.818       10.100       83.531       77.757      102.013        0.016        0.013        6.659        5.323        0.639      336.516        7.872      868.083
01/17/2015  02:14:00        3.200       24.501       22.010       10.831       12.033        7.379      117.307      144.783       54.450        0.071        0.016       24.709        4.598        0.035      336.479        7.807      868.051
01/17/2015  02:15:00       -8.860        8.940       34.868        9.226       17.271       12.890       85.117      298.299      166.163        0.096        0.027       12.587       12.532        0.991      336.571        7.962      868.020
01/17/2015  02:16:00       -8.767       15.180       41.988       10.702       19.617       13.049      114.522      384.811      170.270        0.137        0.033       17.530       12.521        0.510      336.475        7.802      867.981
01/17/2015  02:17:00       11.635        6.682       42.339       23.298       15.879       16.099      542.799      252.147      259.174        0.151        0.053       13.417        8.112        0.366      336.419        7.707      867.938
01/17/2015  02:18:00       19.590      -23.249       33.216       29.774       37.898       27.010      886.486     1436.257      729.524        0.254        0.153       30.402       26.497        0.760      336.411        7.695      867.903
01/17/2015  02:19:00        9.805       -4.095       34.594       25.601       42.338       23.276      655.396     1792.519      541.770        0.215        0.149       10.626       16.689        2.467      336.372        7.630      867.884
01/17/2015  02:20:00       14.754       63.778       85.383       28.730       35.228       14.875      825.386     1240.999      221.264        0.693        0.114       65.463       14.942        0.052      336.295        7.501      867.845
01/17/2015  02:21:00       26.590       52.300       73.215       45.401       41.621       23.758     2061.240     1732.348      564.441        0.658        0.218       58.672       18.647        0.101      336.278        7.473      867.788
01/17/2015  02:22:00       86.769       64.967       63.282       39.425       27.839       35.453     1554.368      774.983     1256.899        0.967        0.179      108.395       14.294        0.017      336.219        7.375      867.748
01/17/2015  02:23:00       71.186       48.195       24.816       40.908       37.539       35.728     1673.481     1409.169     1276.506        0.618        0.218       85.966       25.100        0.085      336.120        7.207      867.769
01/17/2015  02:24:00       37.581       18.285       32.304       32.211       33.393       27.028     1037.560     1115.066      730.514        0.284        0.144       41.793       25.799        0.381      336.229        7.389      867.840
01/17/2015  02:25:00        7.433        9.757        8.917       15.015       14.076       12.261      225.443      198.124      150.343        0.040        0.029       12.266        5.866        0.229      336.253        7.431      867.924
01/17/2015  02:26:00       34.868       12.490        9.837       19.581       17.911       18.750      383.410      320.788      351.563        0.126        0.053       37.038       10.958        0.088      336.254        7.433      867.991
01/17/2015  02:27:00       24.366        5.590        2.061       14.730       11.655        9.442      216.983      135.828       89.145        0.054        0.022       24.999        6.161        0.061      336.254        7.431      868.041
01/17/2015  02:28:00        3.100        8.227       -4.806        7.908        7.753        8.636       62.537       60.104       74.584        0.015        0.010        8.791        6.160        0.491      336.252        7.430      868.080
01/17/2015  02:29:00      -35.366       19.468       -3.010       11.071        8.070        7.292      122.565       65.125       53.175        0.094        0.012       40.370        3.277        0.007      336.233        7.396      868.126
01/17/2015  02:30:00      -43.639       17.905       -5.198       15.748       11.021        7.529      248.015      121.472       56.691        0.134        0.021       47.169        5.642        0.014      336.191        7.326      868.171
01/17/2015  02:31:00      -37.571       32.358      -11.825       11.313       11.989       11.105      127.993      143.737      123.327        0.150        0.020       49.584        7.204        0.021      336.219        7.373      868.198
01/17/2015  02:32:00      -55.777       29.427      -13.077       15.731       18.933       11.200      247.455      358.450      125.443        0.244        0.037       63.064        9.040        0.021      336.217        7.373      868.210
01/17/2015  02:33:00      -77.199       27.685      -18.169       11.327       11.710        7.826      128.311      137.121       61.251        0.369        0.016       82.013        5.884        0.005      336.246        7.420      868.209
01/17/2015  02:34:00      -68.269       16.032      -11.670       10.691       11.041        8.687      114.303      121.902       75.465        0.268        0.016       70.126        4.967        0.005      336.263        7.448      868.216
01/17/2015  02:35:00      -72.194       17.151       -7.747       11.982       12.822       11.064      143.564      164.398      122.417        0.300        0.022       74.203        6.088        0.007      336.238        7.408      868.220
01/17/2015  02:36:00      -68.843       39.064      -10.837        8.666        7.974        8.000       75.092       63.577       64.000        0.329        0.010       79.154        6.018        0.006      336.253        7.429      868.235
01/17/2015  02:37:00      -71.595       39.087      -14.304        9.651        8.784        6.759       93.135       77.158       45.687        0.354        0.011       81.569        2.684        0.001      336.248        7.423      868.256
01/17/2015  02:38:00      -58.016       23.031       -8.440       12.858       11.188        9.671      165.328      125.165       93.531        0.218        0.019       62.420        8.871        0.020      336.226        7.386      868.271
01/17/2015  02:39:00      -58.994       35.504      -14.510        8.320       10.934        7.768       69.222      119.556       60.347        0.260        0.012       68.853        4.555        0.004      336.215        7.365      868.283
01/17/2015  02:40:00      -48.765        2.815       -4.534        7.052       10.217        8.888       49.731      104.387       79.005        0.132        0.012       48.846        4.396        0.008      336.217        7.371      868.266
01/17/2015  02:41:00      -41.498        7.378       -7.512       16.202       18.749        7.910      262.492      351.538       62.562        0.125        0.034       42.148        7.357        0.030      336.181        7.308      868.240
01/17/2015  02:42:00      -40.653       15.592       -5.275       20.983       26.262       13.604      440.279      689.713      185.067        0.162        0.066       43.540        9.986        0.053      336.145        7.249      868.219
01/17/2015  02:43:00      -38.931        1.828       -1.230       24.276       23.633       17.601      589.311      558.496      309.803        0.149        0.073       38.974       13.150        0.114      336.080        7.142      868.209
01/17/2015  02:44:00      -25.686       19.457        0.564       13.481       18.240       13.853      181.724      332.712      191.893        0.087        0.035       32.224        8.684        0.073      336.068        7.120      868.220
01/17/2015  02:45:00      -30.733       38.356       -5.072       10.405       12.106        8.059      108.268      146.552       64.952        0.138        0.016       49.150        5.690        0.013      336.121        7.209      868.230
01/17/2015  02:46:00      -36.518       34.716       -5.706       14.995       16.925       10.642      224.846      286.463      113.248        0.160        0.031       50.386       10.225        0.041      336.122        7.209      868.230
01/17/2015  02:47:00      -24.800       39.792       -0.098       13.360       11.951       12.431      178.482      142.829      154.532        0.134        0.024       46.888        9.618        0.042      336.080        7.141      868.229
01/17/2015  02:48:00        3.565       26.233        3.541       14.795        9.620        9.851      218.896       92.552       97.035        0.056        0.020       26.474        7.934        0.090      336.072        7.126      868.225
01/17/2015  02:49:00       20.936       47.259       -2.329        7.903        8.932        6.415       62.464       79.773       41.156        0.143        0.009       51.689        5.933        0.013      336.097        7.172      868.206
01/17/2015  02:50:00       40.950       38.258        2.313        9.045        8.448        7.067       81.805       71.373       49.939        0.167        0.010       56.041        4.867        0.008      336.091        7.156      868.182
01/17/2015  02:51:00       28.692       31.734       -2.763        8.813        8.850        8.061       77.674       78.325       64.973        0.103        0.011       42.782        4.913        0.013      335.985        6.982      868.181
01/17/2015  02:52:00        8.052       18.453       -4.001        5.096        7.535        4.614       25.972       56.778       21.286        0.026        0.005       20.134        2.674        0.018      336.048        7.088      868.190
01/17/2015  02:53:00        7.080       30.608       -2.710        5.629        6.506        4.673       31.680       42.325       21.839        0.055        0.005       31.416        1.877        0.004      336.051        7.092      868.181
01/17/2015  02:54:00        8.223       34.240       -3.632        5.350        8.924        6.109       28.626       79.646       37.323        0.070        0.007       35.213        2.008        0.003      336.093        7.162      868.163
01/17/2015  02:55:00        3.407       33.790       -5.483        7.516        9.088        4.113       56.486       82.583       16.919        0.067        0.008       33.961        2.741        0.007      336.117        7.204      868.165
01/17/2015  02:56:00       -3.730       24.187       -1.415        5.391        5.684        2.725       29.059       32.306        7.423        0.033        0.003       24.472        1.261        0.003      336.126        7.217      868.162
01/17/2015  02:57:00      -36.876       -5.491       -4.610       13.320       10.286        9.162      177.423      105.792       83.936        0.089        0.018       37.283        9.856        0.070      335.967        6.954      868.152
01/17/2015  02:58:00      -56.046      -14.745       -6.503       15.123       11.830        5.572      228.711      139.947       31.050        0.190        0.020       57.953        5.455        0.009      335.939        6.907      868.128
01/17/2015  02:59:00      -72.196      -19.822       -3.249       10.383        9.864        6.224      107.810       97.297       38.739        0.293        0.012       74.868        4.051        0.003      335.989        6.989      868.106
01/17/2015  03:00:00      -62.514      -19.847       -5.821       11.888       10.379        6.353      141.321      107.713       40.359        0.231        0.014       65.589        4.113        0.004      336.047        7.086      868.089
01/17/2015  03:01:00      -35.716       -4.465       -4.691        7.935        6.108        4.284       62.958       37.307       18.355        0.072        0.006       35.994        1.112        0.001      336.048        7.089      868.085
01/17/2015  03:02:00      -22.194       -7.715       -5.372        9.847        5.907        4.729       96.954       34.896       22.367        0.037        0.008       23.497        4.893        0.043      336.092        7.161      868.066
01/17/2015  03:03:00      -10.026      -16.029        0.425       17.740       10.076        6.823      314.714      101.535       46.553        0.041        0.023       18.907        4.226        0.050      336.099        7.172      868.029
01/17/2015  03:04:00      -38.080      -12.935       -2.094       19.239       10.214        8.122      370.140      104.331       65.960        0.108        0.027       40.217        6.695        0.028      336.015        7.032      867.985
01/17/2015  03:05:00      -80.517      -25.769       -8.584       11.516       10.624        6.594      132.627      112.859       43.481        0.375        0.014       84.541        4.850        0.003      335.924        6.881      867.953
01/17/2015  03:06:00      -64.439      -14.864        1.410       18.830       16.260       12.463      354.552      264.378      155.324        0.257        0.039       66.131        9.675        0.021      335.896        6.836      867.932
01/17/2015  03:07:00      -75.060      -26.136        0.058       26.905       13.758       12.021      723.905      189.271      144.502        0.369        0.053       79.480       13.833        0.030      335.954        6.931      867.916
01/17/2015  03:08:00      -87.478      -40.769        2.676       21.777       18.206       13.149      474.255      331.453      172.905        0.515        0.049       96.512        9.178        0.009      335.967        6.952      867.903
01/17/2015  03:09:00     -107.079      -31.569        0.611       23.613       14.853       13.364      557.584      220.612      178.603        0.671        0.048      111.635       12.601        0.013      335.831        6.726      867.899
01/17/2015  03:10:00     -109.199      -13.327        0.114       45.009       19.750       19.695     2025.821      390.053      387.898        0.745        0.140      110.009       20.928        0.036      335.743        6.583      867.902
01/17/2015  03:11:00     -124.875      -10.361       -4.890       41.411       25.487       19.682     1714.911      649.611      387.386        0.924        0.138      125.304       21.177        0.029      335.672        6.464      867.923
01/17/2015  03:12:00     -121.032       -1.939       -5.203       37.619       17.784       16.771     1415.222      316.255      281.258        0.835        0.101      121.048       18.469        0.023      335.668        6.456      867.951
01/17/2015  03:13:00     -108.764       12.040       -6.343       34.869       18.424       18.081     1215.813      339.451      326.933        0.695        0.094      109.429       19.961        0.033      335.715        6.535      867.961
01/17/2015  03:14:00      -73.566       -3.191       -6.383       38.767       25.315       17.806     1502.917      640.847      317.043        0.396        0.123       73.635       15.792        0.046      335.814        6.699      867.956
01/17/2015  03:15:00      -61.833       -0.096       -5.101       28.393       19.546       14.899      806.187      382.044      221.978        0.263        0.071       61.833       10.411        0.028      335.835        6.733      867.940
01/17/2015  03:16:00      -65.767      -34.174        1.935       27.269       21.319       13.620      743.619      454.502      185.499        0.344        0.069       74.116       12.585        0.029      335.705        6.516      867.933
01/17/2015  03:17:00     -102.965       11.729       -5.177       40.526       36.407       19.343     1642.346     1325.460      374.147        0.705        0.167      103.631       16.408        0.025      335.646        6.418      867.940
01/17/2015  03:18:00      -71.926        0.544       -4.516       34.448       34.345       20.553     1186.651     1179.570      422.437        0.399        0.139       71.928       16.016        0.050      335.596        6.335      867.963
01/17/2015  03:19:00      -55.889        5.607      -20.429       22.786       18.633       13.185      519.186      347.172      173.847        0.231        0.052       56.170        6.440        0.013      335.515        6.199      867.994
01/17/2015  03:20:00      -56.888       -8.997       -8.372       13.697       19.227        8.414      187.598      369.679       70.799        0.201        0.031       57.595        6.764        0.014      335.523        6.212      868.021
01/17/2015  03:21:00      -74.138        2.409       -6.786       23.905       20.515       13.929      571.441      420.871      194.016        0.337        0.059       74.177       13.296        0.032      335.594        6.333      868.046
01/17/2015  03:22:00      -67.825       -0.941      -12.247       19.271       17.921       13.881      371.371      321.165      192.696        0.282        0.044       67.832        8.756        0.017      335.560        6.275      868.071
01/17/2015  03:23:00      -91.932       -2.268      -13.660       19.284       21.993       11.267      371.863      483.697      126.937        0.481        0.049       91.960        7.252        0.006      335.493        6.164      868.093
01/17/2015  03:24:00      -78.041      -17.510      -10.172       27.947       27.518       15.673      781.019      757.239      245.657        0.414        0.089       79.981       12.250        0.023      335.462        6.112      868.096
01/17/2015  03:25:00      -80.438        8.432      -12.401       25.386       21.472       14.631      644.474      461.048      214.054        0.401        0.066       80.879       10.879        0.018      335.440        6.074      868.096
01/17/2015  03:26:00      -66.493       -6.881      -10.518       33.629       17.016        9.123     1130.876      289.538       83.226        0.304        0.075       66.848       11.925        0.032      335.489        6.156      868.085
01/17/2015  03:27:00      -45.748      -26.569       -3.690       27.098       21.885       13.648      734.310      478.956      186.260        0.211        0.070       52.903       10.481        0.039      335.523        6.213      868.069
01/17/2015  03:28:00      -65.888      -31.531       -4.557       23.786       20.944       13.521      565.755      438.653      182.813        0.327        0.059       73.044       11.321        0.024      335.414        6.031      868.056
01/17/2015  03:29:00      -92.887      -42.330       -6.836       16.175       23.345        8.305      261.634      545.000       68.979        0.567        0.044      102.078        8.966        0.008      335.414        6.031      868.038
01/17/2015  03:30:00      -93.161      -19.612       -9.852       30.758       20.828       14.965      946.053      433.821      223.940        0.538        0.080       95.203       14.934        0.025      335.362        5.945      868.012
01/17/2015  03:31:00      -97.610      -16.833       -9.999       25.866       22.010       13.976      669.038      484.441      195.322        0.563        0.067       99.051       11.327        0.013      335.394        5.997      868.006
01/17/2015  03:32:00     -138.868       -3.494      -12.780       25.831       21.984       17.777      667.244      483.307      316.011        1.046        0.073      138.912       14.489        0.011      335.475        6.134      868.019
01/17/2015  03:33:00     -165.739       22.055      -17.747       29.035       19.433       15.162      843.051      377.643      229.874        1.486        0.073      167.200       12.289        0.005      335.347        5.918      868.052
01/17/2015  03:34:00     -160.766       24.353      -19.529       37.338       28.803       15.449     1394.107      829.640      238.668        1.464        0.123      162.600       11.416        0.005      335.351        5.927      868.079
01/17/2015  03:35:00     -134.810       22.679      -13.444       28.294       31.587       17.758      800.553      997.730      315.354        1.049        0.106      136.704        6.181        0.002      335.373        5.963      868.074
01/17/2015  03:36:00     -107.315       17.266      -16.055       25.768       20.621       15.953      663.986      425.244      254.508        0.671        0.067      108.695       13.589        0.016      335.461        6.110      868.048
01/17/2015  03:37:00      -86.065        6.051       -9.168       21.435       24.017       18.151      459.467      576.803      329.455        0.445        0.068       86.278       13.266        0.024      335.528        6.222      868.016
01/17/2015  03:38:00      -79.860       10.619       -3.950       28.894       23.265       16.998      834.839      541.250      288.941        0.409        0.083       80.563       13.545        0.028      335.619        6.374      868.002
01/17/2015  03:39:00      -89.716      -15.904       -9.035       23.865       26.266       13.415      569.561      689.914      179.974        0.491        0.072       91.115        8.202        0.008      335.381        5.975      868.003
01/17/2015  03:40:00     -117.751       -3.701       -9.956       25.101       24.217       15.717      630.063      586.483      247.012        0.772        0.073      117.809       12.515        0.011      335.404        6.014      868.004
01/17/2015  03:41:00     -117.295       12.414      -12.061       33.712       32.471       19.953     1136.527     1054.361      398.126        0.832        0.129      117.950       15.873        0.018      335.387        5.986      868.010
01/17/2015  03:42:00      -65.234       -8.287       -3.013       34.869       28.675       15.901     1215.863      822.229      252.853        0.331        0.115       65.758       15.819        0.058      335.330        5.890      868.025
01/17/2015  03:43:00      -83.997      -10.925       -4.810       30.117       18.424       15.753      907.038      339.457      248.162        0.435        0.075       84.704       13.114        0.024      335.354        5.931      868.043
01/17/2015  03:44:00     -117.130       -5.694       -7.032       34.796       20.231       15.067     1210.758      409.286      227.019        0.782        0.092      117.269       12.343        0.011      335.512        6.196      868.047
01/17/2015  03:45:00     -118.414       29.776      -11.389       36.559       23.956       13.225     1336.554      573.896      174.897        0.856        0.104      122.100       10.698        0.008      335.627        6.386      868.056
01/17/2015  03:46:00     -107.693       14.979      -13.050       25.518       25.564       13.160      651.155      653.499      173.177        0.673        0.074      108.730        5.678        0.003      335.613        6.363      868.071
01/17/2015  03:47:00      -91.870       32.581       -6.287       36.620       29.581       19.445     1340.994      875.054      378.094        0.607        0.130       97.476       18.619        0.036      335.586        6.320      868.108
01/17/2015  03:48:00      -94.739       11.427       -8.995       27.631       26.232       19.092      763.461      688.108      364.511        0.550        0.091       95.426       12.238        0.016      335.492        6.161      868.163
01/17/2015  03:49:00     -118.212        5.374      -16.764       35.270       29.121       24.392     1243.951      848.020      594.976        0.848        0.134      118.334       24.004        0.041      335.417        6.037      868.198
01/17/2015  03:50:00      -98.904       18.219      -12.216       38.997       33.451       16.583     1520.766     1118.973      274.984        0.659        0.146      100.568       15.082        0.022      335.453        6.097      868.207
01/17/2015  03:51:00      -77.350       18.321       -7.140       26.306       26.127       15.258      692.010      682.631      232.814        0.399        0.080       79.491        6.861        0.007      335.599        6.341      868.180
01/17/2015  03:52:00      -79.949      -16.011      -12.865       31.544       33.213       14.160      995.010     1103.111      200.513        0.456        0.115       81.537       14.864        0.033      335.618        6.373      868.144
01/17/2015  03:53:00      -67.304      -26.943       -7.183       27.942       20.768       17.936      780.741      431.290      321.695        0.342        0.077       72.497       15.061        0.043      335.559        6.274      868.103
01/17/2015  03:54:00      -84.624      -17.829      -13.569       16.931       20.866       11.939      286.643      435.383      142.541        0.426        0.043       86.482        7.716        0.008      335.542        6.245      868.073
01/17/2015  03:55:00      -30.474      -22.597       -0.684       29.901       26.058       14.137      894.074      678.997      199.862        0.161        0.089       37.938       10.530        0.077      335.570        6.292      868.055
01/17/2015  03:56:00      -24.192      -11.317       -4.845       16.407        9.555        7.512      269.185       91.304       56.427        0.058        0.021       26.708        6.996        0.069      335.658        6.440      868.041
01/17/2015  03:57:00      -69.062      -21.459       -5.525       30.266       19.436       13.010      916.002      377.759      169.270        0.336        0.073       72.319       16.469        0.052      335.577        6.302      868.060
01/17/2015  03:58:00     -116.006      -47.444       -5.524       17.894       16.503       12.296      320.202      272.365      151.185        0.824        0.037      125.333        9.100        0.005      335.462        6.112      868.105
01/17/2015  03:59:00      -80.910      -33.929       -6.576       19.632       18.383       17.150      385.407      337.940      294.126        0.438        0.051       87.736       14.427        0.027      335.465        6.117      868.130
01/17/2015  04:00:00      -37.132        1.024       -2.367       35.948       16.157       14.846     1292.289      261.047      220.404        0.158        0.089       37.146        9.873        0.071      335.454        6.099      868.135
01/17/2015  04:01:00      -24.719       -4.432       -8.408       22.036       18.460       10.395      485.592      340.781      108.054        0.082        0.047       25.113        8.579        0.117      335.561        6.277      868.137
01/17/2015  04:02:00      -70.070       30.445      -14.466       15.070       16.745        9.813      227.094      280.400       96.293        0.332        0.030       76.398        7.272        0.009      335.621        6.377      868.143
01/17/2015  04:03:00      -61.558       14.792      -10.674       15.925       17.297       13.177      253.599      299.185      173.631        0.242        0.036       63.310       10.406        0.027      335.788        6.655      868.141
01/17/2015  04:04:00      -13.029       41.121       -0.644       16.461       19.818        9.423      270.961      392.736       88.795        0.131        0.038       43.136        6.224        0.021      335.948        6.921      868.119
01/17/2015  04:05:00       -2.695       21.103        6.811        9.634       11.130       10.860       92.808      123.875      117.933        0.042        0.017       21.274        6.684        0.099      335.924        6.881      868.103
01/17/2015  04:06:00       -0.189       -3.362        5.872        5.497       11.667        5.442       30.219      136.121       29.612        0.012        0.010        3.367        2.622        0.607      335.988        6.987      868.090
01/17/2015  04:07:00       -0.290       -1.378       10.725        3.941        5.414        3.918       15.533       29.312       15.352        0.009        0.003        1.408        1.534        1.187      336.086        7.149      868.070
01/17/2015  04:08:00       12.634        8.680       13.170       11.595       15.983        8.921      134.436      255.444       79.592        0.044        0.023       15.328       10.621        0.480      335.846        6.750      868.041
01/17/2015  04:09:00       12.076        1.952        8.845       11.611       11.772       10.702      134.812      138.576      114.527        0.031        0.019       12.232       11.885        0.944      335.915        6.866      868.005
01/17/2015  04:10:00       20.031        7.593       12.701       10.272        9.943       10.074      105.519       98.854      101.480        0.046        0.015       21.422        8.428        0.155      335.876        6.803      867.961
01/17/2015  04:11:00        1.879        3.574       10.042        7.498        5.051        5.760       56.219       25.510       33.177        0.012        0.006        4.038        2.354        0.340      335.958        6.937      867.922
01/17/2015  04:12:00       -2.264       -9.002        2.390        8.415        7.869        4.109       70.821       61.921       16.880        0.012        0.007        9.282        2.889        0.097      336.010        7.024      867.883
01/17/2015  04:13:00      -49.506      -14.821       -6.981       18.170        9.899        6.567      330.164       97.989       43.123        0.160        0.024       51.676        5.929        0.013      335.612        6.360      867.850
01/17/2015  04:14:00      -65.140      -23.591       -9.220       10.052        8.529        6.638      101.050       72.749       44.069        0.255        0.011       69.280        4.796        0.005      335.548        6.255      867.823
01/17/2015  04:15:00      -59.998      -26.252       -7.376       13.344        7.507        5.216      178.071       56.361       27.203        0.230        0.013       65.490        2.005        0.001      335.538        6.238      867.800
01/17/2015  04:16:00      -76.950      -23.627      -10.831        8.052        9.104        6.381       64.835       82.880       40.713        0.339        0.009       80.496        3.737        0.002      335.660        6.442      867.777
01/17/2015  04:17:00      -67.736      -16.974       -6.916       14.492       10.325        7.626      210.005      106.602       58.159        0.265        0.019       69.830        8.660        0.015      335.630        6.392      867.754
01/17/2015  04:18:00      -74.710       -6.482       -7.651       11.196        6.955        6.572      125.349       48.370       43.188        0.295        0.011       74.991        4.118        0.003      335.622        6.378      867.721
01/17/2015  04:19:00      -62.501      -11.746       -6.499       11.812        8.971        7.399      139.532       80.477       54.746        0.218        0.014       63.595        4.415        0.005      335.623        6.381      867.688
01/17/2015  04:20:00      -42.506       -2.982       -2.076       19.210        8.111        8.181      369.043       65.796       66.937        0.116        0.025       42.610        8.769        0.042      335.622        6.378      867.673
01/17/2015  04:21:00        1.276        9.165       13.801        8.236        9.946       10.342       67.825       98.915      106.954        0.027        0.014        9.253        6.214        0.451      335.693        6.497      867.674
01/17/2015  04:22:00       11.471       20.656       33.686       22.555       20.156       18.040      508.720      406.262      325.438        0.147        0.062       23.628       13.222        0.313      335.648        6.421      867.706
01/17/2015  04:23:00       13.588       27.956       40.067       20.951       22.369       18.285      438.945      500.365      334.357        0.192        0.064       31.084       10.247        0.109      335.538        6.238      867.746
01/17/2015  04:24:00       45.221       37.305       38.560       28.835       25.097       26.838      831.446      629.854      720.294        0.355        0.109       58.623       21.170        0.130      335.398        6.004      867.780
01/17/2015  04:25:00       60.367       28.251       46.035       25.344       23.822       21.061      642.344      567.465      443.577        0.411        0.083       66.651       15.208        0.052      335.420        6.042      867.798
01/17/2015  04:26:00       19.948       22.414       44.741       27.982       25.340       17.627      782.991      642.114      310.702        0.232        0.087       30.005       16.726        0.311      335.517        6.204      867.806
01/17/2015  04:27:00       51.751      -45.164       12.604       46.068       59.451       32.287     2122.253     3534.367     1042.450        0.579        0.335       68.688       35.013        0.260      335.545        6.249      867.806
01/17/2015  04:28:00       88.048      -59.236        2.728       55.755       77.137       41.752     3108.661     5950.193     1743.222        1.103        0.540      106.120       53.820        0.257      335.523        6.214      867.793
01/17/2015  04:29:00       33.653       -2.375       38.704       36.064       48.479       45.415     1300.589     2350.216     2062.534        0.417        0.286       33.736       39.347        1.360      335.567        6.287      867.780
01/17/2015  04:30:00       40.318      -26.099       23.355       36.252       40.885       32.782     1314.234     1671.621     1074.671        0.346        0.203       48.028       32.854        0.468      335.612        6.361      867.744
01/17/2015  04:31:00       27.847       -9.551       25.478       30.359       37.065       23.367      921.682     1373.796      546.000        0.218        0.142       29.439       20.643        0.492      335.615        6.368      867.718
01/17/2015  04:32:00       -5.662       37.117       56.870       18.732       35.105       21.786      350.885     1232.354      474.646        0.335        0.103       37.546       21.379        0.324      335.650        6.425      867.708
01/17/2015  04:33:00      -11.400       67.303       77.530       21.539       30.980       18.129      463.916      959.738      328.668        0.621        0.088       68.262       17.522        0.066      335.657        6.436      867.716
01/17/2015  04:34:00       28.756       -6.259       42.585       34.516       55.749       27.404     1191.341     3107.930      750.989        0.386        0.253       29.430       33.144        1.268      335.654        6.431      867.718
01/17/2015  04:35:00       27.839      -28.508       25.285       34.103       36.397       29.399     1163.042     1324.767      864.302        0.279        0.168       39.846       25.236        0.401      335.638        6.407      867.715
01/17/2015  04:36:00        0.818       46.957       70.005       27.763       40.155       23.583      770.772     1612.411      556.179        0.502        0.147       46.964       22.451        0.229      335.614        6.366      867.702
01/17/2015  04:37:00        8.242       34.777       69.082       25.743       32.286       19.673      662.677     1042.368      387.035        0.407        0.105       35.740       12.402        0.120      335.653        6.430      867.691
01/17/2015  04:38:00       22.603       21.341       56.575       32.097       43.480       27.566     1030.195     1890.470      759.907        0.392        0.184       31.086       30.166        0.942      335.570        6.291      867.692
01/17/2015  04:39:00       90.975      -30.050       18.996       44.435       35.724       24.988     1974.500     1276.212      624.408        0.671        0.194       95.809       27.512        0.082      335.463        6.112      867.692
01/17/2015  04:40:00       55.731        3.853       39.783       43.119       34.538       30.545     1859.217     1192.851      933.015        0.434        0.199       55.864       22.225        0.158      335.440        6.076      867.682
01/17/2015  04:41:00       45.057      -25.117       21.304       23.434       23.294       22.955      549.166      542.592      526.951        0.237        0.081       51.584       19.252        0.139      335.429        6.053      867.679
01/17/2015  04:42:00       29.971       10.821       27.541       18.316       20.209       15.761      335.458      408.386      248.412        0.138        0.050       31.864        4.162        0.017      335.409        6.023      867.667
01/17/2015  04:43:00       21.361       41.372       65.578       29.968       39.654       25.433      898.056     1572.461      646.814        0.479        0.156       46.561       27.753        0.355      335.396        6.002      867.640
01/17/2015  04:44:00       53.743       -1.099       37.651       38.761       51.874       37.497     1502.393     2690.896     1406.016        0.495        0.280       53.754       34.412        0.410      335.394        5.998      867.621
01/17/2015  04:45:00       22.842        9.866       30.737       23.716       34.133       22.704      562.458     1165.067      515.477        0.190        0.112       24.882       17.002        0.467      335.394        5.997      867.584
01/17/2015  04:46:00       23.742       48.767       60.687       33.421       30.462       21.095     1116.972      927.916      444.997        0.456        0.124       54.239       12.347        0.052      335.364        5.947      867.534
01/17/2015  04:47:00       32.548       25.711       52.898       34.480       33.106       22.748     1188.849     1095.991      517.469        0.366        0.140       41.478       22.196        0.286      335.332        5.896      867.498
01/17/2015  04:48:00       17.040       23.988       48.724       22.327       34.167       19.106      498.506     1167.367      365.041        0.264        0.102       29.424       21.781        0.548      335.326        5.884      867.480
01/17/2015  04:49:00       40.144       26.808       35.932       24.978       27.938       23.398      623.924      780.550      547.471        0.279        0.098       48.272       20.372        0.178      335.284        5.813      867.469
01/17/2015  04:50:00       65.225       45.781       26.540       28.533       17.237       19.087      814.151      297.126      364.330        0.426        0.074       79.688       11.703        0.022      335.261        5.777      867.459
01/17/2015  04:51:00       58.618       23.868       28.552       19.737       32.443       20.714      389.554     1052.553      429.066        0.335        0.094       63.291       18.772        0.088      335.285        5.816      867.468
01/17/2015  04:52:00       41.539       27.014       18.908       16.384       20.720       17.900      268.447      429.328      320.395        0.192        0.051       49.551       10.772        0.047      335.256        5.767      867.470
01/17/2015  04:53:00       58.554       26.195        7.200       19.068       18.046       16.589      363.598      325.650      275.211        0.257        0.048       64.146       12.660        0.039      335.249        5.754      867.482
01/17/2015  04:54:00       41.529       20.341       13.388       29.500       16.447       18.508      870.233      270.494      342.535        0.190        0.074       46.243       16.227        0.123      335.279        5.806      867.516
01/17/2015  04:55:00       22.166       28.132        9.581       15.295       13.682       12.636      233.944      187.191      159.674        0.098        0.029       35.816       11.813        0.109      335.220        5.706      867.531
01/17/2015  04:56:00        8.768       18.400       10.090       10.485       11.929        8.411      109.927      142.306       70.741        0.042        0.016       20.382        5.743        0.079      335.217        5.703      867.530
01/17/2015  04:57:00       16.000       32.733        2.533        9.850       10.100        6.819       97.015      102.011       46.501        0.079        0.012       36.434        5.282        0.021      335.231        5.725      867.517
01/17/2015  04:58:00        7.393       17.471        0.454        7.894       13.844        4.565       62.312      191.662       20.841        0.032        0.014       18.971        2.685        0.020      335.241        5.743      867.500
01/17/2015  04:59:00       -9.738        8.877       -2.430        9.739        5.342        4.666       94.849       28.536       21.773        0.016        0.007       13.177        4.523        0.118      335.250        5.757      867.488
01/17/2015  05:00:00      -24.074        3.443       -1.388        4.926        5.455        3.776       24.262       29.754       14.260        0.033        0.003       24.319        2.323        0.009      335.297        5.836      867.493
01/17/2015  05:01:00      -39.578        3.872       -2.663       10.214        9.733        7.263      104.319       94.731       52.755        0.092        0.013       39.767        4.241        0.011      335.296        5.833      867.497
01/17/2015  05:02:00      -13.965       21.963       -0.387       11.248       14.233       12.289      126.517      202.590      151.030        0.058        0.024       26.027        4.305        0.027      335.244        5.746      867.500
01/17/2015  05:03:00       13.861       31.593       15.444       16.222       12.530       10.579      263.152      156.998      111.914        0.098        0.027       34.500        9.288        0.072      335.254        5.765      867.493
01/17/2015  05:04:00       29.095       38.833        2.582        9.842       17.492       12.402       96.859      305.982      153.805        0.146        0.028       48.523       10.633        0.048      335.211        5.694      867.474
01/17/2015  05:05:00       13.295       24.210       -5.063       11.621       17.163        9.393      135.052      294.570       88.236        0.065        0.026       27.621        8.521        0.095      335.073        5.467      867.472
01/17/2015  05:06:00        3.105       34.782       -4.573       10.376       26.210        8.906      107.654      686.977       79.309        0.106        0.044       34.920       12.287        0.124      335.130        5.559      867.480
01/17/2015  05:07:00      -19.844       65.643      -11.018       15.314       11.775        9.067      234.526      138.652       82.212        0.264        0.023       68.577        7.055        0.011      335.294        5.832      867.484
01/17/2015  05:08:00      -65.830       62.226      -15.620       17.924       12.140        8.647      321.266      147.383       74.778        0.450        0.027       90.585        7.034        0.006      335.220        5.708      867.488
01/17/2015  05:09:00      -75.723       34.103      -17.306        8.386       14.742        6.657       70.320      217.320       44.315        0.376        0.017       83.048        4.417        0.003      335.219        5.707      867.499
01/17/2015  05:10:00      -82.648       49.569      -20.675        9.274       12.097        6.059       86.007      146.343       36.711        0.499        0.013       96.373        3.964        0.002      335.312        5.861      867.527
01/17/2015  05:11:00      -79.460       40.825      -22.969       24.127       21.860       12.745      582.125      477.864      162.436        0.487        0.061       89.334       13.370        0.022      335.271        5.792      867.579
01/17/2015  05:12:00     -138.648       38.168      -13.561       38.014       31.441       20.558     1445.041      988.535      422.633        1.186        0.143      143.806        8.475        0.003      335.155        5.600      867.627
01/17/2015  05:13:00      -89.340       36.288      -15.249       59.217       46.970       27.019     3506.609     2206.199      730.044        0.799        0.322       96.429       26.945        0.078      335.029        5.392      867.661
01/17/2015  05:14:00      -53.189       -7.497       -8.908       25.322       31.928       13.385      641.221     1019.389      179.155        0.240        0.092       53.715       12.888        0.058      334.984        5.318      867.672
01/17/2015  05:15:00      -27.700        1.521       -5.083       23.931       24.084       15.803      572.709      580.025      249.731        0.110        0.070       27.742       11.716        0.178      334.971        5.294      867.657
01/17/2015  05:16:00      -64.021       27.958      -16.415       12.468       25.912       12.440      155.460      671.445      154.746        0.307        0.049       69.859        9.605        0.019      334.994        5.335      867.636
01/17/2015  05:17:00      -83.059       36.781      -14.042       17.678       17.893       12.081      312.495      320.145      145.949        0.461        0.039       90.838       10.052        0.012      334.957        5.272      867.630
01/17/2015  05:18:00      -63.423       22.165      -12.970       12.462       23.228       15.248      155.297      539.545      232.489        0.280        0.046       67.185        8.197        0.015      335.024        5.384      867.630
01/17/2015  05:19:00      -33.511       -0.838       -8.971       40.724       29.898       19.908     1658.423      893.902      396.316        0.208        0.147       33.522       15.045        0.201      335.072        5.464      867.626
01/17/2015  05:20:00      -28.850      -44.867        3.492       38.381       27.398       17.345     1473.065      750.630      300.835        0.269        0.126       53.342       11.863        0.049      334.935        5.236      867.617
01/17/2015  05:21:00      -42.947      -40.093        0.669       29.497       29.178       14.615      870.051      851.360      213.605        0.269        0.097       58.753       15.319        0.068      334.847        5.090      867.599
01/17/2015  05:22:00      -57.667      -28.990        0.020       22.097       16.504       13.782      488.275      272.375      189.955        0.256        0.048       64.544       13.505        0.044      334.831        5.063      867.561
01/17/2015  05:23:00      -62.502      -13.859      -10.891       16.228        8.738        9.115      263.344       76.355       83.080        0.232        0.021       64.020        8.513        0.018      334.900        5.179      867.522
01/17/2015  05:24:00      -53.205       -2.385       -5.541       12.063       22.044        9.578      145.524      485.940       91.733        0.180        0.036       53.259        4.519        0.007      334.883        5.150      867.488
01/17/2015  05:25:00      -45.831        8.012       -3.867       15.391       16.869       10.301      236.898      284.553      106.107        0.140        0.031       46.526        6.590        0.020      334.945        5.251      867.473
01/17/2015  05:26:00      -51.213       24.447      -10.069       18.129       22.603       15.796      328.646      510.875      249.529        0.221        0.054       56.749       13.236        0.054      335.079        5.475      867.478
01/17/2015  05:27:00      -44.052       -1.591       -5.886        8.593        8.107        9.360       73.835       65.719       87.605        0.110        0.011       44.081        6.463        0.021      335.115        5.534      867.480
01/17/2015  05:28:00      -10.818      -17.424        4.389       19.521        8.282        7.587      381.071       68.592       57.568        0.047        0.025       20.510        8.186        0.159      335.172        5.630      867.488
01/17/2015  05:29:00       -4.465       -8.169        4.497       13.715       12.032        6.746      188.103      144.765       45.506        0.024        0.019        9.309        7.553        0.658      335.073        5.465      867.515
01/17/2015  05:30:00      -77.629      -26.140       -6.581       14.337       15.594        9.091      205.556      243.170       82.651        0.364        0.027       81.912        5.576        0.005      334.953        5.266      867.547
01/17/2015  05:31:00      -77.350       -8.957       -8.555       17.421       18.053       12.661      303.487      325.926      160.299        0.346        0.039       77.867       10.170        0.017      334.819        5.044      867.574
01/17/2015  05:32:00      -48.137      -13.485       -4.286       15.619        8.221       10.431      243.940       67.580      108.804        0.147        0.021       49.991        7.432        0.022      334.786        4.992      867.578
01/17/2015  05:33:00      -11.439      -15.422       -2.710       10.730        4.165        3.364      115.133       17.349       11.315        0.026        0.007       19.201        1.672        0.008      334.909        5.192      867.591
01/17/2015  05:34:00       17.695       -2.581        3.645       11.989       13.647        8.074      143.731      186.249       65.192        0.036        0.020       17.882       10.667        0.356      335.065        5.454      867.615
01/17/2015  05:35:00       23.840       23.100        3.719       14.646        9.760        9.002      214.491       95.254       81.035        0.075        0.020       33.196       10.573        0.101      335.107        5.522      867.649
01/17/2015  05:36:00        4.162       17.988       -1.618        7.179        9.594        3.914       51.541       92.040       15.323        0.025        0.008       18.463        3.338        0.033      335.155        5.604      867.685
01/17/2015  05:37:00      -26.999        5.736       -2.637       19.279       12.376        6.885      371.684      153.166       47.409        0.067        0.029       27.602        7.996        0.084      335.052        5.430      867.705
01/17/2015  05:38:00      -62.135       -0.916       -8.818       24.373        9.814        7.341      594.020       96.321       53.885        0.234        0.037       62.142        7.679        0.015      334.731        4.899      867.700
01/17/2015  05:39:00     -103.153        3.807      -12.009       25.116       15.954       12.632      630.809      254.540      159.563        0.592        0.052      103.223       11.317        0.012      334.563        4.618      867.680
01/17/2015  05:40:00      -83.264        3.465      -11.065       33.891       24.789       14.699     1148.571      614.501      216.075        0.452        0.099       83.336       13.794        0.027      334.560        4.611      867.646
01/17/2015  05:41:00      -55.513      -12.180       -5.695       27.448       27.275       15.140      753.392      743.914      229.219        0.249        0.086       56.834       13.007        0.052      334.556        4.606      867.624
01/17/2015  05:42:00      -64.246      -19.301       -4.632       21.982       15.272       10.995      483.230      233.227      120.900        0.268        0.042       67.082       11.009        0.027      334.565        4.622      867.611
01/17/2015  05:43:00     -120.353      -28.720      -11.716       20.237       18.961       13.033      409.556      359.523      169.858        0.819        0.047      123.733        9.992        0.007      334.550        4.595      867.610
01/17/2015  05:44:00     -151.672      -24.586      -15.039       26.161       25.140       18.406      684.399      632.017      338.799        1.274        0.083      153.652       13.908        0.008      334.473        4.468      867.615
01/17/2015  05:45:00     -173.161      -14.048      -16.081       38.934       22.499       22.724     1515.895      506.202      516.370        1.649        0.127      173.730       25.109        0.021      334.440        4.415      867.629
01/17/2015  05:46:00     -155.784       -0.932       -8.299       48.650       26.238       29.912     2366.799      688.445      894.698        1.414        0.197      155.787       30.931        0.039      334.449        4.428      867.643
01/17/2015  05:47:00     -161.036       10.777      -13.170       33.312       25.372       21.279     1109.657      643.744      452.802        1.421        0.110      161.396       21.129        0.017      334.450        4.431      867.640
01/17/2015  05:48:00     -162.694       12.770      -14.943       32.656       23.567       17.306     1066.435      555.386      299.509        1.439        0.096      163.194       16.130        0.010      334.441        4.415      867.624
01/17/2015  05:49:00     -148.433      -12.588       -9.611       33.085       19.742       23.240     1094.614      389.748      540.098        1.215        0.101      148.966       21.554        0.021      334.524        4.553      867.620
01/17/2015  05:50:00     -127.488      -12.933       -7.234       45.319       28.931       21.236     2053.794      836.991      450.987        0.991        0.167      128.142       21.925        0.029      334.585        4.654      867.628
01/17/2015  05:51:00     -101.760       -6.433       -3.200       29.698       36.508       20.164      881.942     1332.855      406.607        0.651        0.131      101.963       16.231        0.025      334.544        4.587      867.635
01/17/2015  05:52:00     -105.224      -18.859       -8.341       29.238       22.995       15.994      854.841      528.781      255.818        0.657        0.082      106.901       13.033        0.015      334.545        4.589      867.651
01/17/2015  05:53:00     -137.642       -8.307       -8.134       39.833       17.955       19.085     1586.679      322.380      364.238        1.068        0.114      137.892       21.618        0.025      334.468        4.461      867.676
01/17/2015  05:54:00     -156.180       -4.856      -15.519       40.440       25.348       17.421     1635.365      642.508      303.489        1.362        0.129      156.255       14.632        0.009      334.398        4.345      867.705
01/17/2015  05:55:00     -208.665       63.720      -18.930       40.404       46.730       27.667     1632.444     2183.681      765.442        2.627        0.229      218.178       15.928        0.005      334.341        4.247      867.721
01/17/2015  05:56:00     -142.580       33.904       -7.497       62.094       48.580       25.912     3855.673     2359.994      671.446        1.421        0.344      146.555       22.436        0.023      334.377        4.308      867.722
01/17/2015  05:57:00     -147.263      -54.070      -13.636       47.977       37.544       31.781     2301.796     1409.553     1010.023        1.476        0.236      156.876       30.157        0.037      334.387        4.326      867.738
01/17/2015  05:58:00     -163.206      -45.128      -10.258       33.200       34.392       25.146     1102.271     1182.826      632.333        1.585        0.146      169.330       21.111        0.016      334.337        4.244      867.772
01/17/2015  05:59:00     -149.623      -53.073      -25.155       30.731       40.304       24.012      944.394     1624.422      576.586        1.449        0.157      158.757       13.070        0.007      334.310        4.198      867.806
01/17/2015  06:00:00     -158.401      -13.936       -4.014       49.991       46.899       28.548     2499.087     2199.536      814.991        1.541        0.276      159.013       23.826        0.022      334.265        4.121      867.824
01/17/2015  06:01:00     -135.536       10.617      -11.520       36.384       36.837       23.734     1323.774     1356.987      563.297        1.093        0.162      135.952       18.281        0.018      334.242        4.085      867.827
01/17/2015  06:02:00     -143.810       -1.153       -9.148       47.201       36.729       30.576     2227.948     1349.043      934.920        1.264        0.226      143.815       30.293        0.044      334.259        4.114      867.831
01/17/2015  06:03:00     -187.945       35.072      -19.970       54.447       48.470       31.915     2964.476     2349.361     1018.592        2.164        0.317      191.189       28.352        0.022      334.408        4.357      867.839
01/17/2015  06:04:00     -114.970      -12.306       -8.040       53.388       45.719       25.840     2850.321     2090.194      667.686        0.952        0.280      115.626       28.176        0.059      334.394        4.338      867.853
01/17/2015  06:05:00      -79.618        8.159      -18.614       23.659       24.553       21.405      559.756      602.863      458.157        0.419        0.081       80.035       14.875        0.035      334.491        4.499      867.886
01/17/2015  06:06:00      -55.850       19.864       -9.564       45.031       35.702       21.603     2027.829     1274.668      466.708        0.369        0.188       59.277       24.866        0.176      334.708        4.859      867.909
01/17/2015  06:07:00      -69.626       22.613       -1.763       40.198       40.514       26.235     1615.859     1641.355      688.276        0.465        0.197       73.206       21.502        0.086      334.639        4.744      867.920
01/17/2015  06:08:00     -113.548       10.152       -9.441       37.176       32.615       21.656     1382.086     1063.749      468.980        0.800        0.146      114.001       19.197        0.028      334.670        4.796      867.937
01/17/2015  06:09:00      -88.152       10.269       -8.574       28.857       34.113       18.081      832.749     1163.725      326.925        0.514        0.116       88.748       12.062        0.018      334.639        4.744      867.942
01/17/2015  06:10:00      -89.858       -0.811      -12.679       35.350       40.661       21.267     1249.604     1653.344      452.301        0.580        0.168       89.862       18.308        0.042      334.612        4.698      867.934
01/17/2015  06:11:00     -109.571       20.928      -20.530       35.156       31.120       22.165     1235.917      968.454      491.307        0.778        0.135      111.551       17.003        0.023      334.786        4.989      867.908
01/17/2015  06:12:00     -113.514      -17.981       -6.869       37.108       30.529       19.154     1376.989      932.009      366.871        0.797        0.134      114.929       19.167        0.028      334.566        4.621      867.906
01/17/2015  06:13:00     -142.918       -2.842      -21.837       41.482       29.476       19.970     1720.789      868.859      398.817        1.195        0.149      142.946       14.529        0.010      334.437        4.409      867.904
01/17/2015  06:14:00      -71.648        6.652       -7.644       41.891       20.960       18.615     1754.821      439.306      346.527        0.389        0.127       71.957       20.338        0.080      334.473        4.468      867.906
01/17/2015  06:15:00      -75.857       35.219      -12.682       28.886       24.966       15.096      834.411      623.287      227.879        0.442        0.084       83.634       14.557        0.030      334.640        4.746      867.916
01/17/2015  06:16:00      -61.519        7.744       -6.049       23.407       22.439       17.259      547.881      503.522      297.879        0.262        0.067       62.005       13.992        0.051      334.737        4.907      867.909
01/17/2015  06:17:00      -84.720       44.118      -17.476       22.342       28.234       13.084      499.154      797.148      171.189        0.545        0.073       95.519       12.641        0.018      334.671        4.798      867.883
01/17/2015  06:18:00      -89.160        9.167      -17.978       31.288       29.982       13.828      978.940      898.915      191.205        0.521        0.103       89.630        8.029        0.008      334.675        4.803      867.874
01/17/2015  06:19:00     -139.634       13.212      -23.381       52.979       39.641       22.190     2806.796     1571.394      492.407        1.254        0.244      140.258       11.582        0.007      334.547        4.590      867.894
01/17/2015  06:20:00     -144.358        8.622      -21.043       51.415       41.559       26.006     2643.528     1727.165      676.306        1.320        0.252      144.615       10.977        0.006      334.469        4.463      867.930
01/17/2015  06:21:00     -113.199      -36.502       -2.721       38.073       41.923       27.525     1449.529     1757.513      757.642        0.906        0.198      118.938       17.132        0.021      334.454        4.438      867.964
01/17/2015  06:22:00     -111.179      -10.990      -17.552       39.621       35.133       30.508     1569.836     1234.316      930.732        0.826        0.187      111.721       13.147        0.014      334.405        4.356      867.999
01/17/2015  06:23:00      -94.821       13.847      -13.499       31.928       43.192       24.885     1019.402     1865.530      619.269        0.643        0.175       95.827       19.689        0.042      334.403        4.354      868.031
01/17/2015  06:24:00      -76.505        0.316      -12.738       28.955       33.879       18.724      838.401     1147.795      350.575        0.418        0.117       76.506       14.900        0.038      334.400        4.347      868.042
01/17/2015  06:25:00      -79.183      -10.856       -8.783       24.302       24.732       17.697      590.596      611.682      313.181        0.399        0.076       79.923       10.377        0.017      334.568        4.627      868.026
01/17/2015  06:26:00      -82.026       -7.091      -14.564       25.830       30.096       16.770      667.197      905.764      281.244        0.442        0.093       82.332       16.083        0.038      334.638        4.743      868.000
01/17/2015  06:27:00      -98.571       -0.457      -13.882       23.917       32.771       18.432      572.009     1073.963      339.746        0.595        0.099       98.572       16.240        0.027      334.739        4.910      867.987
01/17/2015  06:28:00      -82.761       -7.275       -9.955       31.118       32.437       15.055      968.310     1052.157      226.658        0.462        0.112       83.080       13.554        0.027      334.746        4.922      867.988
01/17/2015  06:29:00     -139.327        4.339      -15.428       41.883       27.136       16.774     1754.145      736.373      281.358        1.122        0.139      139.394       16.328        0.014      334.670        4.794      867.990
01/17/2015  06:30:00     -138.666        0.575      -19.752       23.693       23.662       17.799      561.339      559.883      316.816        1.053        0.072      138.667       13.265        0.009      334.580        4.646      868.007
01/17/2015  06:31:00      -98.721       22.360      -10.953       43.953       24.710       22.667     1931.896      610.592      513.789        0.671        0.153      101.222       23.442        0.054      334.559        4.612      868.031
01/17/2015  06:32:00      -82.156       16.301       -8.258       28.740       22.767       17.209      825.966      518.314      296.153        0.436        0.082       83.758       13.794        0.027      334.560        4.613      868.048
01/17/2015  06:33:00      -85.569       19.453       -9.926       21.276       23.527       21.537      452.679      553.521      463.823        0.463        0.074       87.753       17.762        0.041      334.663        4.784      868.062
01/17/2015  06:34:00      -51.044        6.003       -5.394       19.601       16.439       12.048      384.216      270.228      145.147        0.173        0.040       51.395        7.880        0.024      334.688        4.825      868.057
01/17/2015  06:35:00      -47.350        1.093      -12.053        9.892       18.463       12.192       97.855      340.897      148.650        0.149        0.029       47.363        4.817        0.010      334.882        5.148      868.045
01/17/2015  06:36:00      -12.322      -32.312        3.413       16.465       11.566       11.411      271.098      133.769      130.202        0.087        0.027       34.582        6.870        0.039      334.845        5.086      868.037
01/17/2015  06:37:00      -25.809      -23.158       -4.331       15.616       12.036       12.541      243.858      144.856      157.268        0.088        0.027       34.675        9.189        0.070      334.815        5.037      868.052
01/17/2015  06:38:00      -53.627      -44.236       -4.900       30.363       17.389       10.260      921.884      302.364      105.261        0.309        0.066       69.517        5.756        0.007      334.750        4.929      868.086
01/17/2015  06:39:00      -81.303      -63.457       -4.157       25.029       23.789       16.423      626.462      565.940      269.724        0.606        0.073      103.136        8.377        0.007      334.676        4.805      868.128
01/17/2015  06:40:00      -47.442      -27.337        3.721       25.800       18.107       11.732      665.640      327.872      137.650        0.207        0.057       54.755       10.678        0.038      334.648        4.758      868.151
01/17/2015  06:41:00      -22.149      -30.606       -2.465       17.598        8.801        9.110      309.706       77.461       83.001        0.095        0.024       37.780        3.575        0.009      334.806        5.021      868.146
01/17/2015  06:42:00      -10.029      -30.239        0.492        6.730        7.641        9.301       45.294       58.385       86.506        0.060        0.010       31.858        4.956        0.024      334.879        5.143      868.137
01/17/2015  06:43:00      -46.239      -28.982        4.650       29.512       16.449        8.472      870.949      270.579       71.782        0.211        0.061       54.571       10.963        0.040      334.823        5.050      868.150
01/17/2015  06:44:00      -28.413      -28.358       12.232       41.213       22.111       20.057     1698.474      488.903      402.297        0.217        0.129       40.143       21.553        0.288      334.701        4.847      868.172
01/17/2015  06:45:00      -68.821      -68.440        8.124       64.062       46.531       30.202     4103.898     2165.167      912.143        0.833        0.359       97.059       31.755        0.107      334.545        4.587      868.181
01/17/2015  06:46:00      -89.047      -69.095       -3.452       32.104       32.139       17.784     1030.655     1032.901      316.257        0.755        0.119      112.710       13.602        0.015      334.616        4.705      868.174
01/17/2015  06:47:00      -80.233      -37.190        4.445       40.328       29.919       18.929     1626.356      895.145      358.325        0.536        0.144       88.433       20.327        0.053      334.572        4.632      868.162
01/17/2015  06:48:00      -50.758      -39.084       -1.568       31.950       27.442       18.874     1020.803      753.053      356.237        0.312        0.107       64.062       13.819        0.047      334.590        4.662      868.141
01/17/2015  06:49:00      -32.899      -36.292        6.809       29.050       20.210       14.126      843.890      408.444      199.554        0.195        0.073       48.985        7.523        0.024      334.740        4.912      868.130
01/17/2015  06:50:00      -68.444      -43.158        2.322       49.641       25.603       16.106     2464.181      655.513      259.411        0.497        0.169       80.915       16.438        0.041      334.761        4.947      868.127
01/17/2015  06:51:00      -93.893      -56.023        0.223       53.227       35.484       27.073     2833.122     1259.129      732.935        0.839        0.241      109.337       20.010        0.033      334.690        4.830      868.144
01/17/2015  06:52:00     -122.624      -74.316        0.366       57.015       43.534       28.423     3250.739     1895.233      807.875        1.326        0.298      143.386       22.486        0.025      334.707        4.856      868.160
01/17/2015  06:53:00     -141.750     -101.861       -7.335       62.012       43.957       33.863     3845.440     1932.239     1146.669        1.872        0.346      174.553       34.242        0.038      334.728        4.889      868.171
01/17/2015  06:54:00     -121.436      -93.291        0.064       49.367       41.964       26.396     2437.119     1760.997      696.766        1.417        0.245      153.134       22.829        0.022      334.739        4.910      868.186
01/17/2015  06:55:00      -96.712      -52.956       -2.118       35.922       28.627       21.602     1290.354      819.530      466.629        0.737        0.129      110.261       20.184        0.034      334.792        4.999      868.192
01/17/2015  06:56:00      -77.911      -45.791        0.707       36.932       27.149       20.527     1363.970      737.044      421.349        0.534        0.126       90.371       11.473        0.016      334.840        5.078      868.177
01/17/2015  06:57:00      -35.621      -26.854       11.873       33.956       26.270       16.189     1153.028      690.123      262.088        0.212        0.105       44.610       18.164        0.166      334.835        5.069      868.164
01/17/2015  06:58:00      -76.692      -39.933        4.965       37.442       28.807       20.089     1401.868      829.840      403.564        0.507        0.132       86.465       16.679        0.037      334.887        5.157      868.169
01/17/2015  06:59:00      -90.107      -48.070       -3.361       48.478       29.899       16.244     2350.164      893.958      263.866        0.697        0.175      102.128       12.682        0.015      334.827        5.056      868.185
01/17/2015  07:00:00      -91.804      -46.667       -0.867       39.599       25.754       18.500     1568.069      663.272      342.232        0.659        0.129      102.984       18.582        0.033      334.685        4.820      868.201
01/17/2015  07:01:00      -74.772      -34.848        3.249       30.646       25.910       17.193      939.149      671.326      295.588        0.436        0.095       82.494       17.620        0.046      334.651        4.763      868.212
01/17/2015  07:02:00      -37.636      -26.195        4.117       32.034       17.622       16.598     1026.158      310.526      275.486        0.187        0.081       45.855       14.401        0.099      334.645        4.755      868.222
01/17/2015  07:03:00      -66.691      -86.601        4.133       44.292       45.969       21.812     1961.742     2113.185      475.776        0.826        0.228      109.304       25.719        0.055      334.734        4.901      868.241
01/17/2015  07:04:00     -157.913     -101.184        0.219       65.963       48.682       29.212     4351.117     2369.935      853.315        2.137        0.379      187.549       24.868        0.018      334.592        4.663      868.270
01/17/2015  07:05:00     -134.033      -92.422       -0.713       62.734       44.556       29.411     3935.602     1985.261      865.004        1.665        0.339      162.809       20.710        0.016      334.552        4.597      868.282
01/17/2015  07:06:00      -70.770      -57.235       -0.888       44.207       33.658       28.880     1954.289     1132.845      834.052        0.610        0.196       91.018       22.578        0.062      334.562        4.615      868.293
01/17/2015  07:07:00      -20.772      -40.655        7.730       21.325       25.512       15.249      454.752      650.854      232.532        0.174        0.067       45.655       13.629        0.089      334.651        4.764      868.278
01/17/2015  07:08:00      -55.465      -46.302        0.421       66.588       39.503       26.926     4433.938     1560.471      725.004        0.597        0.336       72.251       32.420        0.201      334.671        4.798      868.267
01/17/2015  07:09:00     -107.397     -107.927        1.882       35.869       30.754       25.761     1286.570      945.834      663.651        1.304        0.145      152.258       15.063        0.010      334.565        4.621      868.274
01/17/2015  07:10:00      -79.911      -55.215        1.719       37.311       34.036       16.288     1392.088     1158.427      265.309        0.613        0.141       97.131       12.621        0.017      334.536        4.573      868.273
01/17/2015  07:11:00      -12.652       -6.244        5.044       14.975       12.610       12.774      224.260      159.008      163.186        0.039        0.027       14.109        9.549        0.458      334.530        4.561      868.275
01/17/2015  07:12:00      -32.212       -1.220       13.606       21.193       15.447       11.477      449.125      238.604      131.723        0.102        0.041       32.235        7.616        0.056      334.606        4.690      868.280
01/17/2015  07:13:00      -25.024      -18.895       -2.480       11.381       10.744        7.479      129.529      115.444       55.934        0.065        0.015       31.357        5.061        0.026      334.680        4.813      868.275
01/17/2015  07:14:00      -33.133      -12.385        0.514       21.491       18.424        9.302      461.879      339.460       86.521        0.107        0.044       35.372        9.132        0.067      334.681        4.815      868.276
01/17/2015  07:15:00       55.489       33.617        8.797       47.661       23.885       12.227     2271.584      570.514      149.507        0.364        0.150       64.878       13.167        0.041      334.592        4.667      868.303
01/17/2015  07:16:00      130.169       81.056       14.194       39.743       28.570       29.405     1579.481      816.250      864.667        1.349        0.163      153.342       18.841        0.015      334.324        4.222      868.324
01/17/2015  07:17:00       92.056       79.837       17.468       27.064       24.772       23.854      732.448      613.663      569.012        0.853        0.096      121.854        7.492        0.004      334.123        3.888      868.336
01/17/2015  07:18:00       50.361       34.889        6.626       14.201       15.582       15.350      201.677      242.789      235.626        0.224        0.034       61.266        7.232        0.014      334.076        3.809      868.357
01/17/2015  07:19:00       52.618       36.110        4.792       19.513       14.995       13.689      380.773      224.840      187.376        0.244        0.040       63.817        6.482        0.010      334.113        3.872      868.368
01/17/2015  07:20:00      116.726       76.196       13.270       24.563       20.758       16.278      603.322      430.876      264.960        1.045        0.065      139.394       10.654        0.006      334.165        3.959      868.376
01/17/2015  07:21:00       85.548       67.934       -2.481       35.090       32.045       22.384     1231.311     1026.893      501.041        0.735        0.138      109.240        9.844        0.008      334.101        3.853      868.396
01/17/2015  07:22:00       49.005       46.277        0.860       41.953       35.009       23.016     1760.019     1225.602      529.719        0.403        0.176       67.402       18.605        0.076      334.076        3.808      868.427
01/17/2015  07:23:00       32.972       32.816       10.284       24.283       21.417       20.726      589.675      458.690      429.547        0.187        0.074       46.519        7.002        0.023      334.091        3.834      868.472
01/17/2015  07:24:00       47.770       41.244       -0.268       19.335       18.502       14.083      373.849      342.334      198.332        0.245        0.046       63.111        9.775        0.024      334.131        3.901      868.502
01/17/2015  07:25:00       48.112       39.389        7.682       20.286       12.562       14.097      411.533      157.792      198.727        0.235        0.038       62.179        8.758        0.020      334.163        3.955      868.509
01/17/2015  07:26:00       74.426       43.666       -0.186       24.100       24.509       15.146      580.819      600.707      229.416        0.443        0.071       86.290       14.780        0.029      334.187        3.995      868.488
01/17/2015  07:27:00       57.375       46.855       11.968       25.029       20.693       22.054      626.462      428.194      486.374        0.359        0.077       74.076       12.284        0.027      334.201        4.018      868.474
01/17/2015  07:28:00       25.933       38.050       -2.888       26.938       19.918       21.172      725.668      396.733      448.265        0.185        0.079       46.047       15.247        0.110      334.268        4.129      868.489
01/17/2015  07:29:00       14.914       67.297      -10.173       17.546       31.612       14.717      307.849      999.340      216.582        0.319        0.076       68.930       13.906        0.041      334.341        4.249      868.523
01/17/2015  07:30:00       13.527       98.075      -12.252       29.516       30.386       14.632      871.178      923.290      214.089        0.598        0.100       99.004       16.034        0.026      334.435        4.406      868.570
01/17/2015  07:31:00       24.413       84.765       -8.765       28.568       34.532       24.668      816.118     1192.485      608.524        0.524        0.131       88.211       24.800        0.079      334.396        4.341      868.600
01/17/2015  07:32:00       41.341       59.583        5.867       41.278       37.024       29.243     1703.844     1370.753      855.131        0.461        0.196       72.520       19.104        0.069      334.405        4.355      868.621
01/17/2015  07:33:00       37.957       69.729       -4.293       31.257       45.009       35.238      976.970     2025.782     1241.689        0.528        0.212       79.391       32.315        0.166      334.382        4.320      868.629
01/17/2015  07:34:00       33.024       55.495       -5.531       31.526       39.363       26.053      993.895     1549.439      678.766        0.371        0.161       64.578       22.768        0.124      334.408        4.360      868.636
01/17/2015  07:35:00       19.755       84.795       -0.614       23.370       39.283       23.548      546.168     1543.152      554.486        0.511        0.132       87.066       24.211        0.077      334.450        4.432      868.647
01/17/2015  07:36:00       -6.859       93.554      -11.552       23.932       38.799       19.830      572.723     1505.386      393.215        0.570        0.124       93.805       20.108        0.046      334.423        4.385      868.658
01/17/2015  07:37:00       -6.005      118.123      -16.236       16.666       15.459       11.111      277.748      238.989      123.444        0.745        0.032      118.276        8.633        0.005      334.421        4.383      868.651
01/17/2015  07:38:00       -6.754      124.598      -19.022       17.970       14.968       10.932      322.936      224.054      119.505        0.830        0.033      124.781        5.363        0.002      334.430        4.399      868.637
01/17/2015  07:39:00      -22.585       96.372      -14.648       29.642       27.207       12.074      878.635      740.231      145.787        0.589        0.088       98.983        6.501        0.004      334.543        4.584      868.645
01/17/2015  07:40:00      -60.100        9.295      -12.283       14.585       17.904       12.760      212.716      320.554      162.816        0.227        0.035       60.814        6.780        0.012      334.559        4.611      868.670
01/17/2015  07:41:00      -56.887       -3.575      -13.222       11.943       20.918        9.590      142.639      437.561       91.974        0.205        0.034       56.999        3.596        0.004      334.542        4.583      868.694
01/17/2015  07:42:00      -49.516        9.037       -9.061       22.996       40.356       12.890      528.798     1628.584      166.163        0.247        0.116       50.334       21.088        0.176      334.611        4.697      868.681
01/17/2015  07:43:00      -73.187       53.086      -19.530       13.834       24.348       12.470      191.385      592.805      155.504        0.475        0.047       90.412       10.803        0.014      334.681        4.816      868.653
01/17/2015  07:44:00      -52.925       51.122      -13.420       33.639       29.427       12.658     1131.573      865.976      160.232        0.388        0.108       73.584        7.410        0.010      334.780        4.979      868.650
01/17/2015  07:45:00      -67.479        1.486      -11.493       21.580       16.829       14.328      465.702      283.201      205.281        0.282        0.048       67.495       11.492        0.029      334.786        4.989      868.666
01/17/2015  07:46:00      -62.742       13.731       -4.814       29.105       29.717       14.309      847.128      883.124      204.757        0.304        0.097       64.227       15.629        0.059      334.714        4.869      868.674
01/17/2015  07:47:00      -44.910       20.582       -9.661       17.094       17.921       18.518      292.196      321.164      342.930        0.174        0.048       49.402        4.396        0.008      334.817        5.040      868.660
01/17/2015  07:48:00      -20.713       34.010        0.287       26.199       22.109       13.612      686.372      488.812      185.286        0.147        0.068       39.821       12.967        0.106      334.954        5.269      868.625
01/17/2015  07:49:00      -14.891        5.012       -2.484       25.996       27.312       12.853      675.791      745.919      165.212        0.092        0.079       15.712       12.040        0.587      334.954        5.268      868.605
01/17/2015  07:50:00      -68.909      -26.426       -4.306       15.032       11.446        7.549      225.953      131.006       56.986        0.294        0.021       73.802        5.855        0.006      334.685        4.821      868.602
01/17/2015  07:51:00      -62.809      -30.166      -14.593       24.448       11.233        9.904      597.729      126.188       98.085        0.294        0.041       69.677        5.396        0.006      334.717        4.875      868.611
01/17/2015  07:52:00      -11.102      -15.533        3.450       16.361       11.430       14.878      267.669      130.642      221.357        0.050        0.031       19.093       13.094        0.470      334.757        4.941      868.611
01/17/2015  07:53:00      -26.848      -12.344        0.248       18.451       10.071        7.874      340.437      101.421       62.006        0.069        0.025       29.550        7.930        0.072      334.778        4.975      868.607
01/17/2015  07:54:00      -57.232      -17.012       -7.314       15.807       14.959       10.964      249.852      223.764      120.210        0.211        0.030       59.707        9.561        0.026      334.722        4.883      868.609
01/17/2015  07:55:00      -91.921      -17.470       -5.377       39.991       23.615       23.710     1599.314      557.679      562.143        0.575        0.136       93.567       27.079        0.084      334.670        4.796      868.623
01/17/2015  07:56:00      -64.953      -15.276        4.452       42.126       24.746       21.669     1774.563      612.375      469.559        0.366        0.143       66.725       23.614        0.125      334.602        4.683      868.650
01/17/2015  07:57:00      -46.144      -13.588       -1.940       25.509       12.535       11.337      650.731      157.120      128.535        0.163        0.047       48.103       12.211        0.064      334.678        4.810      868.665
01/17/2015  07:58:00      -41.089      -11.184        3.209       14.812       10.037        6.110      219.393      100.746       37.334        0.109        0.018       42.584        4.800        0.013      334.734        4.902      868.667
01/17/2015  07:59:00      -42.540       -1.750       -1.397        6.994        9.750        7.500       48.913       95.053       56.247        0.101        0.010       42.576        5.686        0.018      334.816        5.039      868.643
01/17/2015  08:00:00      -49.978       -9.851       -6.647        9.379       11.295        7.783       87.972      127.574       60.577        0.146        0.014       50.939        4.347        0.007      334.844        5.086      868.649
01/17/2015  08:01:00      -69.989      -18.847      -10.362       13.231       14.933        9.206      175.050      222.998       84.751        0.292        0.024       72.482        4.820        0.004      334.852        5.098      868.672
01/17/2015  08:02:00      -91.583      -43.874       -5.064       18.315       15.680       10.727      335.429      245.871      115.065        0.552        0.035      101.550        4.367        0.002      334.828        5.059      868.689
01/17/2015  08:03:00     -112.511      -23.907       -6.675       16.575       17.347       13.949      274.721      300.924      194.565        0.702        0.039      115.023        6.271        0.003      334.718        4.876      868.677
01/17/2015  08:04:00      -85.388      -27.459        0.181       27.323       15.557       12.290      746.571      242.024      151.036        0.459        0.057       89.694       12.090        0.018      334.801        5.015      868.666
01/17/2015  08:05:00      -17.378      -22.556       11.858       19.148       13.546       10.733      366.663      183.508      115.190        0.081        0.033       28.474       12.018        0.178      334.940        5.245      868.655
01/17/2015  08:06:00      -41.683      -17.921        4.871       19.147       10.283       13.138      366.595      105.744      172.599        0.136        0.032       45.372       12.885        0.081      334.981        5.312      868.641
01/17/2015  08:07:00      -96.986      -35.730       -8.792       20.274       14.290       14.530      411.038      204.203      211.124        0.579        0.041      103.358       13.166        0.016      334.892        5.165      868.648
01/17/2015  08:08:00      -93.059      -41.716       -3.525       27.824       22.606       13.376      774.183      511.013      178.927        0.594        0.073      101.981       11.392        0.012      334.862        5.116      868.635
01/17/2015  08:09:00      -90.473      -37.214       -1.509       28.932       22.998       13.527      837.080      528.914      182.971        0.556        0.077       97.828       13.375        0.019      334.829        5.060      868.628
01/17/2015  08:10:00      -64.452      -33.413        1.709       14.693       22.507       11.755      215.871      506.549      138.184        0.307        0.043       72.598       10.001        0.019      334.861        5.113      868.617
01/17/2015  08:11:00      -52.735      -21.751       -4.560       19.418       13.963        9.384      377.063      194.970       88.057        0.197        0.033       57.045        5.633        0.010      334.887        5.157      868.605
01/17/2015  08:12:00      -65.266      -43.183       -2.555       30.374       13.805       12.055      922.557      190.591      145.330        0.369        0.063       78.259        8.716        0.012      334.894        5.167      868.609
01/17/2015  08:13:00      -89.702      -44.119       -0.939       25.147       16.832       15.803      632.363      283.312      249.728        0.558        0.058       99.964       13.738        0.019      334.895        5.170      868.600
01/17/2015  08:14:00      -79.051      -32.638        3.353       26.922       32.244       19.141      724.780     1039.665      366.392        0.473        0.107       85.524       13.441        0.025      334.949        5.258      868.598
01/17/2015  08:15:00     -106.765      -10.341       -8.226       19.404       13.929       14.669      376.522      194.008      215.194        0.618        0.039      107.265       10.329        0.009      334.867        5.123      868.589
01/17/2015  08:16:00      -70.952       -6.159       -6.780       21.370       16.115       15.288      456.687      259.688      233.725        0.303        0.048       71.218       11.271        0.025      334.935        5.237      868.581
01/17/2015  08:17:00      -76.166      -22.533      -10.878       12.344       11.758        8.487      152.376      138.242       72.032        0.339        0.018       79.430        2.677        0.001      334.964        5.285      868.586
01/17/2015  08:18:00      -47.954      -28.476        2.446       18.291       11.025       11.223      334.544      121.561      125.956        0.185        0.029       55.771        8.112        0.021      335.021        5.379      868.597
01/17/2015  08:19:00      -51.892      -39.865        2.680       28.369       22.614       14.535      804.822      511.409      211.275        0.291        0.076       65.437       15.503        0.056      335.063        5.450      868.623
01/17/2015  08:20:00      -83.342      -36.706       -1.856       24.234       19.510       11.506      587.310      380.648      132.391        0.470        0.055       91.067        9.144        0.010      335.047        5.421      868.644
01/17/2015  08:21:00      -77.022      -35.519       -6.985       20.232       15.240       14.012      409.315      232.266      196.347        0.404        0.042       84.818       10.605        0.016      335.038        5.406      868.663
01/17/2015  08:22:00      -28.839      -34.811       11.351       19.724       20.241       12.993      389.018      409.704      168.830        0.157        0.048       45.205        8.699        0.037      335.085        5.487      868.673
01/17/2015  08:23:00      -14.421       -2.802        4.827        8.963        6.770        6.729       80.330       45.839       45.273        0.021        0.009       14.691        6.013        0.168      335.145        5.585      868.694
01/17/2015  08:24:00       -5.407        0.992        1.035        9.885        4.429        7.013       97.705       19.614       49.184        0.010        0.008        5.497        5.568        1.026      335.164        5.616      868.711
01/17/2015  08:25:00       48.754       46.561        6.688       40.644       27.360       16.280     1651.924      748.560      265.040        0.363        0.133       67.416       22.787        0.114      335.197        5.672      868.727
01/17/2015  08:26:00       69.993       58.823       -2.130       20.664       17.876       19.691      426.982      319.547      387.750        0.475        0.057       91.429        7.550        0.007      335.162        5.613      868.736
01/17/2015  08:27:00       61.133       53.010      -10.546       25.752       24.372       15.705      663.188      594.010      246.657        0.408        0.075       80.916        7.836        0.009      335.152        5.596      868.761
01/17/2015  08:28:00       40.289       28.325        5.723       22.631       16.257       19.627      512.146      264.284      385.224        0.181        0.058       49.249       14.867        0.091      335.127        5.555      868.764
01/17/2015  08:29:00       23.145       57.388       -9.462       17.140       22.953       15.178      293.777      526.827      230.363        0.248        0.053       61.880       14.258        0.053      335.104        5.518      868.762
01/17/2015  08:30:00       13.906       69.768       -9.102       19.062       18.299       11.838      363.361      334.867      140.132        0.299        0.042       71.140        9.443        0.018      335.043        5.415      868.746
01/17/2015  08:31:00       -0.339       59.557       -4.256       10.813       22.046       10.957      116.923      486.026      120.064        0.214        0.036       59.558       11.888        0.040      335.073        5.466      868.733
01/17/2015  08:32:00      -12.445       55.723        0.759       15.072       25.119       14.662      227.165      630.941      214.981        0.217        0.054       57.096       14.530        0.065      335.111        5.527      868.745
01/17/2015  08:33:00       -9.559       85.243      -13.685        8.847        8.948        5.934       78.274       80.075       35.214        0.387        0.010       85.777        3.735        0.002      334.960        5.275      868.734
01/17/2015  08:34:00       -5.127       85.402      -10.002        8.525       13.161        5.584       72.670      173.217       31.180        0.385        0.014       85.556        6.145        0.005      334.985        5.318      868.731
01/17/2015  08:35:00        5.106       89.763      -12.579        8.722       14.328        8.162       76.081      205.288       66.618        0.429        0.017       89.908        5.043        0.003      334.996        5.338      868.719
01/17/2015  08:36:00       -4.754       69.956       -7.614        7.593       15.060        9.135       57.650      226.799       83.448        0.267        0.018       70.117        6.296        0.008      335.114        5.533      868.710
01/17/2015  08:37:00      -15.805       67.740      -10.217        7.417       11.995        7.387       55.017      143.869       54.562        0.260        0.013       69.560        2.233        0.001      335.181        5.643      868.726
01/17/2015  08:38:00      -11.968       26.406       -7.106       16.471       21.226        6.716      271.295      450.559       45.108        0.083        0.038       28.992        7.360        0.064      335.444        6.080      868.735
01/17/2015  08:39:00      -27.751        8.313       -5.610       17.336       10.153        9.621      300.531      103.077       92.559        0.068        0.025       28.970        9.503        0.108      335.406        6.016      868.759
01/17/2015  08:40:00      -44.750       21.513       -5.601       20.131       16.788       11.916      405.246      281.853      142.001        0.166        0.041       49.653       11.402        0.053      335.437        6.069      868.773
01/17/2015  08:41:00      -43.786       24.406       -1.324       13.811       18.989       11.081      190.741      360.593      122.789        0.159        0.034       50.129        7.826        0.024      335.494        6.164      868.799
01/17/2015  08:42:00      -45.478       27.031       -7.577       10.199       15.902        9.796      104.020      252.864       95.962        0.165        0.023       52.905        5.118        0.009      335.491        6.158      868.810
01/17/2015  08:43:00       -1.011       32.435        3.229       24.226       21.399       18.485      586.892      457.933      341.684        0.122        0.069       32.451       19.007        0.343      335.698        6.505      868.827
01/17/2015  08:44:00       18.306       23.283        7.590       11.376       13.263       11.868      129.413      175.898      140.839        0.069        0.022       29.617        8.343        0.079      335.697        6.503      868.825
01/17/2015  08:45:00       38.002       38.689       11.986       17.491       19.288       11.823      305.934      372.026      139.782        0.195        0.041       54.231        7.980        0.022      335.597        6.336      868.817
01/17/2015  08:46:00       15.088       36.384       42.583       22.564       23.281       15.358      509.117      542.008      235.854        0.233        0.064       39.388       13.402        0.116      335.783        6.647      868.803
01/17/2015  08:47:00      114.131       67.959        2.620       24.429       19.215       22.039      596.785      369.205      485.738        0.955        0.073      132.831       18.546        0.019      335.455        6.101      868.778
01/17/2015  08:48:00       93.842       60.328       19.114       23.360       21.821       22.922      545.689      476.141      525.400        0.718        0.077      111.560       15.085        0.018      335.464        6.115      868.769
01/17/2015  08:49:00       36.150      -15.829       19.971       26.711       39.300       30.767      713.493     1544.495      946.617        0.258        0.160       39.464       25.989        0.434      335.574        6.300      868.770
01/17/2015  08:50:00       24.267      -51.734        4.430       22.532       39.818       13.037      507.675     1585.437      169.973        0.277        0.113       57.142       17.365        0.092      335.616        6.368      868.786
01/17/2015  08:51:00       11.826       20.682       29.057       22.475       19.315       14.158      505.107      373.052      200.440        0.125        0.054       23.825        9.186        0.149      335.923        6.880      868.793
01/17/2015  08:52:00       45.465        7.654       15.559       19.446       17.981       18.215      378.155      323.328      331.794        0.170        0.052       46.105       11.210        0.059      335.759        6.608      868.773
01/17/2015  08:53:00       66.407       49.124       -5.698       22.534       30.733       22.406      507.780      944.515      502.050        0.440        0.098       82.602       17.441        0.045      335.644        6.415      868.733
01/17/2015  08:54:00       49.715       63.652       -3.955       36.019       32.141       22.586     1297.367     1033.069      510.122        0.469        0.142       80.766       11.714        0.021      335.708        6.522      868.700
01/17/2015  08:55:00       27.079       50.296       44.806       41.387       33.808       37.980     1712.875     1142.955     1442.488        0.478        0.215       57.122       19.946        0.122      335.857        6.770      868.656
01/17/2015  08:56:00       69.251       75.190       59.543       34.711       22.670       33.144     1204.869      513.947     1098.536        0.841        0.141      102.221       14.619        0.020      335.566        6.285      868.640
01/17/2015  08:57:00       12.412       40.529       55.956       18.532       28.401       13.299      343.453      806.600      176.857        0.313        0.066       42.387       16.267        0.147      335.761        6.611      868.648
01/17/2015  08:58:00       29.928       17.828       27.644       26.873       21.394       23.103      722.133      457.707      533.737        0.185        0.086       34.835       16.973        0.237      335.877        6.803      868.676
01/17/2015  08:59:00       23.592        6.372       28.531       23.593       23.591       16.175      556.652      556.544      261.633        0.139        0.069       24.437       15.640        0.410      335.990        6.991      868.706
01/17/2015  09:00:00       15.970       12.668       33.492       25.333       29.409       19.975      641.783      864.870      399.000        0.172        0.095       20.385       16.531        0.658      336.062        7.111      868.748
01/17/2015  09:01:00       -8.211      -30.241        7.708       17.626       34.703       17.414      310.691     1204.290      303.254        0.143        0.091       31.336       15.879        0.257      336.035        7.067      868.784
01/17/2015  09:02:00      -32.002       23.563       14.541       15.424        9.509       16.035      237.905       90.428      257.124        0.119        0.029       39.741       10.413        0.069      335.948        6.921      868.804
01/17/2015  09:03:00      -41.002        5.222        2.883       18.535       10.531       10.323      343.551      110.901      106.568        0.114        0.028       41.333       11.144        0.073      336.000        7.008      868.812
01/17/2015  09:04:00      -64.537      -17.126      -13.207       12.610       17.820        8.376      159.019      317.552       70.151        0.259        0.027       66.771        5.178        0.006      335.922        6.879      868.810
01/17/2015  09:05:00      -37.286      -31.405       -2.962       21.780       10.819       10.557      474.382      117.043      111.446        0.154        0.035       48.749        7.535        0.024      335.990        6.991      868.807
01/17/2015  09:06:00      -18.928      -12.950        4.702       17.203       14.808        9.970      295.932      219.272       99.411        0.058        0.031       22.935       11.001        0.230      336.408        7.689      868.806
01/17/2015  09:07:00      -30.144      -10.854       -2.132       13.094       10.012        7.805      171.459      100.238       60.922        0.068        0.017       32.038        2.386        0.006      336.131        7.227      868.813
01/17/2015  09:08:00      -28.818       -4.248        6.749       10.424       10.942        9.052      108.660      119.733       81.947        0.060        0.016       29.130        5.839        0.040      336.236        7.402      868.825
01/17/2015  09:09:00      -35.006       -5.087        8.105       23.389       26.637       17.100      547.052      709.525      292.406        0.143        0.077       35.373       21.202        0.359      336.275        7.466      868.838
01/17/2015  09:10:00      -30.133       -3.036       -3.814       17.408       17.488       13.032      303.027      305.826      169.821        0.086        0.039       30.286       10.462        0.119      336.245        7.417      868.842
01/17/2015  09:11:00      -63.195       -9.481       -6.023       34.928       15.736       10.998     1219.937      247.635      120.952        0.285        0.079       63.903       13.413        0.044      336.144        7.249      868.845
01/17/2015  09:12:00      -34.032      -17.682       -5.343       21.974       10.348        7.178      482.849      107.088       51.526        0.107        0.032       38.351        3.994        0.011      336.108        7.187      868.845
01/17/2015  09:13:00        4.694       -0.131        1.172        8.579       14.817       14.682       73.605      219.531      215.571        0.027        0.025        4.696        8.755        3.475      336.466        7.787      868.845
01/17/2015  09:14:00      -16.440        3.981        4.296       12.314       12.536       11.875      151.640      157.145      141.014        0.038        0.022       16.915        8.700        0.265      336.338        7.574      868.842
01/17/2015  09:15:00      -28.075        2.502        1.740        9.966        8.548        5.148       99.329       73.060       26.499        0.050        0.010       28.186        4.636        0.027      336.226        7.385      868.850
01/17/2015  09:16:00      -19.122       11.087        6.559       13.043       11.922        8.346      170.114      142.144       69.659        0.046        0.019       22.104        8.228        0.139      336.452        7.765      868.862
01/17/2015  09:17:00      -12.990       17.758       15.853        7.632        8.382       12.066       58.254       70.251      145.583        0.050        0.014       22.002        6.294        0.082      336.529        7.892      868.874
01/17/2015  09:18:00      -11.512       10.639        2.215       14.317       11.695        9.923      204.990      136.784       98.459        0.035        0.022       15.675        5.183        0.109      336.386        7.652      868.880
01/17/2015  09:19:00       22.577       25.778       20.277       22.490       21.334       16.783      505.822      455.158      281.662        0.141        0.062       34.267       12.742        0.138      336.486        7.820      868.885
01/17/2015  09:20:00       32.585       42.651       50.124       23.105       18.245       14.258      533.852      332.863      203.281        0.323        0.053       53.674       12.985        0.059      336.386        7.651      868.889
01/17/2015  09:21:00        2.584       35.005       42.008       14.049       21.208       13.903      197.362      449.791      193.280        0.192        0.042       35.100        9.792        0.078      336.543        7.917      868.893
01/17/2015  09:22:00      -14.810       33.855       51.454       15.089       20.672       20.053      227.669      427.324      402.133        0.253        0.053       36.953        9.668        0.068      336.541        7.913      868.900
01/17/2015  09:23:00        9.424       11.772       30.034       20.480       21.746       20.930      419.435      472.904      438.068        0.123        0.067       15.079       12.003        0.634      336.565        7.952      868.924
01/17/2015  09:24:00       58.783       45.146       10.182       18.627       15.699       18.906      346.949      246.461      357.454        0.327        0.048       74.119       11.389        0.024      336.212        7.362      868.952
01/17/2015  09:25:00       14.869        0.985       32.887       22.253       38.578       20.962      495.205     1488.295      439.385        0.186        0.121       14.902       21.417        2.065      336.467        7.787      868.975
01/17/2015  09:26:00       11.482       30.389       51.829       27.849       24.398       17.343      775.548      595.286      300.790        0.271        0.084       32.485       16.479        0.257      336.503        7.848      868.998
01/17/2015  09:27:00       17.442       65.214       69.208       24.484       29.682       14.144      599.485      881.049      200.060        0.551        0.084       67.506       15.016        0.049      336.413        7.697      869.025
01/17/2015  09:28:00       21.774       74.497       68.521       27.325       22.796       17.309      746.637      519.650      299.596        0.614        0.078       77.614       13.673        0.031      336.380        7.642      869.046
01/17/2015  09:29:00       22.197       51.208       48.202       30.281       40.642       20.146      916.944     1651.763      405.856        0.421        0.149       55.812       18.916        0.115      336.433        7.732      869.062
01/17/2015  09:30:00       -8.046       24.173       56.945       12.566       33.968       25.978      157.909     1153.859      674.850        0.294        0.099       25.477       24.194        0.902      336.554        7.934      869.095
01/17/2015  09:31:00       48.917      -25.806       11.387       40.817       50.620       31.955     1665.990     2562.368     1021.145        0.422        0.262       55.306       39.438        0.508      336.368        7.622      869.124
01/17/2015  09:32:00       29.985       11.616       26.761       34.569       33.847       27.478     1194.993     1145.598      755.014        0.242        0.155       32.156       30.468        0.898      336.455        7.768      869.164
01/17/2015  09:33:00       -3.678       38.775       56.260       13.705       26.519       13.682      187.817      703.238      187.208        0.288        0.054       38.949       15.700        0.162      336.515        7.868      869.184
01/17/2015  09:34:00       33.467        7.132       43.736       32.203       28.117       18.441     1037.008      790.567      340.088        0.263        0.108       34.219       16.907        0.244      336.547        7.923      869.200
01/17/2015  09:35:00       23.732       48.286       61.186       25.041       29.738       17.216      627.067      884.370      296.404        0.422        0.090       53.803       17.746        0.109      336.468        7.789      869.187
01/17/2015  09:36:00       40.075      -27.110       15.210       45.002       55.335       34.152     2025.169     3061.939     1166.330        0.441        0.313       48.384       40.327        0.695      336.549        7.926      869.179
01/17/2015  09:37:00       24.245      -34.130       27.532       37.333       36.554       36.082     1393.777     1336.212     1301.919        0.327        0.202       41.865       20.504        0.240      336.667        8.122      869.164
01/17/2015  09:38:00      -17.778      -39.894       20.939       28.927       28.682       22.028      836.746      822.672      485.247        0.224        0.107       43.676       19.071        0.191      336.621        8.046      869.191
01/17/2015  09:39:00      -44.002      -46.610       -5.193       24.318       16.301       15.665      591.359      265.738      245.383        0.262        0.055       64.099        5.631        0.008      336.608        8.025      869.204
01/17/2015  09:40:00      -23.526      -62.997       -9.966       37.836       24.187       19.562     1431.534      585.009      382.657        0.351        0.120       67.246       14.315        0.045      336.558        7.941      869.224
01/17/2015  09:41:00      -64.258      -18.412       -5.195       17.374       17.506       16.151      301.845      306.449      260.840        0.268        0.043       66.844        8.294        0.015      336.489        7.826      869.248
01/17/2015  09:42:00       -8.994      -25.346       -3.589       26.577       14.793       10.775      706.327      218.819      116.090        0.089        0.052       26.895        5.695        0.045      336.560        7.944      869.263
01/17/2015  09:43:00      -30.534      -16.932        0.590       23.000       20.840       11.246      528.989      434.292      126.480        0.115        0.054       34.915       11.469        0.108      336.626        8.054      869.280
01/17/2015  09:44:00      -45.521       -6.563       -3.369       20.551       19.599       15.622      422.329      384.109      244.051        0.159        0.053       45.992       12.721        0.077      336.628        8.057      869.293
01/17/2015  09:45:00      -21.527       29.190       -0.120       20.201       14.546       16.929      408.072      211.580      286.603        0.111        0.045       36.270        9.712        0.072      336.630        8.061      869.283
01/17/2015  09:46:00       -8.546       -2.728       11.694       20.356       16.924       14.352      414.376      286.432      205.987        0.056        0.045        8.971        7.653        0.728      336.736        8.238      869.284
01/17/2015  09:47:00        7.755      -29.823       22.140       28.754       46.160       27.280      826.773     2130.746      744.208        0.257        0.185       30.815       24.631        0.639      336.769        8.293      869.292
01/17/2015  09:48:00      -15.965      -40.900        6.817       18.979       23.892       19.611      360.219      570.816      384.603        0.164        0.066       43.905       15.971        0.132      336.730        8.230      869.305
01/17/2015  09:49:00      -16.179       12.848       11.148       17.590       13.722       14.059      309.399      188.291      197.651        0.062        0.035       20.660       10.631        0.265      336.793        8.335      869.321
01/17/2015  09:50:00       -8.389       13.602       11.944       17.711       14.565       15.620      313.669      212.149      243.973        0.058        0.038       15.981       10.611        0.441      336.874        8.468      869.342
01/17/2015  09:51:00      -26.183       10.046        8.856       22.393       13.999       15.249      501.453      195.975      232.524        0.090        0.046       28.044        8.927        0.101      336.796        8.338      869.357
01/17/2015  09:52:00       -6.996      -22.508        6.218       15.582       23.390       17.472      242.811      547.089      305.262        0.084        0.055       23.570       16.602        0.496      336.828        8.391      869.359
01/17/2015  09:53:00      -27.493       -8.362       -0.602       18.820        9.812       14.274      354.210       96.285      203.734        0.074        0.033       28.737       10.950        0.145      336.805        8.353      869.353
01/17/2015  09:54:00      -27.107      -16.616        2.733       21.765       18.270       18.304      473.726      333.785      335.049        0.108        0.057       31.795       16.702        0.276      336.777        8.308      869.347
01/17/2015  09:55:00      -49.763      -13.161       -2.656       11.006       20.992        8.895      121.136      440.652       79.119        0.165        0.032       51.474        7.440        0.021      336.632        8.066      869.336
01/17/2015  09:56:00      -11.374       11.699       22.442       18.741       17.110       11.642      351.223      292.737      135.526        0.077        0.039       16.317       11.427        0.490      336.849        8.427      869.319
01/17/2015  09:57:00       -7.788       30.951       47.692       16.787       21.484       18.903      281.805      461.576      357.310        0.220        0.055       31.916       15.295        0.230      336.904        8.518      869.315
01/17/2015  09:58:00       -7.547        7.012       40.312       10.426       17.117       10.702      108.707      292.976      114.537        0.112        0.026       10.302        8.725        0.717      337.038        8.742      869.325
01/17/2015  09:59:00        9.395       35.540       22.100       25.635       12.149       17.605      657.167      147.587      309.939        0.148        0.056       36.761       10.425        0.080      336.828        8.392      869.345
01/17/2015  10:00:00        4.633        9.578       -5.388       12.744       20.324       18.230      162.411      413.074      332.337        0.052        0.045       10.640       12.066        1.286      336.894        8.502      869.369
01/17/2015  10:01:00        0.686       -6.593        8.015       19.398       16.137       12.713      376.270      260.393      161.630        0.045        0.040        6.629        9.097        1.883      337.033        8.734      869.379
01/17/2015  10:02:00      -25.551      -36.232       -5.086       19.022       22.449       14.804      361.842      503.959      219.159        0.154        0.054       44.335       12.767        0.083      336.860        8.446      869.392
01/17/2015  10:03:00        3.619      -33.544      -20.817       33.861       19.980       12.632     1146.584      399.216      159.576        0.164        0.085       33.739        5.156        0.023      336.898        8.508      869.401
01/17/2015  10:04:00       -5.926        7.766        8.169       12.094       19.267       20.752      146.270      371.211      430.639        0.055        0.047        9.768       15.199        2.421      337.042        8.749      869.407
01/17/2015  10:05:00       -9.049        2.904        8.708       15.131       10.426       14.402      228.938      108.710      207.411        0.036        0.027        9.503        9.179        0.933      337.060        8.778      869.408
01/17/2015  10:06:00       -5.399       28.037        2.977       12.170       21.023       13.360      148.113      441.979      178.482        0.080        0.038       28.552        8.356        0.086      336.986        8.654      869.418
01/17/2015  10:07:00      -25.279       17.450        2.376       32.582       15.170       14.675     1061.568      230.119      215.363        0.123        0.075       30.717        6.519        0.045      336.915        8.537      869.428
01/17/2015  10:08:00      -54.447        8.220        1.738       18.543       18.075       14.697      343.857      326.715      215.999        0.196        0.044       55.064       14.971        0.074      336.860        8.444      869.418
01/17/2015  10:09:00      -59.885       -1.390       -4.316       20.817       19.348       14.626      433.346      374.348      213.915        0.231        0.051       59.901       13.432        0.050      336.757        8.273      869.392
01/17/2015  10:10:00      -17.375       16.612        8.114       19.667       19.103       15.938      386.778      364.930      254.019        0.082        0.050       24.038       12.749        0.281      336.938        8.575      869.365
01/17/2015  10:11:00      -14.220      -35.333        8.307       22.375       21.692       14.662      500.652      470.529      214.968        0.135        0.059       38.087       11.228        0.087      336.872        8.464      869.352
01/17/2015  10:12:00      -42.528        3.511        7.672       13.780       21.797       13.007      189.875      475.115      169.180        0.136        0.042       42.673       14.350        0.113      336.759        8.278      869.332
01/17/2015  10:13:00      -25.423        1.351       -1.222       14.925       25.245       12.815      222.770      637.300      164.237        0.084        0.051       25.459        9.788        0.148      336.863        8.449      869.307
01/17/2015  10:14:00      -42.853      -27.027       -3.355       22.765       16.718       16.715      518.231      279.502      279.388        0.183        0.054       50.664       15.656        0.095      336.886        8.489      869.301
01/17/2015  10:15:00      -42.811      -51.241       -4.757       17.884       18.591       12.760      319.854      345.609      162.827        0.265        0.041       66.772        9.530        0.020      336.764        8.286      869.305
01/17/2015  10:16:00      -47.085        1.508       -1.864       20.626       14.907       14.325      425.421      222.219      205.199        0.154        0.043       47.109       15.067        0.102      336.855        8.437      869.315
01/17/2015  10:17:00      -27.315       -3.736       10.431       22.879       17.761       13.624      523.443      315.462      185.605        0.095        0.051       27.570       14.880        0.291      337.117        8.875      869.332
01/17/2015  10:18:00      -29.870      -24.913        2.752       16.754        9.454       13.371      280.690       89.372      178.790        0.103        0.027       38.896        7.983        0.042      336.940        8.577      869.355
01/17/2015  10:19:00       -2.553       -0.539       16.573        6.849        7.492        6.931       46.914       56.127       48.044        0.022        0.008        2.610        3.157        1.464      337.511        9.534      869.364
01/17/2015  10:20:00      -17.932      -18.119        9.495       11.825       14.646       10.530      139.831      214.492      110.880        0.060        0.023       25.492        7.627        0.090      337.076        8.804      869.340
01/17/2015  10:21:00       -1.787      -16.567       18.153       13.039       28.484       21.310      170.025      811.333      454.126        0.102        0.072       16.663       22.553        1.832      337.251        9.097      869.306
01/17/2015  10:22:00       86.632       67.363       41.631       52.025       34.942       33.293     2706.637     1220.962     1108.431        0.941        0.252      109.740       19.339        0.031      336.945        8.586      869.252
01/17/2015  10:23:00       39.229       87.603       92.432       42.653       39.198       34.316     1819.272     1536.461     1177.618        1.114        0.227       95.986       24.487        0.065      336.922        8.548      869.190
01/17/2015  10:24:00       18.888      105.488      119.538       49.856       60.082       39.919     2485.599     3609.839     1593.498        1.673        0.384      107.166       32.398        0.091      337.024        8.718      869.106
01/17/2015  10:25:00      103.888      122.074      123.894       67.334       62.728       54.387     4533.814     3934.848     2957.989        2.623        0.571      160.296       46.779        0.085      336.884        8.483      869.038
01/17/2015  10:26:00       81.817      109.318      107.087       77.887       66.120       57.450     6066.358     4371.887     3300.513        2.192        0.687      136.545       46.857        0.118      336.903        8.516      868.984
01/17/2015  10:27:00       49.554      117.210      109.139       60.442       61.554       47.659     3653.208     3788.846     2271.375        1.891        0.486      127.254       41.643        0.107      336.917        8.539      868.973
01/17/2015  10:28:00      106.239       73.059       71.580       93.139       47.861       45.427     8674.828     2290.666     2063.651        1.739        0.651      128.935       48.057        0.139      336.853        8.432      869.009
01/17/2015  10:29:00       87.859       76.451       57.728       65.467       46.986       39.434     4285.951     2207.708     1555.029        1.247        0.402      116.465       24.212        0.043      336.828        8.392      869.046
01/17/2015  10:30:00       71.500       53.091       45.579       58.577       39.579       41.224     3431.309     1566.480     1699.385        0.835        0.335       89.056       37.762        0.180      336.973        8.633      869.059
01/17/2015  10:31:00      101.501       79.386       41.410       45.769       36.432       49.187     2094.846     1327.283     2419.320        1.208        0.292      128.858       40.676        0.100      336.847        8.423      869.081
01/17/2015  10:32:00       31.859       43.122       64.948       40.991       37.559       37.433     1680.225     1410.699     1401.263        0.579        0.225       53.614       29.351        0.300      337.002        8.681      869.085
01/17/2015  10:33:00       91.274       80.501       45.698       67.397       42.179       50.171     4542.324     1779.028     2517.165        1.287        0.442      121.702       48.463        0.159      336.869        8.460      869.085
01/17/2015  10:34:00       83.827       54.831       42.391       49.472       38.922       26.113     2447.451     1514.943      681.875        0.824        0.232      100.167       21.495        0.046      336.833        8.399      869.105
01/17/2015  10:35:00       94.416       60.762       46.848       33.143       38.406       38.026     1098.473     1475.011     1445.964        0.941        0.201      112.278       16.691        0.022      336.811        8.364      869.113
01/17/2015  10:36:00       66.260       85.714       73.075       40.152       34.826       28.856     1612.184     1212.824      832.687        1.037        0.183      108.338       21.117        0.038      336.772        8.297      869.120
01/17/2015  10:37:00       68.163       56.301       47.469       47.092       25.554       34.375     2217.698      652.999     1181.645        0.706        0.203       88.408       23.521        0.071      336.742        8.248      869.110
01/17/2015  10:38:00       25.235       31.234       54.722       39.421       37.759       30.774     1553.994     1425.735      947.060        0.427        0.196       40.154       30.643        0.582      336.870        8.462      869.095
01/17/2015  10:39:00       31.910       46.504       41.635       36.755       29.139       21.886     1350.965      849.086      478.985        0.380        0.134       56.399       14.247        0.064      336.945        8.587      869.084
01/17/2015  10:40:00       33.185       24.008       23.831       21.919       24.381       35.958      480.457      594.449     1293.010        0.231        0.118       40.959       21.308        0.271      336.881        8.480      869.084
01/17/2015  10:41:00       40.081       43.864       29.107       18.265       16.773       32.134      333.620      281.338     1032.576        0.301        0.082       59.419       15.107        0.065      336.872        8.466      869.090
01/17/2015  10:42:00       54.175       41.158       -3.809       15.804       16.752       17.305      249.780      280.615      299.453        0.274        0.041       68.037        8.422        0.015      336.754        8.270      869.098
01/17/2015  10:43:00       35.963       56.725       -7.238       22.042       29.142       22.429      485.837      849.236      503.071        0.320        0.092       67.164       17.879        0.071      336.853        8.434      869.104
01/17/2015  10:44:00       63.506       48.451       -2.855       33.853       24.380       23.678     1146.002      594.386      560.636        0.434        0.115       79.878       19.557        0.060      336.900        8.513      869.108
01/17/2015  10:45:00       63.184       52.491       -4.962       32.515       29.851       23.932     1057.200      891.104      572.739        0.465        0.126       82.143       14.756        0.032      336.851        8.430      869.115
01/17/2015  10:46:00       26.823       89.788      -10.910       25.099       37.145       21.018      629.959     1379.714      441.742        0.568        0.123       93.709       21.272        0.052      336.899        8.510      869.118
01/17/2015  10:47:00       44.596       45.033       -6.639       11.569       16.465       16.643      133.845      271.102      276.983        0.237        0.034       63.378       12.131        0.037      336.918        8.542      869.128
01/17/2015  10:48:00       25.184       50.954        3.770       20.767       29.326       24.517      431.255      860.001      601.064        0.257        0.095       56.838        9.922        0.030      336.937        8.574      869.129
01/17/2015  10:49:00       22.140       17.155       10.544       19.836       15.426       16.321      393.450      237.976      266.391        0.090        0.045       28.008        5.204        0.035      337.062        8.782      869.123
01/17/2015  10:50:00       -6.441       55.890       -2.069       16.876       25.419       18.717      284.791      646.151      350.325        0.223        0.064       56.260       18.625        0.110      336.965        8.619      869.105
01/17/2015  10:51:00        6.131       47.430        1.768       17.565       23.990       19.944      308.541      575.538      397.769        0.179        0.064       47.824       18.739        0.154      337.141        8.915      869.076
01/17/2015  10:52:00       28.439       37.005        1.419       17.308       21.516       18.591      299.564      462.921      345.612        0.164        0.055       46.671       10.134        0.047      336.980        8.646      869.056
01/17/2015  10:53:00        0.911       50.059        2.273       19.207       27.160       13.932      368.903      737.641      194.098        0.191        0.065       50.067       10.261        0.042      337.006        8.689      869.027
01/17/2015  10:54:00       -5.116       -5.283       -7.269       13.030       13.649        7.296      169.786      186.306       53.228        0.026        0.020        7.354        7.739        1.107      337.096        8.839      868.990
01/17/2015  10:55:00      -47.933       -5.572       -2.782       15.104       28.648        9.890      228.142      820.712       97.815        0.174        0.057       48.256        8.177        0.029      337.103        8.850      868.954
01/17/2015  10:56:00       -7.825       16.545        8.029       22.569       19.712       17.417      509.381      388.563      303.350        0.080        0.060       18.302       10.928        0.356      337.413        9.370      868.916
01/17/2015  10:57:00      -21.522       63.942        5.435       24.487       31.526       23.510      599.607      993.893      552.722        0.336        0.107       67.467       11.796        0.031      337.265        9.122      868.867
01/17/2015  10:58:00      -49.392       74.418       -3.918       18.155       32.263       19.460      329.609     1040.922      378.696        0.487        0.087       89.317       10.852        0.015      337.109        8.860      868.822
01/17/2015  10:59:00      -25.389       12.389       -6.135       12.631       16.828       11.252      159.547      283.191      126.599        0.070        0.028       28.251        9.049        0.103      337.135        8.904      868.798
01/17/2015  11:00:00       10.180       32.581        3.444       17.499       38.817       14.529      306.204     1506.726      211.078        0.160        0.101       34.134        9.694        0.081      337.332        9.234      868.776
01/17/2015  11:01:00       32.226       70.302      -14.295       19.595       21.322       13.717      383.982      454.639      188.159        0.361        0.051       77.336       10.328        0.018      337.096        8.838      868.769
01/17/2015  11:02:00       -9.998       23.821      -13.911       26.308       17.503       10.717      692.099      306.366      114.843        0.099        0.056       25.834       11.585        0.201      337.187        8.991      868.782
01/17/2015  11:03:00      -48.604       50.341       -8.799       25.742       31.776       15.483      662.659     1009.745      239.717        0.344        0.096       69.976       11.791        0.028      337.288        9.162      868.834
01/17/2015  11:04:00      -69.511       64.448      -20.307       18.605       23.033       14.884      346.145      530.501      221.539        0.525        0.055       94.791       10.324        0.012      337.163        8.952      868.888
01/17/2015  11:05:00     -109.668       66.676      -18.774       28.853       31.798       18.033      832.468     1011.144      325.191        0.950        0.108      128.346       16.396        0.016      337.232        9.066      868.925
01/17/2015  11:06:00      -94.913       26.524       -1.705       41.784       34.704       21.972     1745.879     1204.343      482.762        0.657        0.172       98.550       18.169        0.034      337.258        9.111      868.942
01/17/2015  11:07:00      -35.491       38.275       -1.143       35.965       37.424       19.549     1293.462     1400.539      382.154        0.290        0.154       52.198       17.538        0.113      337.258        9.110      868.913
01/17/2015  11:08:00      -23.861       52.007      -10.829       17.420       21.278       16.678      303.454      452.733      278.148        0.221        0.052       57.220        9.477        0.027      337.220        9.047      868.882
01/17/2015  11:09:00       -0.657       12.296        6.611       15.899       17.048       11.957      252.781      290.643      142.961        0.044        0.034       12.313       10.080        0.670      337.555        9.609      868.868
01/17/2015  11:10:00        3.734        4.187       16.003        9.663        8.848        8.711       93.374       78.291       75.882        0.027        0.012        5.610        6.506        1.345      337.702        9.854      868.847
01/17/2015  11:11:00       -8.845       34.905       -3.071       16.231       20.041       12.506      263.451      401.640      156.397        0.106        0.041       36.009        9.311        0.067      337.361        9.283      868.849
01/17/2015  11:12:00      -45.439        0.475      -11.344       16.715       20.149       13.155      279.395      405.973      173.042        0.153        0.043       45.441        8.152        0.032      337.445        9.424      868.864
01/17/2015  11:13:00      -49.073       21.888       -5.644       23.477       30.669       15.120      551.157      940.590      228.607        0.232        0.086       53.733       14.266        0.070      337.538        9.580      868.871
01/17/2015  11:14:00      -26.997       64.317       -2.516       23.181       31.532       16.255      537.380      994.242      264.238        0.333        0.090       69.754       12.003        0.030      337.577        9.643      868.863
01/17/2015  11:15:00       -9.016       57.586       11.844       26.261       22.832       27.868      689.635      521.306      776.650        0.276        0.099       58.287       19.277        0.109      337.656        9.778      868.851
01/17/2015  11:16:00      -16.059       60.881       -7.023       10.458       22.533       15.047      109.363      507.741      226.410        0.243        0.042       62.963       11.566        0.034      337.383        9.320      868.817
01/17/2015  11:17:00       13.879       41.863        6.330       39.545       22.309       24.112     1563.840      497.688      581.382        0.231        0.132       44.104       19.921        0.204      337.565        9.626      868.752
01/17/2015  11:18:00       39.117       36.735        3.960       29.153       16.998       16.433      849.902      288.922      270.047        0.215        0.070       53.662       11.551        0.046      337.524        9.555      868.690
01/17/2015  11:19:00       20.622       44.651        6.217       24.541       34.419       19.781      602.278     1184.640      391.297        0.232        0.109       49.184       13.952        0.080      337.712        9.871      868.652
01/17/2015  11:20:00       32.245       50.339        0.995       25.820       35.480       25.530      666.691     1258.803      651.780        0.308        0.129       59.781       18.517        0.096      337.536        9.577      868.637
01/17/2015  11:21:00      -19.069       60.430       -2.727       19.341       50.872       16.882      374.083     2587.968      284.992        0.363        0.162       63.367       22.601        0.127      337.657        9.779      868.677
01/17/2015  11:22:00      -44.848       83.438      -13.102       17.124       24.102       15.245      293.219      580.884      232.402        0.513        0.055       94.727        5.284        0.003      337.445        9.423      868.711
01/17/2015  11:23:00       -5.785       38.370       -3.537       22.328       29.259       19.087      498.542      856.092      364.318        0.162        0.086       38.803       17.790        0.210      337.685        9.826      868.693
01/17/2015  11:24:00       -3.077       42.636       -9.829       19.479       31.203       17.669      379.416      973.646      312.201        0.179        0.083       42.747       18.578        0.189      337.516        9.543      868.655
01/17/2015  11:25:00       -8.016       42.996        2.916       15.881       35.833       18.678      252.221     1284.004      348.850        0.190        0.094       43.737       21.730        0.247      337.751        9.936      868.603
01/17/2015  11:26:00        4.449       79.423       -9.551       22.976       21.115       18.598      527.886      445.842      345.892        0.387        0.066       79.547       13.533        0.029      337.669        9.800      868.559
01/17/2015  11:27:00       48.145       50.045        5.107       35.153       31.974       23.871     1235.731     1022.330      569.824        0.384        0.141       69.444       20.910        0.091      337.659        9.782      868.539
01/17/2015  11:28:00       17.763       87.440       -6.067       28.845       32.784       23.988      832.048     1074.805      575.417        0.524        0.124       89.226       22.029        0.061      337.704        9.857      868.517
01/17/2015  11:29:00      -11.536       -2.115       10.037       17.830       42.564       20.391      317.920     1811.692      415.785        0.139        0.127       11.728       23.754        4.102      337.920       10.219      868.512
01/17/2015  11:30:00      -24.081       18.657        8.549       24.466       14.950       21.628      598.604      223.504      467.791        0.115        0.064       30.462       15.620        0.263      338.003       10.358      868.516
01/17/2015  11:31:00        3.993       29.800       50.937       23.820       39.038       30.153      567.372     1523.953      909.229        0.325        0.150       30.066       23.798        0.627      338.215       10.715      868.502
01/17/2015  11:32:00       17.540       13.859       18.939       39.370       27.786       24.315     1549.988      772.047      591.222        0.189        0.146       22.354       21.385        0.915      338.051       10.442      868.484
01/17/2015  11:33:00        2.205       50.402       65.237       34.104       43.790       34.539     1163.079     1917.529     1192.969        0.554        0.214       50.450       24.151        0.229      338.287       10.837      868.468
01/17/2015  11:34:00       13.580       84.819       80.786       40.809       40.339       33.623     1665.384     1627.237     1130.513        0.916        0.221       85.899       26.712        0.097      338.002       10.359      868.442
01/17/2015  11:35:00        8.851       71.306       83.871       30.925       32.399       26.093      956.357     1049.723      680.855        0.744        0.134       71.853       20.977        0.085      338.002       10.359      868.397
01/17/2015  11:36:00       32.938       67.455       78.676       46.017       39.235       32.782     2117.532     1539.398     1074.683        0.828        0.237       75.067       29.249        0.152      337.897       10.180      868.357
01/17/2015  11:37:00       34.653       20.075       40.040       32.186       31.349       23.040     1035.939      982.765      530.856        0.288        0.127       40.048       22.741        0.322      337.974       10.311      868.341
01/17/2015  11:38:00       89.461       75.036       24.505       30.823       41.405       38.638      950.086     1714.410     1492.922        0.920        0.208      116.763       21.883        0.035      338.018       10.385      868.316
01/17/2015  11:39:00      106.817       81.117       11.810       42.645       34.129       38.427     1818.599     1164.806     1476.641        1.129        0.223      134.126        8.510        0.004      337.967       10.300      868.290
01/17/2015  11:40:00      178.695       98.327       32.749       56.227       50.701       39.749     3161.472     2570.608     1579.958        2.499        0.366      203.961       19.613        0.009      337.924       10.223      868.274
01/17/2015  11:41:00      142.507      109.650       20.917       57.042       40.232       38.799     3253.795     1618.594     1505.397        1.957        0.319      179.809       34.504        0.037      337.778        9.980      868.251
01/17/2015  11:42:00       22.763       37.437       69.897       39.300       49.558       36.173     1544.457     2455.951     1308.505        0.606        0.265       43.814       33.532        0.586      338.184       10.662      868.225
01/17/2015  11:43:00       75.608      106.753       87.462       74.847       56.776       59.223     5602.130     3223.570     3507.347        1.855        0.617      130.816       54.855        0.176      338.027       10.399      868.191
01/17/2015  11:44:00       69.728       47.416       39.810       59.596       34.353       30.522     3551.628     1180.151      931.599        0.718        0.283       84.322       28.847        0.117      337.991       10.338      868.171
01/17/2015  11:45:00       51.766       55.101       40.585       44.667       45.396       34.044     1995.134     2060.775     1158.995        0.629        0.261       75.603       14.824        0.038      338.179       10.655      868.151
01/17/2015  11:46:00       83.386       49.490       41.122       43.288       37.618       40.676     1873.837     1415.146     1654.568        0.802        0.247       96.967       25.774        0.071      337.970       10.304      868.136
01/17/2015  11:47:00       82.585       19.205       33.287       51.807       32.885       30.880     2683.973     1081.395      953.564        0.651        0.236       84.789       28.328        0.112      338.115       10.547      868.119
01/17/2015  11:48:00      118.819       59.936       25.357       63.695       43.493       41.277     4057.070     1891.669     1703.757        1.300        0.383      133.080       36.476        0.075      338.107       10.534      868.097
01/17/2015  11:49:00      143.925      105.878       31.332       66.953       35.364       47.685     4482.770     1250.625     2273.897        2.046        0.400      178.674       41.029        0.053      337.995       10.343      868.087
01/17/2015  11:50:00      133.630      103.198       22.791       45.955       34.936       39.139     2111.830     1220.516     1531.870        1.694        0.243      168.840       29.615        0.031      337.872       10.141      868.074
01/17/2015  11:51:00       61.047       94.996       -3.515       55.558       30.149       33.902     3086.745      908.981     1149.341        0.895        0.257      112.920       24.193        0.046      337.930       10.235      868.077
01/17/2015  11:52:00       95.573       64.502       34.461       29.384       22.451       41.819      863.443      504.036     1748.788        0.880        0.156      115.303        8.936        0.006      337.955       10.279      868.080
01/17/2015  11:53:00       46.924       -8.794       -0.864       29.713       44.752       16.147      882.889     2002.713      260.724        0.271        0.157       47.741       11.674        0.060      338.094       10.511      868.079
01/17/2015  11:54:00       37.408       -5.108       26.411       41.962       32.730       16.709     1760.795     1071.284      279.192        0.262        0.156       37.755       11.950        0.100      338.379       10.990      868.082
01/17/2015  11:55:00       42.008       34.768        7.913       40.385       40.820       25.871     1630.968     1666.280      669.326        0.350        0.198       54.530       20.491        0.141      338.284       10.831      868.074
01/17/2015  11:56:00       40.064       46.370        4.321       34.993       29.394       17.641     1224.533      864.016      311.205        0.309        0.120       61.281       12.283        0.040      338.094       10.513      868.059
01/17/2015  11:57:00       83.890       46.775       33.671       44.327       44.718       34.476     1964.857     1999.681     1188.571        0.776        0.258       96.049       20.796        0.047      338.201       10.691      868.050
01/17/2015  11:58:00       59.024       26.191       36.248       57.366       37.023       40.674     3290.802     1370.694     1654.381        0.590        0.316       64.574       18.254        0.080      338.313       10.880      868.055
01/17/2015  11:59:00       -3.089        5.308       47.809       54.521       76.640       37.859     2972.515     5873.644     1433.315        0.630        0.514        6.142       39.207       40.755      338.363       10.964      868.061
01/17/2015  12:00:00       39.486       -1.198       49.736       35.274       48.916       26.605     1244.271     2392.736      707.837        0.419        0.217       39.504       28.433        0.518      338.460       11.127      868.074
01/17/2015  12:01:00       30.226       44.536       37.738       46.561       51.794       29.255     2167.914     2682.638      855.872        0.501        0.285       53.824       16.831        0.098      338.483       11.163      868.076
01/17/2015  12:02:00       51.156       25.550       55.320       47.837       55.799       39.486     2288.377     3113.476     1559.153        0.664        0.348       57.181       36.127        0.399      338.387       11.004      868.053
01/17/2015  12:03:00       34.610      104.437      116.072       50.186       50.948       34.802     2518.682     2595.739     1211.170        1.595        0.316      110.023       35.622        0.105      338.234       10.746      868.036
01/17/2015  12:04:00       91.443       53.787       56.484       57.804       51.026       48.041     3341.292     2603.686     2307.985        1.135        0.413      106.089       41.986        0.157      338.230       10.739      868.026
01/17/2015  12:05:00      128.234       79.684       41.931       62.606       46.184       43.772     3919.506     2132.992     1916.008        1.626        0.398      150.975       31.537        0.044      338.130       10.573      867.995
01/17/2015  12:06:00       80.296       60.667       84.479       59.762       56.464       45.236     3571.480     3188.149     2046.252        1.303        0.440      100.638       43.565        0.187      338.147       10.600      867.975
01/17/2015  12:07:00      111.776       80.510       36.302       26.386       23.172       25.275      696.234      536.964      638.815        1.108        0.094      137.752       14.880        0.012      337.989       10.336      867.954
01/17/2015  12:08:00       66.630       60.330       40.022       47.119       42.321       39.103     2220.179     1791.058     1529.064        0.761        0.277       89.885       29.748        0.110      338.191       10.674      867.936
01/17/2015  12:09:00       55.033       37.679       21.886       55.235       35.419       29.119     3050.876     1254.484      847.937        0.504        0.258       66.696       27.342        0.168      338.156       10.617      867.957
01/17/2015  12:10:00       -1.172      -42.688       14.511       24.729       43.086       27.040      611.506     1856.436      731.137        0.262        0.160       42.704       26.474        0.384      338.406       11.035      867.984
01/17/2015  12:11:00       43.911      -19.074       20.293       47.817       43.316       28.886     2286.468     1876.240      834.377        0.385        0.250       47.874       28.079        0.344      338.414       11.048      868.000
01/17/2015  12:12:00       62.233      -32.602       13.539       55.813       79.004       54.886     3115.050     6241.653     3012.427        0.874        0.618       70.255       61.070        0.756      338.268       10.804      867.981
01/17/2015  12:13:00       51.553      -33.216       26.226       42.760       72.297       44.490     1828.429     5226.820     1979.401        0.674        0.452       61.328       54.074        0.777      338.254       10.781      867.956
01/17/2015  12:14:00       78.484     -105.427        4.621       48.030       45.681       31.129     2306.839     2086.767      968.986        1.133        0.268      131.433       19.780        0.023      338.287       10.836      867.918
01/17/2015  12:15:00      100.691       46.804       35.651       77.864       48.500       39.066     6062.807     2352.276     1526.132        1.177        0.497      111.038       43.656        0.155      338.239       10.757      867.878
01/17/2015  12:16:00       22.818        2.903       36.001       37.665       78.673       31.946     1418.617     6189.380     1020.518        0.523        0.431       23.002       33.980        2.182      338.339       10.922      867.829
01/17/2015  12:17:00       78.195     -116.821      -17.659       47.516       44.667       34.884     2257.776     1995.111     1216.870        1.277        0.273      140.576       24.421        0.030      338.361       10.959      867.785
01/17/2015  12:18:00       94.911     -129.637      -28.485       44.020       53.020       34.949     1937.751     2811.136     1221.432        1.630        0.299      160.667       27.097        0.028      338.335       10.916      867.758
01/17/2015  12:19:00       75.576     -109.054      -26.749       37.716       39.495       24.989     1422.466     1559.817      624.464        1.096        0.180      132.681       17.136        0.017      338.315       10.883      867.743
01/17/2015  12:20:00       20.209      -28.760       24.974       34.618       48.341       43.566     1198.395     2336.814     1898.028        0.365        0.272       35.151       40.881        1.353      338.554       11.284      867.723
01/17/2015  12:21:00       48.139       -9.401       41.827       57.088       90.692       56.229     3259.034     8224.979     3161.750        0.940        0.732       49.049       68.741        1.964      338.416       11.052      867.693
01/17/2015  12:22:00       37.965      -14.790       42.671       37.889       56.464       41.923     1435.569     3188.148     1757.574        0.493        0.319       40.744       41.688        1.047      338.628       11.409      867.669
01/17/2015  12:23:00       46.781       64.656       56.998       50.583       47.829       45.743     2558.591     2287.611     2092.403        0.828        0.347       79.806       39.957        0.251      338.429       11.075      867.667
01/17/2015  12:24:00       16.226      -35.066       38.953       44.030       39.290       30.356     1938.617     1543.735      921.473        0.371        0.220       38.638       12.056        0.097      338.585       11.338      867.673
01/17/2015  12:25:00       41.261        2.554        6.313       24.594       40.985       29.027      604.872     1679.787      842.543        0.244        0.156       41.340       24.833        0.361      338.454       11.118      867.666
01/17/2015  12:26:00       26.499       53.331       60.694       41.260       35.907       26.482     1702.398     1289.304      701.318        0.546        0.185       59.551       23.726        0.159      338.607       11.374      867.630
01/17/2015  12:27:00       95.282       55.432       37.553       27.585       20.747       33.975      760.952      430.429     1154.330        0.795        0.117      110.233       16.309        0.022      338.478       11.156      867.589
01/17/2015  12:28:00       61.398       85.635       70.007       43.159       24.883       30.546     1862.707      619.185      933.039        0.971        0.171      105.372       20.938        0.039      338.512       11.214      867.538
01/17/2015  12:29:00       56.328       77.574       79.903       58.541       46.318       44.227     3426.998     2145.385     1956.056        1.155        0.376       95.867       34.538        0.130      338.450       11.109      867.500
01/17/2015  12:30:00      106.238       75.709       54.709       43.022       36.492       30.438     1850.898     1331.684      926.444        1.206        0.205      130.454       26.508        0.041      338.292       10.842      867.508
01/17/2015  12:31:00       35.914       39.628       34.413       30.175       46.486       26.765      910.534     2160.957      716.354        0.392        0.189       53.480       22.501        0.177      338.397       11.021      867.527
01/17/2015  12:32:00        2.718       -2.808       44.706       25.892       29.745       19.181      670.412      884.787      367.916        0.197        0.096        3.908       20.187       26.682      338.738       11.592      867.542
01/17/2015  12:33:00       16.831      -22.717       -7.210       24.246       20.361       26.227      587.883      414.567      687.833        0.127        0.085       28.272       16.184        0.328      338.602       11.365      867.536
01/17/2015  12:34:00        5.956        1.395       19.617       12.271        6.862        8.939      150.589       47.089       79.904        0.035        0.014        6.118        4.354        0.507      339.025       12.075      867.515
01/17/2015  12:35:00      -12.607      -20.417       15.039       15.040       20.445       12.452      226.201      418.006      155.046        0.080        0.040       23.995       10.263        0.183      339.033       12.089      867.501
01/17/2015  12:36:00      -26.562       -8.806       14.811       18.206       21.059       18.334      331.448      443.497      336.139        0.106        0.056       27.984       12.032        0.185      338.898       11.864      867.481
01/17/2015  12:37:00      -30.030      -18.808       -7.379       20.604       20.117       18.040      424.511      404.683      325.443        0.123        0.058       35.433       11.890        0.113      338.795       11.689      867.460
01/17/2015  12:38:00      -11.297      -14.261       30.102       21.113       45.765       19.309      445.738     2094.407      372.828        0.207        0.146       18.194       20.199        1.233      339.032       12.088      867.427
01/17/2015  12:39:00       39.141      -23.528       18.642       45.479       57.930       40.998     2068.320     3355.890     1680.817        0.477        0.355       45.668       27.166        0.354      338.751       11.615      867.421
01/17/2015  12:40:00       35.288      -15.662       33.913       51.128       63.995       39.720     2614.026     4095.406     1577.668        0.546        0.414       38.608       43.601        1.275      338.741       11.599      867.417
01/17/2015  12:41:00       43.339      -35.621       13.585       54.755       67.277       45.171     2998.150     4526.181     2040.413        0.645        0.478       56.099       46.203        0.678      338.698       11.526      867.405
01/17/2015  12:42:00       84.265     -115.826      -15.084       47.604       57.567       32.467     2266.121     3313.987     1054.107        1.369        0.332      143.235       31.954        0.050      338.591       11.346      867.393
01/17/2015  12:43:00       79.724       34.749       22.673       31.402       52.680       46.403      986.089     2775.137     2153.272        0.699        0.296       86.968       43.191        0.247      338.526       11.237      867.380
01/17/2015  12:44:00        2.189       12.107       -5.109       25.510       14.660       11.176      650.782      214.906      124.913        0.058        0.050       12.303        6.187        0.253      338.527       11.240      867.379
01/17/2015  12:45:00       -0.902       20.427        6.703       15.470       15.370       18.207      239.318      236.239      331.482        0.063        0.040       20.447       11.285        0.305      338.780       11.663      867.364
01/17/2015  12:46:00       -2.760       13.129       -1.038       11.589       24.696       11.278      134.311      609.909      127.193        0.053        0.044       13.416        6.769        0.255      338.813       11.720      867.350
01/17/2015  12:47:00      -48.468        4.549       -1.937       33.030       23.346       15.851     1090.998      545.026      251.252        0.213        0.094       48.681       12.927        0.071      338.779       11.662      867.335
01/17/2015  12:48:00      -66.434       36.655        6.869       33.595       21.276       20.855     1128.604      452.660      434.927        0.391        0.101       75.876       15.771        0.043      338.786       11.674      867.325
01/17/2015  12:49:00      -32.006       27.686       13.056       22.534       19.895       19.239      507.772      395.812      370.121        0.162        0.064       42.319       16.989        0.161      338.892       11.853      867.330
01/17/2015  12:50:00       -5.032       21.590       17.942        9.005       12.951       13.801       81.092      167.728      190.455        0.063        0.022       22.169        8.091        0.133      339.134       12.258      867.344
01/17/2015  12:51:00       -4.601       18.602       14.868        6.678       18.307       11.842       44.592      335.152      140.235        0.055        0.026       19.163       11.608        0.367      339.234       12.429      867.346
01/17/2015  12:52:00      -48.448      -19.692        2.379       36.521       32.707       14.414     1333.814     1069.758      207.764        0.268        0.131       52.297       16.206        0.096      338.995       12.026      867.335
01/17/2015  12:53:00      -68.546      -37.297       -7.381       38.399       22.885       14.579     1474.501      523.717      212.561        0.418        0.111       78.037        9.713        0.015      338.754       11.619      867.325
01/17/2015  12:54:00      -57.324      -42.546       -3.657       31.814       30.654       21.181     1012.129      939.637      448.629        0.375        0.120       71.387       17.984        0.063      338.781       11.665      867.314
01/17/2015  12:55:00      -64.741      -34.201        9.886       47.425       40.976       27.915     2249.155     1679.063      779.228        0.508        0.235       73.220       32.294        0.195      338.935       11.926      867.303
01/17/2015  12:56:00      -73.004       21.168      -11.473       53.379       43.450       18.579     2849.304     1887.914      345.162        0.549        0.254       76.011       12.530        0.027      338.819       11.729      867.289
01/17/2015  12:57:00      -52.982       -2.257       -7.429       24.517       25.531       13.127      601.064      651.853      172.329        0.215        0.071       53.030       10.359        0.038      338.816       11.725      867.266
01/17/2015  12:58:00       -9.136      -11.569        9.217       14.131       16.044       13.288      199.693      257.413      176.577        0.047        0.032       14.741       12.399        0.707      339.201       12.372      867.234
01/17/2015  12:59:00        5.882        7.661        8.834       14.873       12.970       18.538      221.195      168.232      343.641        0.045        0.037        9.659       10.013        1.075      339.216       12.399      867.204
01/17/2015  13:00:00       16.340      -12.870        6.894       15.205        9.887       16.017      231.197       97.751      256.538        0.053        0.029       20.800        9.625        0.214      338.982       12.003      867.184
01/17/2015  13:01:00      -66.212      -22.746        3.604       44.112       20.588       13.347     1945.905      423.850      178.143        0.373        0.127       70.011       18.385        0.069      338.901       11.867      867.162
01/17/2015  13:02:00      -53.470      -31.475       -0.373       23.318       17.565       13.630      543.741      308.518      185.772        0.244        0.052       62.046       11.733        0.036      338.892       11.853      867.139
01/17/2015  13:03:00      -36.179      -31.302       -4.072       25.737       17.945       12.179      662.413      322.032      148.319        0.172        0.057       47.841       12.164        0.065      338.928       11.914      867.088
01/17/2015  13:04:00      -13.086       -8.925       12.436       23.307       19.164       13.834      543.197      367.256      191.366        0.075        0.055       15.840       15.162        0.916      339.293       12.528      867.051
01/17/2015  13:05:00        5.201      -12.938       18.907       22.035       22.114       14.915      485.545      489.020      222.448        0.087        0.060       13.945        9.693        0.483      339.267       12.484      867.022
01/17/2015  13:06:00      -10.301      -18.265        4.262       25.238       15.966       11.993      636.973      254.906      143.831        0.075        0.052       20.970        6.992        0.111      339.161       12.304      866.985
01/17/2015  13:07:00      -34.838      -13.362        0.688       11.367       12.390        7.766      129.208      153.524       60.314        0.087        0.017       37.313        6.883        0.034      338.986       12.011      866.955
01/17/2015  13:08:00      -32.573        1.180        6.944       18.644       13.578        8.882      347.614      184.374       78.897        0.086        0.031       32.594        9.581        0.086      339.209       12.387      866.934
01/17/2015  13:09:00        0.832       -7.589       16.559       16.976       17.191       12.521      288.199      295.531      156.775        0.054        0.037        7.635       10.645        1.944      339.444       12.780      866.918
01/17/2015  13:10:00       -3.673      -29.453       -3.447        9.770       12.492       11.538       95.448      156.057      133.124        0.064        0.019       29.682        9.039        0.093      339.072       12.155      866.885
01/17/2015  13:11:00       -6.482      -38.408        7.146       26.847       14.129       13.192      720.787      199.641      174.018        0.133        0.055       38.951       15.512        0.159      339.042       12.105      866.859
01/17/2015  13:12:00      -12.095      -48.488        0.936       22.714       16.602       13.900      515.947      275.623      193.217        0.174        0.049       49.973        8.422        0.028      339.025       12.076      866.837
01/17/2015  13:13:00       17.648      -18.564        9.473       14.924       16.659       13.556      222.734      277.506      183.764        0.071        0.034       25.614       10.035        0.154      339.215       12.397      866.806
01/17/2015  13:14:00        8.109       16.742        6.219       16.763       21.865       15.056      280.995      478.094      226.672        0.069        0.049       18.602       15.021        0.652      339.356       12.633      866.749
01/17/2015  13:15:00       -3.669       31.870       -8.213       14.950       30.246       15.539      223.506      914.843      241.460        0.124        0.069       32.081       12.493        0.152      339.324       12.579      866.695
01/17/2015  13:16:00        6.888       24.954       37.586       36.855       34.804       37.064     1358.263     1211.335     1373.745        0.301        0.197       25.887       29.679        1.314      339.549       12.958      866.667
01/17/2015  13:17:00       77.671       27.578       -2.749       25.235       33.356       33.750      636.807     1112.598     1139.045        0.484        0.144       82.422       27.127        0.108      339.164       12.309      866.656
01/17/2015  13:18:00       45.311       41.501       11.964       27.054       18.545       14.642      731.915      343.922      214.389        0.260        0.065       61.444       12.781        0.043      339.072       12.155      866.643
01/17/2015  13:19:00       22.548       58.240        5.110       19.038       11.455       16.380      362.453      131.226      268.316        0.234        0.038       62.452       12.444        0.040      339.105       12.208      866.645
01/17/2015  13:20:00       -4.661       37.318      -16.619        9.874       24.307       13.339       97.499      590.847      177.917        0.128        0.043       37.608       10.490        0.078      339.225       12.414      866.650
01/17/2015  13:21:00       24.358       14.868        0.154       22.532       26.223       22.788      507.691      687.655      519.280        0.126        0.086       28.537       11.078        0.151      339.376       12.667      866.644
01/17/2015  13:22:00       16.869       37.006       -1.438       31.192       22.585       14.200      972.928      510.082      201.642        0.167        0.084       40.670        6.754        0.028      339.422       12.745      866.626
01/17/2015  13:23:00       13.997       37.492       26.184       36.820       31.338       33.365     1355.741      982.085     1113.232        0.287        0.173       40.020       11.964        0.089      339.574       13.000      866.613
01/17/2015  13:24:00       79.763       66.766       21.849       52.000       29.424       32.789     2703.991      865.776     1075.130        0.797        0.232      104.018       24.426        0.055      339.308       12.551      866.589
01/17/2015  13:25:00       53.845       68.626       50.605       37.257       35.487       35.491     1388.088     1259.294     1259.622        0.704        0.195       87.228       24.152        0.077      339.378       12.671      866.565
01/17/2015  13:26:00       83.972       57.075       33.798       52.531       23.653       30.358     2759.520      559.466      921.581        0.785        0.212      101.533       28.538        0.079      339.340       12.607      866.543
01/17/2015  13:27:00       57.718       59.313        8.377       35.127       29.446       27.919     1233.927      867.065      779.483        0.490        0.144       82.761       21.572        0.068      339.264       12.478      866.556
01/17/2015  13:28:00       90.209       66.228        7.425       25.990       21.412       26.229      675.467      458.470      687.937        0.720        0.091      111.910       17.833        0.025      339.227       12.415      866.572
01/17/2015  13:29:00       75.074       47.415       14.413       33.218       24.149       25.449     1103.458      583.178      647.635        0.521        0.117       88.794       15.224        0.029      339.236       12.431      866.580
01/17/2015  13:30:00       12.777       26.963        3.655       27.034       32.445       19.778      730.859     1052.664      391.166        0.154        0.109       29.837       18.968        0.404      339.468       12.822      866.556
01/17/2015  13:31:00       82.761       43.335       31.650       40.392       47.374       39.188     1631.550     2244.276     1535.675        0.757        0.271       93.420       27.915        0.089      339.395       12.699      866.536
01/17/2015  13:32:00       54.981        9.146       37.016       64.506       39.489       32.532     4160.964     1559.405     1058.314        0.563        0.339       55.736       35.019        0.395      339.600       13.044      866.542
01/17/2015  13:33:00       54.918       59.933       35.086       32.561       39.474       48.154     1060.213     1558.161     2318.855        0.639        0.247       81.289       33.462        0.169      339.561       12.980      866.544
01/17/2015  13:34:00       63.315       73.641       40.560       29.349       30.955       30.886      861.363      958.184      953.941        0.692        0.139       97.117       21.725        0.050      339.294       12.528      866.569
01/17/2015  13:35:00       17.310      -19.102       33.833       34.904       52.816       34.589     1218.304     2789.537     1196.430        0.351        0.260       25.778       32.955        1.634      339.430       12.757      866.588
01/17/2015  13:36:00       57.337       68.262       63.325       52.640       36.619       33.084     2770.966     1340.979     1094.570        0.858        0.260       89.147       28.839        0.105      339.359       12.637      866.589
01/17/2015  13:37:00       21.699       58.033       61.544       29.259       30.839       21.463      856.064      951.047      460.668        0.495        0.113       61.957       16.349        0.070      339.448       12.788      866.559
01/17/2015  13:38:00       -5.687       42.700       58.649       18.809       33.085       19.581      353.785     1094.594      383.435        0.356        0.092       43.077       11.464        0.071      339.615       13.069      866.525
01/17/2015  13:39:00       34.300       36.933       15.638       30.775       28.178       32.806      947.078      794.013     1076.210        0.280        0.141       50.404       21.823        0.187      339.563       12.980      866.503
01/17/2015  13:40:00       16.576       48.609        7.822       31.631       30.146       22.029     1000.508      908.753      485.268        0.255        0.120       51.358       18.638        0.132      339.533       12.933      866.502
01/17/2015  13:41:00       23.523       67.054      -11.338       20.902       17.019       18.449      436.874      289.647      340.377        0.312        0.053       71.060       14.713        0.043      339.352       12.629      866.507
01/17/2015  13:42:00        1.867       40.483      -11.380       17.998       15.822        9.617      323.931      250.329       92.477        0.122        0.033       40.526        7.976        0.039      339.423       12.745      866.504
01/17/2015  13:43:00       52.331       41.719        1.084       16.912       14.565       14.514      286.019      212.131      210.664        0.259        0.035       66.925        8.532        0.016      339.286       12.514      866.513
01/17/2015  13:44:00       14.409        8.204       -3.631       12.904       10.734       10.584      166.509      115.227      112.025        0.034        0.020       16.581        7.744        0.218      339.454       12.800      866.519
01/17/2015  13:45:00      -19.323        1.229      -15.386       16.786       15.408        7.497      281.769      237.401       56.207        0.059        0.029       19.362        7.117        0.135      339.401       12.709      866.526
01/17/2015  13:46:00       11.856       26.538       15.210       16.220       14.060       17.095      263.076      197.686      292.252        0.091        0.038       29.066        5.963        0.042      339.573       13.000      866.511
01/17/2015  13:47:00       19.635        8.211        4.786       13.469       19.828       14.329      181.423      393.146      205.325        0.063        0.039       21.283       12.655        0.354      339.540       12.942      866.488
01/17/2015  13:48:00       21.961       37.680       29.565       19.386       18.128       15.734      375.815      328.632      247.559        0.186        0.048       43.613        5.490        0.016      339.640       13.112      866.465
01/17/2015  13:49:00        3.712       11.133       29.400       35.447       28.810       35.058     1256.504      830.005     1229.076        0.216        0.166       11.736       28.702        5.982      339.741       13.281      866.454
01/17/2015  13:50:00       -0.031       38.424       58.088       25.982       24.342       22.980      675.089      592.552      528.069        0.332        0.090       38.424       18.945        0.243      339.764       13.321      866.439
01/17/2015  13:51:00       35.851       41.580       35.559       44.839       29.832       37.577     2010.557      889.960     1412.021        0.429        0.216       54.901       33.217        0.366      339.760       13.314      866.429
01/17/2015  13:52:00       57.658       44.653       13.607       29.335       25.253       24.349      860.535      637.705      592.891        0.380        0.105       72.927       17.985        0.061      339.604       13.051      866.445
01/17/2015  13:53:00       22.052       34.474       41.574       30.200       23.888       20.962      912.067      570.650      439.410        0.266        0.096       40.924       18.990        0.215      339.808       13.393      866.461
01/17/2015  13:54:00       34.744       34.945       37.293       22.627       19.544       18.243      511.964      381.972      332.823        0.252        0.061       49.278       13.866        0.079      339.670       13.162      866.466
01/17/2015  13:55:00       51.367       -7.005       16.090       21.024       15.911       18.837      442.014      253.168      354.848        0.200        0.053       51.842       12.778        0.061      339.630       13.095      866.450
01/17/2015  13:56:00       30.454        4.826       11.171       22.169       20.156       19.755      491.473      406.268      390.242        0.118        0.064       30.834       11.775        0.146      339.709       13.227      866.418
01/17/2015  13:57:00        6.317       27.618       45.543       36.377       37.554       46.016     1323.279     1410.275     2117.480        0.386        0.243       28.331       31.600        1.244      339.838       13.447      866.380
01/17/2015  13:58:00       22.295      -38.463       35.908       50.612       68.190       42.099     2561.609     4649.866     1772.320        0.612        0.449       44.458       45.171        1.032      339.815       13.407      866.352
01/17/2015  13:59:00       43.654       21.354       65.937       53.213       67.706       48.286     2831.612     4584.125     2331.576        0.823        0.487       48.597       43.136        0.788      339.790       13.366      866.334
01/17/2015  14:00:00       25.323       -7.470       41.191       26.936       37.948       27.581      725.558     1440.061      760.686        0.266        0.146       26.402       26.756        1.027      339.745       13.289      866.340
01/17/2015  14:01:00       -1.323        1.199        8.457       23.357       19.741       16.695      545.556      389.698      278.717        0.064        0.061        1.785        7.850       19.332      339.641       13.113      866.339
01/17/2015  14:02:00       15.798      -24.780       17.124       29.414       29.918       25.364      865.157      895.113      643.354        0.178        0.120       29.387       18.213        0.384      339.871       13.502      866.340
01/17/2015  14:03:00       47.316      -31.159       12.890       32.775       24.879       23.159     1074.223      618.974      536.360        0.280        0.111       56.654       11.901        0.044      339.623       13.082      866.335
01/17/2015  14:04:00       32.320       25.226        8.789       21.073       22.833       23.240      444.074      521.360      540.103        0.163        0.075       40.999       15.857        0.150      339.635       13.103      866.327
01/17/2015  14:05:00       -5.291      -15.339        2.386       24.464       28.794       14.071      598.491      829.070      198.005        0.095        0.081       16.225       16.150        0.991      339.777       13.344      866.339
01/17/2015  14:06:00        6.002      -53.932        8.557       26.780       53.171       30.938      717.173     2827.108      957.158        0.376        0.225       54.265       32.446        0.358      339.948       13.632      866.348
01/17/2015  14:07:00       12.738       -5.016       37.090       29.570       45.409       26.625      874.373     2061.956      708.873        0.260        0.182       13.690       24.526        3.209      339.997       13.714      866.355
01/17/2015  14:08:00       14.073       -2.974       34.148       31.677       35.325       27.515     1003.435     1247.867      757.059        0.219        0.150       14.384       25.440        3.128      340.060       13.820      866.350
01/17/2015  14:09:00       65.176       73.665       73.358       93.125       57.227       53.052     8672.190     3274.952     2814.509        1.491        0.738       98.358       59.050        0.360      339.826       13.425      866.317
01/17/2015  14:10:00       91.732      103.342       64.201       59.861       47.400       46.652     3583.354     2246.714     2176.443        1.561        0.400      138.182       34.558        0.063      339.585       13.019      866.303
01/17/2015  14:11:00       76.292       37.762        6.675       49.719       44.204       36.269     2471.996     1953.987     1315.432        0.652        0.287       85.126       27.855        0.107      339.522       12.913      866.302
01/17/2015  14:12:00       16.920       21.342       12.708       41.818       29.617       20.328     1748.769      877.139      413.246        0.197        0.152       27.236        7.811        0.082      339.782       13.352      866.298
01/17/2015  14:13:00       -7.667      -21.542       -5.205       20.509       25.376        9.817      420.637      643.943       96.375        0.086        0.058       22.865        4.080        0.032      339.856       13.476      866.302
01/17/2015  14:14:00       22.708     -108.819       -9.023       43.502       57.190       32.672     1892.438     3270.661     1067.454        0.933        0.312      111.163       35.198        0.100      339.879       13.514      866.308
01/17/2015  14:15:00       75.996      -64.513       10.281       48.145       53.522       33.292     2317.954     2864.578     1108.373        0.817        0.315       99.686       35.241        0.125      339.785       13.356      866.324
01/17/2015  14:16:00       48.209      -59.846       10.737       40.190       83.811       34.547     1615.258     7024.266     1193.502        0.793        0.492       76.848       42.604        0.307      339.862       13.486      866.328
01/17/2015  14:17:00       36.710      -54.330       10.957       48.104       56.338       41.885     2314.003     3173.988     1754.316        0.583        0.362       65.569       39.404        0.361      339.955       13.643      866.327
01/17/2015  14:18:00       11.195       28.873       66.899       35.594       49.309       39.123     1266.930     2431.345     1530.622        0.533        0.261       30.968       38.802        1.570      339.990       13.702      866.307
01/17/2015  14:19:00       63.608      -85.933      -12.652       40.584       43.393       33.886     1647.063     1882.966     1148.254        0.813        0.234      106.913       27.853        0.068      339.818       13.412      866.299
01/17/2015  14:20:00       55.706      -92.104      -12.403       35.729       52.552       28.372     1276.582     2761.669      804.971        0.829        0.242      107.640       22.246        0.043      339.819       13.414      866.289
01/17/2015  14:21:00       66.034      -81.199      -11.171       37.471       65.412       29.835     1404.063     4278.668      890.117        0.882        0.329      104.660       30.123        0.083      339.791       13.366      866.271
01/17/2015  14:22:00       30.774      -53.500        4.985       34.413       68.359       27.055     1184.231     4673.016      731.975        0.521        0.329       61.720       29.817        0.233      339.841       13.451      866.262
01/17/2015  14:23:00       -1.044      -16.192       22.397       29.824       41.295       24.218      889.501     1705.312      586.498        0.197        0.159       16.226       24.924        2.360      339.962       13.656      866.245
01/17/2015  14:24:00       51.833     -104.780       -8.145       59.225       52.847       39.541     3507.635     2792.788     1563.501        1.080        0.393      116.899       41.020        0.123      339.821       13.418      866.235
01/17/2015  14:25:00       60.217      -85.560      -14.925       50.445       47.766       36.366     2544.711     2281.567     1322.509        0.866        0.307      104.626       31.413        0.090      339.790       13.365      866.237
01/17/2015  14:26:00       35.570      -34.719       25.491       47.876       56.932       32.868     2292.080     3241.217     1080.273        0.487        0.331       49.706       31.808        0.410      339.874       13.506      866.237
01/17/2015  14:27:00       57.329      -64.934        4.876       52.101       60.648       40.970     2714.555     3678.208     1678.556        0.780        0.404       86.620       50.194        0.336      339.814       13.405      866.228
01/17/2015  14:28:00        5.569      -52.009       -1.560       60.532       38.652       32.227     3664.169     1493.995     1038.569        0.447        0.310       52.306       30.913        0.349      339.876       13.509      866.232
01/17/2015  14:29:00       -3.787       19.868       45.703       18.114       34.768       24.894      328.107     1208.806      619.712        0.233        0.108       20.226       24.907        1.516      339.994       13.710      866.252
01/17/2015  14:30:00       -9.219       17.349       41.649       18.811       33.456       28.544      353.853     1119.302      814.745        0.220        0.114       19.646       27.633        1.978      339.972       13.672      866.265
01/17/2015  14:31:00      -38.257        0.009        0.448       24.099       19.702       14.212      580.774      388.178      201.986        0.132        0.059       38.257       10.347        0.073      339.877       13.512      866.290
01/17/2015  14:32:00      -87.101      -24.045        4.907       33.199       25.985       13.601     1102.178      675.217      184.998        0.508        0.098       90.359       13.220        0.021      339.854       13.472      866.297
01/17/2015  14:33:00      -44.291      -44.521       12.217       43.866       39.452       27.363     1924.210     1556.451      748.744        0.416        0.211       62.800       24.634        0.154      339.959       13.650      866.287
01/17/2015  14:34:00      -41.490      -44.080        1.515       48.032       24.024       21.798     2307.107      577.170      475.172        0.351        0.168       60.535       15.669        0.067      339.905       13.558      866.272
01/17/2015  14:35:00       -7.831      -20.716       14.549       33.337       25.704       20.507     1111.329      660.698      420.537        0.145        0.110       22.146       19.093        0.743      340.016       13.745      866.260
01/17/2015  14:36:00      -47.228      -40.774        0.808       42.886       29.992       17.728     1839.184      899.526      314.284        0.347        0.153       62.394        9.888        0.025      339.907       13.562      866.256
01/17/2015  14:37:00        0.244      -83.957      -20.494       32.356       38.416       29.627     1046.882     1475.817      877.743        0.543        0.170       83.958       13.158        0.025      339.955       13.643      866.258
01/17/2015  14:38:00      -11.875      -25.861        0.296       19.277       33.456       17.961      371.604     1119.303      322.602        0.131        0.091       28.457       13.963        0.241      340.106       13.898      866.263
01/17/2015  14:39:00      -24.617       26.043        7.302       22.219       16.189       18.868      493.696      262.091      356.015        0.122        0.056       35.836       11.146        0.097      340.017       13.747      866.261
01/17/2015  14:40:00      -56.814       18.892       -0.707       23.308       17.698       20.688      543.263      313.229      427.986        0.243        0.064       59.873       13.706        0.052      339.887       13.527      866.249
01/17/2015  14:41:00      -31.789       36.183       15.580       48.605       21.494       22.568     2362.456      461.989      509.310        0.295        0.167       48.164       26.137        0.294      339.861       13.485      866.239
01/17/2015  14:42:00      -13.173       50.307       81.715       12.195       41.184       27.551      148.715     1696.085      759.062        0.599        0.130       52.003       28.188        0.294      340.020       13.753      866.229
01/17/2015  14:43:00       13.453       35.281       77.674       31.540       36.819       21.797      994.745     1355.660      475.108        0.514        0.141       37.759       23.788        0.397      339.991       13.704      866.240
01/17/2015  14:44:00       32.796        6.708       31.310       30.028       32.432       31.568      901.701     1051.863      996.539        0.252        0.148       33.475       20.791        0.386      340.006       13.729      866.248
01/17/2015  14:45:00       23.270       36.719       49.888       31.040       29.078       14.970      963.483      845.528      224.104        0.321        0.102       43.471       17.336        0.159      339.895       13.541      866.244
01/17/2015  14:46:00      -17.072       23.995       48.982       15.238       25.670       21.144      232.194      658.954      447.070        0.230        0.067       29.449       14.370        0.238      340.032       13.773      866.237
01/17/2015  14:47:00       17.456      -59.093       -1.620       32.875       60.736       33.427     1080.793     3688.895     1117.364        0.484        0.294       61.618       30.518        0.245      339.877       13.513      866.227
01/17/2015  14:48:00       35.179      -58.736      -14.885       19.814       34.148       18.511      392.608     1166.065      342.653        0.340        0.095       68.465       14.889        0.047      339.791       13.365      866.226
01/17/2015  14:49:00       22.215        4.461       24.435       17.770       25.318       20.390      315.787      641.000      415.752        0.124        0.069       22.659       15.936        0.495      339.882       13.520      866.225
01/17/2015  14:50:00       49.290       22.944       15.309       18.296       20.774       25.706      334.755      431.558      660.780        0.231        0.071       54.369       17.160        0.100      339.764       13.320      866.231
01/17/2015  14:51:00       12.838       20.640       22.558       11.645       12.327        8.759      135.615      151.956       76.721        0.073        0.018       24.307        5.217        0.046      339.896       13.543      866.242
01/17/2015  14:52:00        0.151       29.245       14.148       12.419       10.180       14.685      154.227      103.630      215.649        0.076        0.024       29.245        6.867        0.055      339.888       13.531      866.240
01/17/2015  14:53:00       10.928       26.170       -0.839       15.176       26.353       14.255      230.309      694.465      203.210        0.097        0.056       28.360       10.938        0.149      339.945       13.627      866.236
01/17/2015  14:54:00        3.140      -11.020       -4.515       10.290       10.436        8.485      105.880      108.905       71.999        0.022        0.014       11.459        6.539        0.326      340.011       13.737      866.230
01/17/2015  14:55:00      -28.679       22.459       -7.463       15.420       15.204       10.259      237.777      231.164      105.244        0.098        0.029       36.427       10.680        0.086      339.936       13.611      866.225
01/17/2015  14:56:00      -26.529       26.281       -5.535       16.503       17.962       11.660      272.337      322.635      135.954        0.108        0.037       37.342       10.809        0.084      339.894       13.541      866.235
01/17/2015  14:57:00      -49.895        7.528       -4.851       18.964       13.715       10.352      359.624      188.092      107.173        0.161        0.033       50.460        6.211        0.015      339.886       13.529      866.235
01/17/2015  14:58:00      -70.006       -8.889      -16.216       16.073       15.656        9.440      258.330      245.096       89.117        0.292        0.030       70.568        7.220        0.010      339.888       13.531      866.240
01/17/2015  14:59:00      -68.309      -17.380       -9.704       15.242       12.260        7.423      232.317      150.307       55.106        0.275        0.022       70.486        5.505        0.006      339.930       13.600      866.250
01/17/2015  15:00:00      -65.737      -41.817      -13.266       18.245       29.310        9.589      332.895      859.063       91.948        0.376        0.064       77.910        6.474        0.007      339.941       13.620      866.254
01/17/2015  15:01:00      -63.437      -23.315      -10.778       23.060       15.956       16.203      531.769      254.580      262.531        0.287        0.052       67.586       12.879        0.036      339.943       13.621      866.270
01/17/2015  15:02:00      -47.406      -48.769       -9.702       24.831       16.577       12.266      616.598      274.804      150.448        0.288        0.052       68.013       13.266        0.038      339.957       13.646      866.272
01/17/2015  15:03:00      -35.178      -20.506       -2.462       17.511       17.364       15.473      306.623      301.495      239.415        0.126        0.042       40.718       10.026        0.061      340.016       13.746      866.266
01/17/2015  15:04:00      -57.438      -11.262       -2.402       15.491       15.594       13.725      239.960      243.158      188.362        0.205        0.034       58.532        9.999        0.029      339.992       13.706      866.253
01/17/2015  15:05:00      -15.174       -7.148        6.584       13.921        9.141        9.388      193.806       83.551       88.137        0.035        0.018       16.774        4.582        0.075      340.148       13.969      866.232
01/17/2015  15:06:00       11.739       16.420        0.346       18.169       16.568       10.602      330.120      274.489      112.406        0.056        0.036       20.184       10.764        0.284      340.042       13.788      866.206
01/17/2015  15:07:00      -21.921       -6.537        5.021       20.164       14.524        7.627      406.585      210.960       58.176        0.061        0.034       22.875        9.330        0.166      340.192       14.043      866.180
01/17/2015  15:08:00      -53.253      -25.284       -0.764       23.277       18.447       10.101      541.826      340.291      102.027        0.223        0.049       58.951       11.368        0.037      340.050       13.802      866.156
01/17/2015  15:09:00      -54.280        0.468       -1.510       20.278       14.172       12.120      411.215      200.838      146.884        0.185        0.038       54.282        9.746        0.032      340.040       13.785      866.142
01/17/2015  15:10:00      -36.791      -19.866       -0.550       23.740       14.631       13.332      563.600      214.059      177.734        0.135        0.048       41.812       11.480        0.075      340.117       13.917      866.129
01/17/2015  15:11:00      -37.686      -11.627       -0.762       18.802       19.825       10.657      353.509      393.039      113.568        0.121        0.043       39.439        9.234        0.055      340.142       13.957      866.110
01/17/2015  15:12:00      -11.937       -2.181        4.316       13.575       14.224        9.521      184.285      202.309       90.659        0.032        0.024       12.135        8.371        0.476      340.371       14.346      866.101
01/17/2015  15:13:00      -20.576      -24.274       10.379       24.187       37.309       12.760      584.988     1391.937      162.818        0.163        0.107       31.821       16.200        0.259      340.442       14.465      866.097
01/17/2015  15:14:00      -41.885      -34.139       -2.218       17.302       30.813       12.677      299.349      949.420      160.698        0.217        0.070       54.035        8.566        0.025      340.124       13.927      866.093
01/17/2015  15:15:00      -23.537       -4.355       -7.558       23.933        4.982        7.729      572.779       24.822       59.730        0.064        0.033       23.936        9.841        0.169      340.174       14.012      866.082
01/17/2015  15:16:00       13.592       10.147       25.607       13.815       11.118       10.488      190.850      123.600      109.995        0.068        0.021       16.962       10.511        0.384      340.463       14.501      866.056
01/17/2015  15:17:00        8.928       30.248       13.280       13.036       14.076       18.557      169.949      198.143      344.366        0.094        0.036       31.538        9.517        0.091      340.268       14.169      866.021
01/17/2015  15:18:00       -1.230       37.356        8.687       19.398       35.064       14.532      376.298     1229.513      211.172        0.164        0.091       37.376       16.217        0.188      340.481       14.532      865.981
01/17/2015  15:19:00      -44.170       47.185       -3.954       33.284       27.788       21.538     1107.843      772.153      463.881        0.327        0.117       64.632       20.269        0.098      340.290       14.209      865.968
01/17/2015  15:20:00      -96.964       44.534      -22.035       12.993       14.121       13.866      168.817      199.404      192.265        0.622        0.028      106.702        6.615        0.004      340.051       13.804      865.978
01/17/2015  15:21:00      -68.300       65.616      -25.011       28.433       20.645       13.976      808.422      426.225      195.329        0.551        0.071       94.712       11.723        0.015      340.053       13.808      865.985
01/17/2015  15:22:00      -30.260      105.960       -9.557       25.625       30.927       19.839      656.641      956.467      393.576        0.712        0.100      110.196       11.311        0.011      340.103       13.893      865.986
01/17/2015  15:23:00      -31.009       86.328       -9.009       22.664       28.167       21.864      513.663      793.370      478.056        0.514        0.089       91.729       17.607        0.037      340.132       13.943      865.973
01/17/2015  15:24:00      -16.735       41.804        2.521       14.073       23.476       16.504      198.042      551.109      272.389        0.153        0.051       45.029       15.877        0.124      340.283       14.197      865.964
01/17/2015  15:25:00      -33.164       83.277       -7.137       16.844       19.203       17.141      283.709      368.739      293.814        0.452        0.047       89.638       11.063        0.015      340.262       14.161      865.967
01/17/2015  15:26:00      -54.320       64.348      -16.920       15.760       30.343       15.387      248.365      920.727      236.748        0.439        0.070       84.210       10.934        0.017      340.233       14.112      865.977
01/17/2015  15:27:00      -53.783       43.552      -12.558       18.407       14.178       13.788      338.819      201.002      190.116        0.284        0.036       69.205       10.185        0.022      340.280       14.192      865.973
01/17/2015  15:28:00      -30.374       15.023       -4.124       21.732       17.776       16.722      472.287      315.999      279.639        0.112        0.053       33.887       17.039        0.253      340.432       14.448      865.969
01/17/2015  15:29:00      -15.145       20.564       10.467       19.405       12.098       14.599      376.552      146.370      213.131        0.075        0.037       25.539        8.822        0.119      340.415       14.420      865.966
01/17/2015  15:30:00       -2.883        5.912        0.713       14.345       14.708        7.718      205.765      216.318       59.562        0.026        0.024        6.577        3.602        0.300      340.465       14.505      865.965
01/17/2015  15:31:00        0.306        1.790        4.326        8.918        5.058       12.061       79.523       25.588      145.478        0.014        0.013        1.816        3.629        3.994      340.686       14.878      865.963
01/17/2015  15:32:00       -8.050       -2.267        9.959        9.575        8.016       10.796       91.679       64.252      116.546        0.022        0.014        8.363        8.240        0.971      340.790       15.053      865.949
01/17/2015  15:33:00       -3.629       21.927        1.400       14.993       30.930       17.028      224.799      956.662      289.957        0.098        0.074       22.225       11.212        0.255      340.561       14.666      865.943
01/17/2015  15:34:00       -4.028       25.701        6.390       23.011       15.326       11.583      529.485      234.885      134.162        0.081        0.045       26.015       10.272        0.156      340.409       14.411      865.947
01/17/2015  15:35:00        7.215       46.464       -4.313       12.285       17.459       11.991      150.919      304.829      143.785        0.141        0.030       47.021       11.107        0.056      340.299       14.223      865.959
01/17/2015  15:36:00      -13.560       51.871        6.120       17.887       19.727       14.041      319.960      389.143      197.156        0.191        0.045       53.615       10.898        0.041      340.339       14.289      865.966
01/17/2015  15:37:00       -9.706       24.873        0.154       18.841       13.298       11.506      354.980      176.841      132.396        0.069        0.033       26.700        8.188        0.094      340.409       14.409      865.977
01/17/2015  15:38:00       -1.824       15.257      -10.038        8.892       11.594       10.276       79.076      134.412      105.591        0.033        0.016       15.366        4.490        0.085      340.392       14.379      865.986
01/17/2015  15:39:00      -21.669       30.245       -7.655       15.765       20.977       13.023      248.534      440.021      169.595        0.115        0.043       37.207        8.169        0.048      340.302       14.229      865.976
01/17/2015  15:40:00      -37.946       20.745      -16.947        9.206        8.250       12.185       84.749       68.062      148.482        0.123        0.015       43.247        7.672        0.031      340.224       14.095      865.972
01/17/2015  15:41:00      -34.204        4.071      -11.306       14.327        5.591        9.964      205.250       31.260       99.289        0.083        0.017       34.446        5.010        0.021      340.259       14.154      865.975
01/17/2015  15:42:00        2.985        0.908        8.957        8.174        6.612        9.543       66.821       43.713       91.061        0.015        0.010        3.120        4.777        2.344      340.513       14.586      865.966
01/17/2015  15:43:00      -10.335        5.102        8.520       11.274       13.619        8.840      127.099      185.472       78.140        0.030        0.020       11.525        5.195        0.203      340.537       14.625      865.945
01/17/2015  15:44:00        7.770        6.326       15.633        9.904        9.807        6.367       98.091       96.186       40.538        0.029        0.012       10.020        4.068        0.165      340.600       14.734      865.934
01/17/2015  15:45:00      -34.320       -2.865       -1.920       17.244       11.462        5.571      297.340      131.381       31.039        0.082        0.023       34.440        4.963        0.021      340.349       14.308      865.935
01/17/2015  15:46:00      -63.414      -14.171       -2.736       13.624       18.951       11.633      185.612      359.149      135.331        0.245        0.034       64.978        6.387        0.010      340.366       14.339      865.945
01/17/2015  15:47:00      -86.158      -25.577      -12.782       19.923       16.806       12.134      396.943      282.426      147.243        0.453        0.041       89.874        9.999        0.012      340.311       14.243      865.957
01/17/2015  15:48:00      -93.063      -33.931       -7.777       23.564       25.304       14.861      555.280      640.286      220.854        0.564        0.071       99.056       14.876        0.023      340.282       14.192      865.965
01/17/2015  15:49:00      -67.354      -18.843       -3.062       22.325       25.161       18.796      498.400      633.065      353.294        0.319        0.074       69.940       14.394        0.042      340.318       14.255      865.966
01/17/2015  15:50:00      -37.079       -3.573      -15.318       10.892        5.860        7.132      118.646       34.341       50.859        0.091        0.010       37.250        6.962        0.035      340.288       14.204      865.956
01/17/2015  15:51:00      -21.327      -12.853      -15.492       10.704        6.916        4.652      114.578       47.831       21.639        0.052        0.009       24.901        5.075        0.042      340.401       14.396      865.948
01/17/2015  15:52:00      -14.876       -4.431       -6.988        8.148        7.906        4.973       66.392       62.508       24.726        0.022        0.008       15.522        3.095        0.040      340.422       14.432      865.950
01/17/2015  15:53:00      -34.752        2.153       -5.226       15.012       11.399       10.878      225.353      129.938      118.334        0.086        0.024       34.819        6.097        0.031      340.396       14.387      865.964
01/17/2015  15:54:00      -45.243        4.747       -8.537        9.823        8.177        8.872       96.490       66.867       78.712        0.119        0.012       45.491        2.915        0.004      340.362       14.330      865.963
01/17/2015  15:55:00      -22.817        2.531       -2.123        8.077        6.190        6.291       65.236       38.314       39.574        0.034        0.007       22.957        4.425        0.037      340.393       14.382      865.955
01/17/2015  15:56:00      -15.073       -4.801       -1.621        8.550        4.875        5.809       73.100       23.766       33.744        0.019        0.007       15.819        4.417        0.078      340.417       14.424      865.952
01/17/2015  15:57:00      -12.958       -7.567       -7.496        9.383        7.257        4.953       88.042       52.668       24.535        0.022        0.008       15.005        4.891        0.106      340.397       14.389      865.973
01/17/2015  15:58:00        7.914      -16.897       -3.141        8.989       11.047        8.614       80.794      122.027       74.193        0.032        0.014       18.659        6.846        0.135      340.320       14.258      865.998
01/17/2015  15:59:00       10.640        3.891       11.551        8.769        8.739        6.790       76.899       76.367       46.106        0.023        0.010       11.329        6.348        0.314      340.336       14.285      865.999
01/17/2015  16:00:00       39.515       23.956        9.151       13.292        7.068        7.444      176.682       49.950       55.418        0.125        0.014       46.210        7.315        0.025      340.263       14.161      865.978
01/17/2015  16:01:00       42.551       35.865       27.784       23.312       18.513       25.739      543.439      342.728      662.503        0.271        0.077       55.649       16.906        0.092      340.262       14.159      865.941
01/17/2015  16:02:00       45.114       14.444       19.474       32.906       27.250       27.333     1082.832      742.558      747.093        0.260        0.129       47.369       25.198        0.283      340.225       14.096      865.928
01/17/2015  16:03:00       60.904       16.107        5.892       44.125       31.560       28.364     1947.037      996.024      804.504        0.387        0.187       62.997       17.287        0.075      340.196       14.049      865.930
01/17/2015  16:04:00       38.428       12.637        1.873       46.379       36.189       30.164     2151.018     1309.663      909.847        0.300        0.219       40.452       26.608        0.433      340.186       14.031      865.928
01/17/2015  16:05:00       38.578       42.879       29.485       35.842       29.855       28.203     1284.624      891.311      795.393        0.358        0.149       57.679       21.663        0.141      340.206       14.066      865.920
01/17/2015  16:06:00       42.159       18.648       17.069       35.010       22.123       25.475     1225.720      489.436      648.973        0.239        0.118       46.099       21.731        0.222      340.162       13.991      865.917
01/17/2015  16:07:00       56.768       35.358        8.959       26.167       22.994       22.175      684.705      528.727      491.725        0.313        0.085       66.879       16.414        0.060      340.152       13.975      865.904
01/17/2015  16:08:00       48.424       36.693       26.325       25.290       16.080       16.059      639.604      258.575      257.896        0.277        0.058       60.755       10.786        0.032      340.165       13.999      865.899
01/17/2015  16:09:00       79.683       36.351       12.243       17.171       17.559       18.550      294.827      308.322      344.111        0.438        0.047       87.582       11.426        0.017      340.174       14.012      865.895
01/17/2015  16:10:00       64.742       18.698        8.658       27.664       20.360       19.706      765.281      414.513      388.335        0.309        0.078       67.388       10.149        0.023      340.143       13.959      865.899
01/17/2015  16:11:00       45.742       50.959       32.331       19.170       15.204       13.513      367.488      231.154      182.600        0.326        0.039       68.477        8.924        0.017      340.199       14.053      865.908
01/17/2015  16:12:00       43.712       34.885       22.925       24.610       12.529       17.214      605.650      156.982      296.314        0.236        0.053       55.926       11.739        0.044      340.172       14.009      865.918
01/17/2015  16:13:00       45.931       32.840       18.352       14.154       12.303       15.515      200.332      151.365      240.719        0.206        0.030       56.463        8.904        0.025      340.169       14.003      865.928
01/17/2015  16:14:00       53.374       30.758       10.220       11.872       15.681       11.454      140.945      245.901      131.189        0.221        0.026       61.602        8.621        0.020      340.159       13.985      865.938
01/17/2015  16:15:00       50.530       36.809       28.940       16.742       10.056       14.005      280.293      101.132      196.143        0.266        0.029       62.515        5.413        0.007      340.122       13.925      865.952
01/17/2015  16:16:00       57.513       20.243       23.867       26.478       18.966       19.157      701.060      359.716      366.994        0.286        0.071       60.972       16.351        0.072      340.128       13.934      865.959
01/17/2015  16:17:00       35.948       30.424       28.235       22.003       16.185       18.041      484.151      261.950      325.460        0.204        0.054       47.095       12.904        0.075      340.112       13.907      865.977
01/17/2015  16:18:00       34.410       19.423       15.565       22.015       20.467       19.214      484.668      418.880      369.179        0.154        0.064       39.513       12.814        0.105      340.094       13.877      865.990
01/17/2015  16:19:00       46.904       27.164       19.426       15.791       11.238       14.430      249.370      126.301      208.237        0.195        0.029       54.202        9.237        0.029      340.114       13.912      866.002
01/17/2015  16:20:00       45.332       30.140       17.204       15.256        8.980       11.492      232.749       80.648      132.067        0.185        0.022       54.438        6.968        0.016      340.152       13.973      866.002
01/17/2015  16:21:00       35.397       29.468       10.396        6.574        7.694        7.938       43.221       59.196       63.012        0.120        0.008       46.058        3.289        0.005      340.173       14.011      866.007
01/17/2015  16:22:00       24.124       25.609       -0.288       13.932       11.329        9.442      194.089      128.355       89.147        0.082        0.021       35.182        7.423        0.045      340.163       13.993      866.020
01/17/2015  16:23:00        9.098       21.219       -4.266        8.160       13.218        8.096       66.590      174.719       65.553        0.043        0.015       23.087        7.653        0.110      340.218       14.085      866.025
01/17/2015  16:24:00        6.773       26.881       -5.193        3.607        3.806        2.501       13.009       14.488        6.255        0.041        0.002       27.721        1.922        0.005      340.260       14.157      866.024
01/17/2015  16:25:00        6.415       24.833       -2.361        6.935        4.463        4.083       48.093       19.919       16.669        0.037        0.004       25.648        3.312        0.017      340.274       14.181      866.026
01/17/2015  16:26:00       20.034       28.830       -0.942        7.204        8.063        6.233       51.899       65.006       38.845        0.069        0.008       35.108        5.008        0.020      340.210       14.072      866.011
01/17/2015  16:27:00       48.636       45.361        1.374       21.857        7.076       10.259      477.731       50.072      105.245        0.253        0.032       66.506        8.082        0.015      340.140       13.955      865.994
01/17/2015  16:28:00       92.632       63.973       21.381       17.311       19.847       22.365      299.674      393.919      500.212        0.716        0.060      112.575       11.267        0.010      340.191       14.041      865.970
01/17/2015  16:29:00       42.270       80.472       71.366       37.043       28.597       29.061     1372.166      817.776      844.520        0.819        0.152       90.898       21.516        0.056      340.189       14.038      865.947
01/17/2015  16:30:00       42.654       73.976       61.034       28.878       30.672       30.764      833.950      940.791      946.405        0.687        0.136       85.392       23.573        0.076      340.169       14.003      865.923
01/17/2015  16:31:00       31.782       61.134       72.192       38.759       36.245       22.092     1502.290     1313.680      488.049        0.663        0.165       68.902       21.387        0.096      340.188       14.035      865.903
01/17/2015  16:32:00       46.897       71.027       72.982       41.411       36.683       24.848     1714.840     1345.620      617.431        0.812        0.184       85.112       20.791        0.060      340.167       14.001      865.886
01/17/2015  16:33:00       51.795       46.007       57.573       48.469       41.059       35.154     2349.259     1685.818     1235.811        0.669        0.264       69.277       32.704        0.223      340.158       13.985      865.881
01/17/2015  16:34:00       57.503       49.333       68.114       40.338       38.157       27.401     1627.179     1455.974      750.792        0.711        0.192       75.765       17.983        0.056      340.129       13.937      865.877
01/17/2015  16:35:00       47.088       42.572       60.692       47.420       37.597       31.435     2248.611     1413.510      988.131        0.618        0.233       63.479       17.646        0.077      340.133       13.944      865.870
01/17/2015  16:36:00       72.518       49.828       45.812       41.617       39.791       27.673     1731.954     1583.328      765.776        0.696        0.204       87.987       21.540        0.060      340.136       13.949      865.883
01/17/2015  16:37:00       65.620       44.908       24.843       34.726       37.037       31.439     1205.891     1371.715      988.415        0.525        0.178       79.516       17.938        0.051      340.114       13.912      865.903
01/17/2015  16:38:00       28.003       64.489       63.327       41.023       31.610       29.227     1682.862      999.193      854.240        0.624        0.177       70.307       23.786        0.114      340.097       13.882      865.909
01/17/2015  16:39:00       71.647       34.852       43.207       43.039       32.797       28.891     1852.378     1075.662      834.709        0.599        0.188       79.674       22.476        0.080      340.112       13.908      865.915
01/17/2015  16:40:00       49.797       62.038       64.610       36.951       33.814       26.535     1365.382     1143.393      704.118        0.686        0.161       79.551       23.532        0.088      340.086       13.863      865.916
01/17/2015  16:41:00       40.510       72.250       68.902       36.436       30.785       27.862     1327.603      947.729      776.279        0.733        0.153       82.832       28.133        0.115      340.114       13.909      865.908
01/17/2015  16:42:00       73.783       14.806       37.274       52.342       39.512       28.053     2739.716     1561.159      786.948        0.607        0.254       75.254       33.549        0.199      340.090       13.870      865.899
01/17/2015  16:43:00       46.890       51.284       45.486       34.931       30.741       28.875     1220.188      944.999      833.790        0.495        0.150       69.490       24.276        0.122      340.064       13.826      865.884
01/17/2015  16:44:00       39.215       13.520       41.168       47.129       36.918       22.109     2221.136     1362.967      488.800        0.374        0.204       41.480       26.608        0.411      340.061       13.821      865.866
01/17/2015  16:45:00       32.120       47.636       47.838       32.929       29.013       16.063     1084.347      841.744      258.017        0.389        0.109       57.453       10.958        0.036      340.068       13.834      865.859
01/17/2015  16:46:00       57.825       58.727       43.625       50.255       25.654       21.837     2525.561      658.146      476.866        0.618        0.183       82.417       24.068        0.085      340.081       13.856      865.854
01/17/2015  16:47:00       36.424       37.084       25.815       19.444       16.894       21.997      378.085      285.412      483.885        0.226        0.057       51.980       10.672        0.042      340.032       13.771      865.850
01/17/2015  16:48:00       33.147        5.025        7.122       19.616       10.642       12.828      384.790      113.253      164.554        0.092        0.033       33.526        6.883        0.042      339.984       13.693      865.861
01/17/2015  16:49:00        4.554        1.003       -2.565        8.800        5.459        5.353       77.433       29.799       28.656        0.008        0.007        4.663        3.930        0.710      340.014       13.740      865.882
01/17/2015  16:50:00        3.026       -1.824        0.759       10.773       10.981        5.369      116.066      120.582       28.824        0.014        0.013        3.533        4.250        1.447      340.055       13.813      865.893
01/17/2015  16:51:00        9.836       -0.272        1.739        9.745       10.325        6.913       94.968      106.598       47.793        0.017        0.012        9.840        7.108        0.522      340.050       13.800      865.879
01/17/2015  16:52:00       37.352       11.783        6.338       10.967        7.776        6.663      120.269       60.466       44.399        0.090        0.011       39.167        4.932        0.016      340.041       13.789      865.861
01/17/2015  16:53:00       51.886       21.211       12.643       13.551       12.151       13.970      183.621      147.646      195.170        0.191        0.026       56.054       10.725        0.037      340.029       13.767      865.847
01/17/2015  16:54:00       49.347       17.013        7.063       19.148       12.482       12.206      366.649      155.790      148.977        0.172        0.034       52.197        7.701        0.022      339.950       13.636      865.840
01/17/2015  16:55:00       60.991       23.460       24.832       29.171       20.214       24.637      850.948      408.602      606.977        0.338        0.093       65.348       13.799        0.045      339.982       13.689      865.840
01/17/2015  16:56:00       20.153       42.237       46.769       19.840       20.883       14.182      393.621      436.083      201.121        0.270        0.052       46.799       12.257        0.069      339.971       13.670      865.847
01/17/2015  16:57:00       18.758       11.988       35.841       24.152       36.925       19.521      583.343     1363.448      381.059        0.205        0.116       22.262       22.889        1.057      339.965       13.659      865.863
01/17/2015  16:58:00       54.216      -65.466       -1.828       28.707       28.580       21.474      824.084      816.812      461.145        0.466        0.105       85.001       19.806        0.054      340.028       13.768      865.899
01/17/2015  16:59:00       26.692      -32.151        7.894       22.348       28.863       21.099      499.412      833.068      445.167        0.179        0.089       41.787       16.091        0.148      340.033       13.776      865.931
01/17/2015  17:00:00       29.873      -46.811       -1.905       33.008       18.302       16.227     1089.507      334.955      263.316        0.239        0.084       55.530       11.880        0.046      340.038       13.784      865.962
01/17/2015  17:01:00      -13.192      -29.429      -13.848       24.019       13.688       13.378      576.889      187.360      178.983        0.109        0.047       32.251        4.134        0.016      339.848       13.462      866.005
01/17/2015  17:02:00      -23.497      -10.157       -7.125       15.242       11.052        7.252      232.326      122.157       52.597        0.056        0.020       25.598        5.970        0.054      339.794       13.371      866.040
01/17/2015  17:03:00      -28.405       17.995        0.364       11.546        9.594        9.757      133.302       92.036       95.193        0.073        0.016       33.625        8.649        0.066      339.707       13.227      866.067
01/17/2015  17:04:00        1.781        1.099        8.510       14.651        6.133        6.353      214.659       37.608       40.360        0.018        0.015        2.093        8.262       15.583      339.717       13.242      866.084
01/17/2015  17:05:00        7.913        6.751        6.298        5.412        4.079        5.138       29.293       16.634       26.395        0.011        0.004       10.402        1.699        0.027      339.730       13.263      866.073
01/17/2015  17:06:00       12.812        9.007        1.084       17.685       20.278       13.607      312.751      411.192      185.139        0.058        0.045       15.661        9.787        0.391      339.972       13.673      866.052
01/17/2015  17:07:00      -35.777       19.128       13.690       13.464       14.581       14.337      181.266      212.594      205.537        0.122        0.030       40.569        7.282        0.032      339.940       13.617      866.044
01/17/2015  17:08:00      -48.308       33.631       -7.949       16.579       13.424        9.851      274.876      180.192       97.051        0.204        0.028       58.862        4.429        0.006      339.947       13.629      866.025
01/17/2015  17:09:00      -52.068       47.073        0.083       21.860       21.946       15.097      477.869      481.617      227.907        0.306        0.059       70.192       14.501        0.043      339.838       13.446      866.030
01/17/2015  17:10:00      -56.968       63.544      -14.529       16.681       17.089       12.892      278.255      292.022      166.215        0.412        0.037       85.342       11.310        0.018      339.792       13.368      866.024
01/17/2015  17:11:00      -57.222       54.197      -15.281       19.116       16.356       11.640      365.439      267.522      135.482        0.361        0.038       78.815       11.337        0.021      339.593       13.032      866.008
01/17/2015  17:12:00      -48.737       30.670      -13.078       16.931       21.794       10.998      286.674      474.969      120.953        0.218        0.044       57.584        7.130        0.015      339.575       13.002      866.008
01/17/2015  17:13:00      -22.260       -7.305       -3.581        9.160       12.837        9.010       83.901      164.798       81.180        0.045        0.016       23.428        7.446        0.101      339.634       13.104      865.992
01/17/2015  17:14:00       -8.908      -20.319       -4.212       11.147       11.995        5.930      124.260      143.884       35.163        0.041        0.015       22.186        5.863        0.070      339.672       13.165      865.976
01/17/2015  17:15:00        6.922      -24.774        2.470        9.324        7.482        6.374       86.944       55.986       40.629        0.043        0.009       25.723        5.278        0.042      339.751       13.299      865.963
01/17/2015  17:16:00        5.396      -40.984        0.880       19.007       24.840       15.910      361.275      617.041      253.143        0.147        0.062       41.338       15.712        0.144      339.693       13.201      865.949
01/17/2015  17:17:00       12.189       -1.473        7.123       10.662        8.548       14.179      113.671       73.060      201.048        0.029        0.019       12.277        7.238        0.348      339.482       12.846      865.940
01/17/2015  17:18:00       12.799       24.311       33.375       20.729       17.184       16.752      429.688      295.290      280.632        0.144        0.050       27.474       12.876        0.220      339.653       13.133      865.918
01/17/2015  17:19:00        1.513       21.170       35.688       14.360       18.400       18.691      206.198      338.577      349.359        0.131        0.045       21.224       11.837        0.311      339.703       13.218      865.917
01/17/2015  17:20:00      -21.054      -34.866        4.466       27.173       33.461       16.804      738.349     1119.664      282.386        0.191        0.107       40.730       11.456        0.079      339.659       13.144      865.953
01/17/2015  17:21:00      -49.053      -10.888       -4.488       17.697       13.283        8.313      313.189      176.434       69.107        0.155        0.028       50.246        9.222        0.034      339.395       12.700      866.003
01/17/2015  17:22:00      -87.039       38.936       -7.700       39.770       29.992       28.497     1581.642      899.529      812.096        0.622        0.165       95.351       11.036        0.013      339.230       12.422      866.042
01/17/2015  17:23:00     -170.872       44.968      -13.616       56.839       35.251       24.915     3230.704     1242.656      620.738        1.825        0.255      176.690       22.093        0.016      339.123       12.238      866.069
01/17/2015  17:24:00     -170.514       53.731      -12.859       41.119       32.342       19.471     1690.797     1046.036      379.101        1.762        0.156      178.780       14.874        0.007      339.191       12.355      866.085
01/17/2015  17:25:00     -148.319       42.922       -8.978       46.578       23.536       14.164     2169.505      553.964      200.615        1.342        0.146      154.405       14.746        0.009      339.351       12.625      866.074
01/17/2015  17:26:00      -87.580       10.551      -12.386       39.557       26.124       21.604     1564.731      682.453      466.728        0.532        0.136       88.214       19.218        0.047      339.432       12.762      866.067
01/17/2015  17:27:00      -74.770       30.585       -9.973       23.421       24.338       14.577      548.545      592.334      212.486        0.399        0.068       80.783       10.709        0.018      339.471       12.827      866.039
01/17/2015  17:28:00      -64.273       50.230      -10.529       19.463       28.840       12.924      378.805      831.755      167.034        0.407        0.069       81.572        8.716        0.011      339.328       12.586      866.035
01/17/2015  17:29:00      -77.400       54.668      -18.318       22.355       38.132       13.750      499.743     1454.061      189.076        0.573        0.107       94.760       17.582        0.034      339.313       12.561      866.034
01/17/2015  17:30:00      -82.985       27.321      -14.699       18.353       24.699       11.832      336.846      610.035      140.005        0.447        0.054       87.367       12.060        0.019      339.218       12.402      866.063
01/17/2015  17:31:00      -44.549       -8.145       -7.361       16.608       19.423        8.123      275.817      377.249       65.985        0.141        0.036       45.288        7.499        0.027      339.227       12.418      866.102
01/17/2015  17:32:00      -44.519        3.932       -1.947       23.220       15.823       12.002      539.191      250.374      144.045        0.147        0.047       44.692        8.372        0.035      339.204       12.380      866.153
01/17/2015  17:33:00      -68.028       29.173       -8.718       18.163       17.741       13.163      329.906      314.758      173.271        0.319        0.041       74.019        8.228        0.012      339.147       12.279      866.181
01/17/2015  17:34:00      -81.184       22.206      -16.650       14.695       16.603       12.278      215.942      275.672      150.746        0.400        0.032       84.166        8.548        0.010      339.172       12.323      866.197
01/17/2015  17:35:00      -68.851       19.673       -6.109       19.081       18.642       18.640      364.074      347.543      347.435        0.311        0.053       71.606       12.703        0.031      339.255       12.462      866.204
01/17/2015  17:36:00      -85.756       24.792       -9.414       20.238       21.358       12.587      409.561      456.149      158.428        0.454        0.051       89.268       10.271        0.013      339.348       12.618      866.216
01/17/2015  17:37:00      -68.147       -6.885       -9.901       15.053       16.097        7.885      226.600      259.107       62.173        0.267        0.027       68.494        7.180        0.011      339.218       12.402      866.248
01/17/2015  17:38:00      -67.293      -15.479      -11.718       12.391       11.990        8.983      153.534      143.766       80.688        0.264        0.019       69.050        5.834        0.007      339.215       12.396      866.291
01/17/2015  17:39:00      -74.348      -11.688       -6.580       28.560       27.326       15.681      815.692      746.725      245.886        0.376        0.090       75.261       13.812        0.034      339.149       12.284      866.327
01/17/2015  17:40:00     -108.837       15.345       -9.385       34.830       28.354       20.287     1213.100      803.956      411.562        0.730        0.121      109.913       16.457        0.022      339.028       12.081      866.343
01/17/2015  17:41:00     -113.768       52.808      -16.905       22.835       21.946       19.719      521.427      481.638      388.857        0.870        0.070      125.427       16.646        0.018      339.149       12.284      866.357
01/17/2015  17:42:00     -115.326       79.193      -23.172       21.313       24.823       16.029      454.252      616.170      256.936        1.072        0.066      139.898       12.944        0.009      339.332       12.592      866.338
01/17/2015  17:43:00     -108.423       85.503      -23.883       19.056       23.860       11.467      363.136      569.289      131.490        1.035        0.053      138.080       10.706        0.006      339.487       12.854      866.315
01/17/2015  17:44:00      -57.034       91.819      -16.108       19.678       16.113       13.134      387.239      259.619      172.514        0.638        0.041      108.090        9.716        0.008      339.658       13.142      866.281
01/17/2015  17:45:00      -51.899       78.646       -9.097       20.091       18.633       14.807      403.661      347.175      219.241        0.497        0.049       94.227       14.587        0.024      339.737       13.276      866.265
01/17/2015  17:46:00      -61.012       35.224       -8.869       16.230       35.455       12.151      263.423     1257.040      147.652        0.335        0.083       70.450       12.410        0.031      339.526       12.920      866.270
01/17/2015  17:47:00     -100.923      -41.180      -12.727       26.148       28.831       16.639      683.714      831.201      276.854        0.692        0.090      109.001        9.183        0.007      338.884       11.838      866.299
01/17/2015  17:48:00     -103.961      -22.440      -14.465       19.287       11.890       11.860      371.972      141.383      140.655        0.609        0.033      106.355        5.189        0.002      338.892       11.851      866.317
01/17/2015  17:49:00      -48.953      -16.466       -7.985       13.957       11.649        9.891      194.806      135.708       97.824        0.158        0.021       51.648        9.737        0.036      338.898       11.862      866.310
01/17/2015  17:50:00      -53.997      -12.470       -7.325       15.822        5.253        3.979      250.321       27.595       15.831        0.171        0.015       55.418        3.392        0.004      339.178       12.331      866.280
01/17/2015  17:51:00      -88.462      -18.770      -16.159       10.185       11.848        5.870      103.725      140.372       34.461        0.436        0.014       90.432        2.486        0.001      339.157       12.297      866.253
01/17/2015  17:52:00     -150.801      -61.048       -9.634       41.576       22.741       15.043     1728.602      517.164      226.305        1.452        0.124      162.689       16.343        0.010      338.861       11.800      866.245
01/17/2015  17:53:00     -111.327      -33.692       -3.549       37.825       20.922       22.086     1430.768      437.722      487.773        0.795        0.118      116.313       20.674        0.032      338.821       11.732      866.235
01/17/2015  17:54:00      -50.752      -23.928       -2.010       22.860       19.958       14.957      522.567      398.313      223.701        0.215        0.057       56.110        9.615        0.029      338.912       11.885      866.231
01/17/2015  17:55:00      -42.180      -29.790       -8.874       24.239       11.494        9.587      587.529      132.112       91.916        0.178        0.041       51.639        9.587        0.034      338.959       11.966      866.205
01/17/2015  17:56:00      -19.364      -19.218       -5.488       13.705       15.646        8.588      187.826      244.793       73.754        0.064        0.025       27.282        9.101        0.111      339.048       12.113      866.179
01/17/2015  17:57:00      -29.117       12.422       -5.618        8.165        6.797        4.790       66.669       46.204       22.946        0.058        0.007       31.656        5.405        0.029      339.299       12.538      866.132
01/17/2015  17:58:00      -16.438       18.186       -0.634        4.979        3.693        3.971       24.788       13.642       15.767        0.033        0.003       24.513        2.380        0.009      339.729       13.262      866.087
01/17/2015  17:59:00      -73.320       13.899       -6.281       32.906       13.048        6.344     1082.814      170.257       40.242        0.345        0.065       74.626       10.564        0.020      339.302       12.543      866.082
01/17/2015  18:00:00     -162.015        1.811      -17.674       87.333       66.818       29.114     7627.044     4464.690      847.630        1.975        0.647      162.025       35.996        0.049      338.773       11.652      866.084
01/17/2015  18:01:00     -194.769      -11.938      -27.729       39.515       46.135       28.103     1561.469     2128.419      789.766        2.166        0.224      195.134       17.364        0.008      338.650       11.443      866.104
01/17/2015  18:02:00     -147.196      -51.973       -4.661       60.231       65.121       36.277     3627.805     4240.778     1316.043        1.679        0.459      156.102       27.507        0.031      338.671       11.480      866.116
01/17/2015  18:03:00     -100.705      -62.432      -13.642       40.507       34.777       26.417     1640.802     1209.452      697.855        0.889        0.177      118.487       13.922        0.014      338.681       11.497      866.102
01/17/2015  18:04:00     -105.571      -12.840      -13.777       35.097       36.089       22.053     1231.770     1302.415      486.325        0.726        0.151      106.349       18.200        0.029      338.697       11.525      866.075
01/17/2015  18:05:00      -69.399      -38.447       -7.425       26.274       23.000       12.134      690.327      529.018      147.236        0.386        0.068       79.337       10.182        0.016      338.703       11.533      866.052
01/17/2015  18:06:00      -79.073      -30.910        1.006       27.706       11.326       13.271      767.618      128.279      176.116        0.414        0.054       84.900       15.670        0.034      338.838       11.761      866.067
01/17/2015  18:07:00      -64.884      -36.162        1.352       21.299       17.282       10.978      453.650      298.660      120.509        0.320        0.044       74.281       10.213        0.019      338.943       11.938      866.073
01/17/2015  18:08:00      -49.617      -32.349        4.481       28.628       23.815       15.091      819.567      567.157      227.747        0.257        0.081       59.231       13.933        0.055      338.999       12.031      866.084
01/17/2015  18:09:00      -87.744      -48.004       -3.301       42.889       18.808       13.543     1839.450      353.754      183.415        0.620        0.119      100.017       16.132        0.026      339.061       12.136      866.113
01/17/2015  18:10:00     -151.477       -9.325       -5.355       33.923       27.079       21.715     1150.761      733.264      471.544        1.271        0.118      151.764       19.306        0.016      338.906       11.876      866.115
01/17/2015  18:11:00     -171.987        0.629       -7.894       65.264       44.233       27.978     4259.335     1956.560      782.778        1.832        0.350      171.988       27.761        0.026      338.664       11.467      866.116
01/17/2015  18:12:00     -150.197      -29.869       -9.247       69.307       50.740       34.283     4803.497     2574.551     1175.350        1.604        0.428      153.138       39.500        0.067      338.745       11.605      866.112
01/17/2015  18:13:00     -115.673      -32.462        2.697       41.261       50.787       25.577     1702.454     2579.357      654.175        0.969        0.247      120.142       21.190        0.031      338.680       11.494      866.087
01/17/2015  18:14:00     -131.962       11.394       -3.374       48.479       23.646       16.887     2350.185      559.124      285.178        1.037        0.160      132.453       16.036        0.015      338.824       11.739      866.056
01/17/2015  18:15:00      -95.275       14.057       -1.376       37.610       29.668       15.735     1414.476      880.213      247.603        0.591        0.127       96.306       14.247        0.022      338.953       11.954      866.030
01/17/2015  18:16:00      -64.953      -23.643      -10.978       26.520       17.680       10.302      703.320      312.572      106.130        0.301        0.056       69.122        7.357        0.011      339.066       12.143      866.006
01/17/2015  18:17:00      -10.530      -11.868        4.136        6.735       13.041        7.385       45.361      170.058       54.532        0.027        0.013       15.866        5.314        0.112      339.008       12.049      865.980
01/17/2015  18:18:00      -18.603      -33.874        1.669       23.058        9.835        7.659      531.680       96.733       58.659        0.109        0.034       38.646       11.042        0.082      339.140       12.268      865.967
01/17/2015  18:19:00      -63.452      -35.418       -3.391       10.770       10.914        9.336      115.986      119.109       87.165        0.281        0.016       72.668        5.665        0.006      339.199       12.369      866.012
01/17/2015  18:20:00      -65.286      -21.521        0.459       16.059       14.785        9.016      257.901      218.590       81.288        0.264        0.028       68.742        7.397        0.012      338.942       11.936      866.056
01/17/2015  18:21:00      -67.924      -44.987        1.971       28.008       14.576       10.247      784.455      212.450      105.011        0.387        0.055       81.471        6.939        0.007      338.842       11.768      866.095
01/17/2015  18:22:00      -24.964      -20.190        6.044       36.584       19.295       14.790     1338.415      372.303      218.740        0.150        0.096       32.106       15.329        0.228      338.808       11.710      866.142
01/17/2015  18:23:00      -45.277       -9.689        4.462       47.901       16.830       15.199     2294.523      283.244      230.996        0.249        0.140       46.302       22.590        0.238      338.814       11.721      866.161
01/17/2015  18:24:00      -67.689       -4.412       -0.736       31.610       26.750       19.038      999.195      715.541      362.436        0.334        0.104       67.833       14.087        0.043      338.693       11.518      866.178
01/17/2015  18:25:00      -75.926       23.649       -9.565       18.889       15.807       10.811      356.776      249.871      116.880        0.357        0.036       79.523        7.138        0.008      338.763       11.635      866.197
01/17/2015  18:26:00      -11.457       24.754        2.990       20.402       11.226       12.375      416.255      126.021      153.143        0.072        0.035       27.276       14.041        0.265      338.804       11.703      866.208
01/17/2015  18:27:00       19.520       29.263       13.535        5.797        5.518        7.778       33.611       30.453       60.493        0.077        0.006       35.177        4.740        0.018      338.946       11.941      866.211
01/17/2015  18:28:00       17.333       46.585        0.814       11.595       21.002       13.899      134.439      441.100      193.188        0.162        0.038       49.705       15.254        0.094      338.929       11.912      866.227
01/17/2015  18:29:00       -3.124       57.865      -12.906       10.336       13.058        3.782      106.841      170.499       14.307        0.191        0.015       57.949        5.362        0.009      338.986       12.009      866.251
01/17/2015  18:30:00      -39.955       20.068       -5.356       14.592       17.087        8.015      212.925      291.969       64.238        0.130        0.028       44.712        6.790        0.023      338.964       11.974      866.277
01/17/2015  18:31:00      -59.972      -27.857       -9.358       26.050       17.642       14.294      678.589      311.251      204.306        0.283        0.060       66.127       15.787        0.057      338.625       11.403      866.309
01/17/2015  18:32:00      -26.897      -25.194        7.702       37.896       29.632       19.233     1436.103      878.047      369.897        0.205        0.134       36.854       20.929        0.323      338.575       11.318      866.331
01/17/2015  18:33:00      -69.765       -3.377       -1.937       40.302       34.598       16.886     1624.282     1197.018      285.138        0.399        0.155       69.847       19.956        0.082      338.583       11.331      866.315
01/17/2015  18:34:00      -48.207       19.961       -5.429       31.987       23.345       12.816     1023.169      544.969      164.256        0.224        0.087       52.177       15.949        0.093      338.601       11.362      866.275
01/17/2015  18:35:00       -6.764        5.896       -3.581        6.665        8.574        6.846       44.417       73.505       46.863        0.013        0.008        8.973        4.130        0.212      338.715       11.554      866.233
01/17/2015  18:36:00      -46.162        7.114       -5.275       22.810       21.546        7.991      520.291      464.247       63.858        0.163        0.052       46.707       10.057        0.046      338.925       11.908      866.231
01/17/2015  18:37:00      -71.332      -26.232       -5.377       15.904       18.289        8.336      252.936      334.479       69.482        0.323        0.033       76.002        4.626        0.004      338.846       11.775      866.282
01/17/2015  18:38:00      -99.778      -43.272       -2.052       41.908       16.871       12.776     1756.284      284.632      163.221        0.702        0.110      108.758       13.885        0.016      338.578       11.325      866.320
01/17/2015  18:39:00      -52.524      -14.281        3.721       38.099       22.863       18.952     1451.562      522.708      359.190        0.265        0.117       54.431       22.573        0.172      338.562       11.299      866.349
01/17/2015  18:40:00      -70.454      -21.638       -3.861       21.262       10.586       10.871      452.054      112.066      118.174        0.306        0.034       73.702        8.072        0.012      338.664       11.469      866.368
01/17/2015  18:41:00      -71.566        5.107       -6.323       10.797       13.385        9.084      116.573      179.168       82.511        0.278        0.019       71.748        6.483        0.008      338.699       11.528      866.385
01/17/2015  18:42:00      -68.239       19.532       -9.463       11.194       11.052        7.392      125.295      122.157       54.649        0.271        0.015       70.979        5.524        0.006      338.739       11.595      866.382
01/17/2015  18:43:00      -80.883       46.164      -14.751        9.796       10.972        7.247       95.954      120.378       52.517        0.458        0.013       93.130        4.391        0.002      338.951       11.952      866.366
01/17/2015  18:44:00     -102.089       47.808      -18.628       13.098       16.617       11.258      171.563      276.120      126.746        0.681        0.029      112.729        7.807        0.005      338.976       11.993      866.375
01/17/2015  18:45:00     -183.194       35.766      -12.032       81.489       34.974       24.371     6640.502     1223.191      593.945        2.172        0.423      186.653       26.223        0.020      338.594       11.349      866.384
01/17/2015  18:46:00     -134.087      -17.353      -13.200       51.148       35.069       26.349     2616.086     1229.854      694.280        1.150        0.227      135.206       26.619        0.039      338.370       10.975      866.396
01/17/2015  18:47:00      -90.040      -22.731      -13.043       51.887       38.477       30.124     2692.257     1480.459      907.467        0.694        0.254       92.864       32.425        0.122      338.393       11.013      866.399
01/17/2015  18:48:00      -90.492      -31.391       -9.680       34.883       25.174       22.013     1216.803      633.710      484.576        0.580        0.117       95.782       18.752        0.038      338.336       10.919      866.413
01/17/2015  18:49:00      -70.388      -40.170        0.940       56.541       36.552       22.939     3196.930     1336.047      526.191        0.581        0.253       81.044       24.812        0.094      338.293       10.846      866.429
01/17/2015  18:50:00     -132.863      -50.066       -6.974       23.952       26.859       19.633      573.702      721.413      385.440        1.094        0.084      141.983       17.479        0.015      338.190       10.672      866.437
01/17/2015  18:51:00     -108.461      -11.664       -8.624       49.713       36.505       23.431     2471.366     1332.592      549.022        0.816        0.218      109.086       24.807        0.052      338.149       10.604      866.435
01/17/2015  18:52:00     -130.288        6.888      -11.301       40.663       24.159       17.154     1653.485      583.653      294.245        0.984        0.127      130.470       20.611        0.025      338.176       10.649      866.431
01/17/2015  18:53:00     -108.753       -1.325       -6.877       40.806       26.416       20.162     1665.110      697.821      406.491        0.732        0.138      108.761       22.675        0.043      338.249       10.772      866.418
01/17/2015  18:54:00      -85.943      -16.454      -10.214       29.138       31.503       18.418      849.001      992.408      339.224        0.497        0.109       87.504        7.047        0.006      338.217       10.717      866.401
01/17/2015  18:55:00     -101.422      -25.547       -1.640       46.105       37.942       17.219     2125.676     1439.580      296.498        0.740        0.193      104.590       16.162        0.024      338.167       10.634      866.397
01/17/2015  18:56:00     -142.602       -4.012      -12.419       25.376       28.866       20.291      643.939      833.250      411.709        1.120        0.094      142.658       16.544        0.013      338.202       10.691      866.406
01/17/2015  18:57:00     -148.801       18.642      -14.798       29.710       31.144       19.418      882.682      969.940      377.067        1.247        0.111      149.964       15.205        0.010      338.190       10.673      866.405
01/17/2015  18:58:00     -106.775       19.947      -11.786       33.550       23.667       17.053     1125.578      560.126      290.817        0.696        0.099      108.622       15.088        0.019      338.190       10.672      866.398
01/17/2015  18:59:00      -70.689       29.647       -8.759       19.492       21.349       15.011      379.957      455.794      225.316        0.351        0.053       76.654        5.423        0.005      338.407       11.038      866.398
01/17/2015  19:00:00      -63.261       26.971      -17.366       21.195       21.194       15.291      449.216      449.183      233.821        0.308        0.057       68.770        9.903        0.021      338.547       11.273      866.393
01/17/2015  19:01:00      -66.513       26.864      -13.787       24.051       24.433       16.419      578.454      596.962      269.584        0.339        0.072       71.733       11.996        0.028      338.522       11.229      866.369
01/17/2015  19:02:00     -150.200       29.527      -17.073       42.785       45.906       26.839     1830.556     2107.334      720.337        1.419        0.233      153.075       19.324        0.016      338.381       10.994      866.338
01/17/2015  19:03:00     -154.086       26.790      -19.303       39.433       32.500       22.521     1554.976     1056.233      507.184        1.398        0.156      156.398       10.722        0.005      338.379       10.989      866.315
01/17/2015  19:04:00     -109.523       39.970      -17.284       27.540       33.792       18.602      758.436     1141.873      346.033        0.807        0.112      116.588       12.973        0.012      338.378       10.988      866.291
01/17/2015  19:05:00      -76.020       46.225      -16.241       30.303       44.454       19.740      918.254     1976.176      389.651        0.573        0.164       88.971       19.891        0.050      338.720       11.563      866.282
01/17/2015  19:06:00      -45.094       -6.251       -7.238       26.256       26.901       13.629      689.370      723.673      185.762        0.186        0.080       45.526       13.528        0.088      338.584       11.333      866.282
01/17/2015  19:07:00      -37.518        9.578       -9.071       24.000       20.357       10.077      576.021      414.414      101.552        0.134        0.055       38.721       10.303        0.071      338.669       11.477      866.260
01/17/2015  19:08:00      -21.074       20.700       -6.723       14.459       10.514        6.601      209.060      110.551       43.570        0.064        0.018       29.540        5.929        0.040      338.838       11.762      866.228
01/17/2015  19:09:00       -0.470       60.366       -6.840        7.462       15.304        7.570       55.684      234.203       57.309        0.202        0.017       60.368        3.487        0.003      338.985       12.008      866.224
01/17/2015  19:10:00        3.310       30.027       -3.739       10.223       18.688        8.464      104.516      349.245       71.642        0.073        0.026       30.208        7.562        0.063      338.827       11.742      866.222
01/17/2015  19:11:00      -52.355      -20.916       -5.904       32.098       28.251        7.670     1030.299      798.101       58.826        0.255        0.094       56.378       10.841        0.037      338.703       11.534      866.236
01/17/2015  19:12:00     -118.396      -52.472        1.812       38.747       29.107       16.533     1501.327      847.197      273.326        0.970        0.131      129.503       15.056        0.014      338.404       11.032      866.268
01/17/2015  19:13:00     -138.460      -40.489       -6.581       40.745       33.656       17.112     1660.158     1132.742      292.828        1.197        0.154      144.259       16.080        0.012      338.388       11.006      866.306
01/17/2015  19:14:00     -133.285        7.083      -10.946       30.717       28.287       17.054      943.555      800.155      290.851        0.998        0.102      133.473       16.108        0.015      338.594       11.352      866.304
01/17/2015  19:15:00      -87.945       58.276      -17.772       27.571       47.041       14.392      760.156     2212.894      207.132        0.731        0.159      105.501       16.890        0.026      338.771       11.649      866.283
01/17/2015  19:16:00        7.161       35.022       -7.599       33.752       13.613       11.216     1139.189      185.327      125.800        0.139        0.073       35.746       11.330        0.100      338.945       11.941      866.257
01/17/2015  19:17:00       46.705        7.796        6.858       18.728       16.443       19.736      350.736      270.382      389.517        0.165        0.051       47.351       11.841        0.063      338.752       11.618      866.229
01/17/2015  19:18:00       12.250      -23.427       -1.949       14.188       23.819       16.296      201.295      567.342      265.557        0.087        0.052       26.436       16.137        0.373      338.608       11.374      866.216
01/17/2015  19:19:00      -29.103      -26.921       -3.924       44.226       18.901       14.321     1955.973      357.240      205.102        0.205        0.126       39.645        8.464        0.046      338.689       11.511      866.216
01/17/2015  19:20:00     -107.996      -45.582       -2.502       23.929       25.350       15.560      572.601      642.622      242.103        0.760        0.073      117.221        9.036        0.006      338.454       11.117      866.231
01/17/2015  19:21:00     -167.659      -64.392        4.296       59.261       44.513       30.213     3511.837     1981.449      912.819        1.934        0.320      179.599       24.006        0.018      338.410       11.043      866.260
01/17/2015  19:22:00     -156.553      -34.919       -3.386       44.879       33.294       23.478     2014.127     1108.498      551.212        1.471        0.184      160.400       20.927        0.017      338.487       11.171      866.290
01/17/2015  19:23:00      -39.815       -2.010        5.609       34.273       15.210        8.908     1174.613      231.342       79.358        0.155        0.074       39.866        9.012        0.051      338.472       11.147      866.270
01/17/2015  19:24:00      -35.358       13.198       -9.646       18.015       14.563        9.837      324.527      212.067       96.772        0.108        0.032       37.741        8.440        0.050      338.518       11.224      866.250
01/17/2015  19:25:00      -52.365        7.419      -11.020       16.304       23.096       12.581      265.820      533.414      158.283        0.194        0.048       52.888        6.599        0.016      338.695       11.520      866.248
01/17/2015  19:26:00       -8.762      -49.609      -11.309       30.287       23.175       11.342      917.313      537.058      128.643        0.212        0.079       50.377       10.270        0.042      338.653       11.451      866.267
01/17/2015  19:27:00      -35.118      -56.545        9.015       59.574       47.232       29.229     3549.019     2230.897      854.335        0.557        0.332       66.562       23.949        0.129      338.557       11.289      866.301
01/17/2015  19:28:00     -105.458      -82.776       -8.762       41.394       43.547       28.777     1713.483     1896.299      828.122        1.124        0.222      134.064       13.891        0.011      338.545       11.270      866.303
01/17/2015  19:29:00      -97.178      -40.406        0.553       32.941       33.945       16.243     1085.139     1152.263      263.826        0.679        0.125      105.244       17.111        0.026      338.583       11.333      866.292
01/17/2015  19:30:00      -62.691      -34.533       -5.540       31.569       29.788       15.811      996.592      887.309      249.974        0.364        0.107       71.573       13.484        0.035      338.496       11.188      866.277
01/17/2015  19:31:00      -62.979      -32.175       -1.188       25.735       24.175       12.590      662.295      584.418      158.511        0.320        0.070       70.722       13.272        0.035      338.462       11.129      866.271
01/17/2015  19:32:00      -90.863      -33.455        2.174       36.597       23.954       16.589     1339.367      573.792      275.181        0.578        0.109       96.826       19.737        0.042      338.437       11.087      866.279
01/17/2015  19:33:00     -105.251      -47.347      -16.842       30.349       22.395       19.616      921.078      501.532      384.805        0.770        0.090      115.410       16.087        0.019      338.378       10.988      866.287
01/17/2015  19:34:00     -103.158      -55.318       -7.423       14.884       14.199       10.342      221.526      201.606      106.955        0.714        0.027      117.054        7.719        0.004      338.367       10.971      866.294
01/17/2015  19:35:00     -106.284      -61.394       -5.299       25.218       13.966       16.460      635.959      195.046      270.931        0.810        0.055      122.742       14.939        0.015      338.313       10.879      866.295
01/17/2015  19:36:00     -162.427      -70.069       -9.904       25.335       25.042       15.061      641.844      627.123      226.819        1.644        0.075      176.896       13.181        0.006      338.302       10.860      866.308
01/17/2015  19:37:00      -98.018      -73.718        9.243       51.911       44.464       30.177     2694.802     1977.048      910.656        1.035        0.279      122.646       24.795        0.041      338.254       10.780      866.336
01/17/2015  19:38:00     -103.880      -68.686        1.872       47.559       42.871       27.355     2261.903     1837.897      748.314        1.018        0.242      124.534       22.148        0.032      338.344       10.931      866.377
01/17/2015  19:39:00      -93.086      -62.280      -10.927       26.559       28.081       21.178      705.368      788.569      448.493        0.730        0.097      112.000       11.543        0.011      338.398       11.022      866.402
01/17/2015  19:40:00      -54.386      -70.062       -3.112       31.946       26.109       16.382     1020.529      681.661      268.355        0.492        0.099       88.694       12.887        0.021      338.452       11.113      866.419
01/17/2015  19:41:00      -62.401      -88.889       -5.178       32.812       32.856       14.622     1076.658     1079.507      213.791        0.710        0.118      108.606        4.079        0.001      338.589       11.344      866.444
01/17/2015  19:42:00      -34.098      -55.570        8.101       38.635       33.307       23.466     1492.675     1109.378      550.655        0.373        0.158       65.197       21.150        0.105      338.733       11.585      866.452
01/17/2015  19:43:00      -70.459      -55.200        4.100       49.833       33.139       22.786     2483.367     1098.198      519.198        0.606        0.205       89.507       15.539        0.030      338.560       11.295      866.457
01/17/2015  19:44:00     -129.462      -89.469       -2.815       64.608       42.130       33.793     4174.185     1774.960     1141.959        1.593        0.355      157.369       29.055        0.034      338.360       10.958      866.466
01/17/2015  19:45:00      -89.702      -23.871        2.836       44.141       35.367       25.347     1948.451     1250.816      642.457        0.623        0.192       92.824       19.248        0.043      338.271       10.808      866.455
01/17/2015  19:46:00      -59.448       -0.971       -7.536       26.036       19.300       11.536      677.866      372.508      133.084        0.239        0.059       59.456        6.210        0.011      338.263       10.796      866.427
01/17/2015  19:47:00      -45.269       30.173      -10.700       26.702       35.622       14.668      712.999     1268.924      215.143        0.264        0.110       54.403       19.000        0.122      338.393       11.015      866.424
01/17/2015  19:48:00      -78.106       -8.369       -7.307       27.432       29.939       10.399      752.494      896.342      108.140        0.399        0.088       78.553        8.372        0.011      338.389       11.007      866.457
01/17/2015  19:49:00      -68.342      -61.385       -4.655       43.443       32.001       29.226     1887.265     1024.070      854.154        0.611        0.188       91.863       17.590        0.037      338.179       10.655      866.499
01/17/2015  19:50:00      -81.991      -63.044       -7.380       51.890       36.842       24.115     2692.584     1357.314      581.530        0.769        0.232      103.427       23.352        0.051      338.104       10.529      866.531
01/17/2015  19:51:00        1.066      -41.550       13.548       30.571       28.636       16.535      934.575      820.045      273.399        0.197        0.101       41.563       15.749        0.144      338.144       10.596      866.520
01/17/2015  19:52:00       43.889       27.917       29.045       49.719       29.981       30.265     2472.023      898.872      915.943        0.392        0.214       52.016       32.706        0.395      338.058       10.451      866.448
01/17/2015  19:53:00       -2.513        9.909        9.387       26.378       17.391       21.375      695.782      302.460      456.905        0.082        0.073       10.223       18.878        3.410      338.211       10.707      866.438
01/17/2015  19:54:00      -52.378       -3.224       -5.236       18.474       11.003        7.338      341.284      121.057       53.845        0.165        0.026       52.477        8.344        0.025      338.366       10.967      866.463
01/17/2015  19:55:00      -17.031       -5.115        1.979       19.957       12.003       10.542      398.300      144.083      111.123        0.049        0.033       17.782       12.506        0.495      338.139       10.588      866.478
01/17/2015  19:56:00       36.032        5.395        6.852       21.715        9.337       10.000      471.552       87.184       99.990        0.102        0.033       36.434       11.255        0.095      338.157       10.618      866.473
01/17/2015  19:57:00       58.039       76.392       23.364       27.821       34.420       35.807      774.030     1184.741     1282.151        0.649        0.162       95.939       28.813        0.090      338.264       10.797      866.471
01/17/2015  19:58:00       65.905       64.113       41.330       28.473       22.993       29.395      810.699      528.685      864.091        0.618        0.110       91.945       12.483        0.018      338.272       10.810      866.456
01/17/2015  19:59:00       19.547       58.112       -0.129       47.599       21.275       21.905     2265.696      452.627      479.830        0.348        0.160       61.311       24.005        0.153      338.190       10.673      866.465
01/17/2015  20:00:00     -109.394       78.864      -25.071       21.714       21.099       13.176      471.486      445.186      173.620        0.995        0.055      134.857       11.205        0.007      338.088       10.501      866.488
01/17/2015  20:01:00      -82.903       38.942      -17.564       16.767       19.608       11.385      281.121      384.492      129.614        0.475        0.040       91.594        8.685        0.009      338.117       10.550      866.491
01/17/2015  20:02:00      -63.621       -9.019       -9.327       15.603       14.725        9.264      243.458      216.840       85.831        0.238        0.027       64.257        8.079        0.016      338.060       10.456      866.489
01/17/2015  20:03:00     -100.636      -34.974       -6.069       24.161       27.151       14.908      583.745      737.181      222.260        0.647        0.077      106.540       12.955        0.015      337.956       10.282      866.500
01/17/2015  20:04:00      -51.405      -42.520        0.641       40.874       19.654       14.781     1670.688      386.289      218.489        0.336        0.114       66.712       15.030        0.051      337.909       10.202      866.495
01/17/2015  20:05:00        8.056      -18.202        9.019       10.938       19.333       10.412      119.646      373.783      108.414        0.054        0.030       19.905       10.568        0.282      337.990       10.340      866.458
01/17/2015  20:06:00       48.833       16.819       16.430       28.492       16.051       18.988      811.795      257.625      360.551        0.218        0.071       51.648       16.901        0.107      338.159       10.621      866.422
01/17/2015  20:07:00       29.774       34.977       41.344       36.512       26.096       20.476     1333.115      680.979      419.268        0.313        0.122       45.934       21.894        0.227      338.082       10.493      866.404
01/17/2015  20:08:00       92.679       28.994       23.228       43.820       29.917       28.802     1920.233      895.030      829.533        0.681        0.182       97.109       20.892        0.046      337.996       10.347      866.400
01/17/2015  20:09:00       92.368       41.561       -2.364       46.244       32.319       25.822     2138.483     1044.509      666.754        0.706        0.192      101.287       16.659        0.027      337.885       10.161      866.406
01/17/2015  20:10:00       68.439       19.908        6.030       30.537       27.649       17.275      932.484      764.490      298.423        0.356        0.100       71.276       14.907        0.044      337.771        9.971      866.429
01/17/2015  20:11:00       31.752       18.505        8.709       27.425       18.558       19.454      752.125      344.411      378.446        0.145        0.074       36.751        7.773        0.045      337.797       10.014      866.438
01/17/2015  20:12:00        1.148       -2.370        9.183       25.293       14.046       12.540      639.745      197.293      157.252        0.054        0.050        2.634        8.169        9.619      337.714        9.876      866.448
01/17/2015  20:13:00      -10.065      -11.926       -3.835        8.767       12.359       10.704       76.867      152.734      114.584        0.030        0.017       15.606        8.298        0.283      337.767        9.964      866.457
01/17/2015  20:14:00      -12.973       15.521        2.721        9.397       11.503        7.659       88.302      132.325       58.657        0.035        0.014       20.229        5.686        0.079      337.916       10.216      866.464
01/17/2015  20:15:00        4.668       44.557        3.379        8.107       10.959        8.698       65.730      120.096       75.652        0.114        0.013       44.801        7.707        0.030      337.896       10.179      866.461
01/17/2015  20:16:00       41.422       75.716       -3.913       17.062       19.152       13.654      291.118      366.782      186.440        0.415        0.042       86.306       12.344        0.020      337.838       10.082      866.444
01/17/2015  20:17:00        9.209       60.354      -16.167       28.449       26.972       15.611      809.350      727.486      243.695        0.288        0.089       61.053       14.020        0.053      337.737        9.913      866.443
01/17/2015  20:18:00      -33.378       55.537      -13.169       25.908       36.511       14.113      671.249     1333.019      199.187        0.329        0.110       64.796       19.628        0.092      337.869       10.134      866.467
01/17/2015  20:19:00        4.256       49.230       -8.804        9.265       11.718        8.113       85.837      137.312       65.823        0.140        0.014       49.413        4.202        0.007      338.093       10.510      866.468
01/17/2015  20:20:00        1.439       50.371       -9.170        6.727       11.150        8.096       45.258      124.316       65.541        0.143        0.012       50.391        3.282        0.004      338.115       10.547      866.474
01/17/2015  20:21:00      -23.666       64.044      -12.451       20.808       13.393        8.433      432.978      179.364       71.111        0.275        0.034       68.277        4.778        0.005      338.110       10.540      866.493
01/17/2015  20:22:00      -51.771        3.434       -6.256       11.297       26.189        9.523      127.627      685.886       90.685        0.182        0.045       51.885        8.790        0.029      337.890       10.170      866.542
01/17/2015  20:23:00      -21.599      -20.909       -8.238       17.085        8.158        9.927      291.895       66.557       98.551        0.071        0.023       30.062        7.022        0.055      337.704        9.856      866.563
01/17/2015  20:24:00      -29.681      -29.494       -3.679       11.868        5.774        5.292      140.846       33.345       28.005        0.098        0.010       41.844        4.205        0.010      337.871       10.137      866.569
01/17/2015  20:25:00      -35.470      -19.415       -5.234       10.916       11.189        7.768      119.167      125.203       60.341        0.098        0.015       40.435        7.570        0.035      337.892       10.173      866.590
01/17/2015  20:26:00      -54.991       -6.285      -12.933       12.299       11.124        7.748      151.266      123.754       60.027        0.178        0.017       55.349        4.898        0.008      337.770        9.966      866.562
01/17/2015  20:27:00      -97.212       18.173      -19.093       19.740       24.759       12.828      389.650      613.001      164.552        0.566        0.058       98.896        9.030        0.008      337.646        9.761      866.553
01/17/2015  20:28:00      -49.918       -3.996       -4.844       33.939       36.987       19.057     1151.840     1368.035      363.179        0.271        0.144       50.077       18.404        0.135      337.621        9.719      866.564
01/17/2015  20:29:00      -35.583        5.985       -3.864       27.861       20.980       17.724      776.222      440.152      314.144        0.142        0.077       36.083       10.306        0.082      337.706        9.860      866.574
01/17/2015  20:30:00       -9.776        3.718       -2.529       12.542       10.378       10.599      157.292      107.694      112.340        0.025        0.019       10.459        8.727        0.696      337.939       10.253      866.585
01/17/2015  20:31:00       36.567        8.224        1.677        8.982        7.338        6.664       80.669       53.846       44.407        0.079        0.009       37.480        4.579        0.015      338.203       10.695      866.572
01/17/2015  20:32:00       21.238       24.939        4.948        7.891        5.316        4.589       62.260       28.256       21.056        0.060        0.006       32.757        2.368        0.005      338.248       10.769      866.568
01/17/2015  20:33:00       -3.077       10.994        2.994       15.742       13.208        7.561      247.818      174.456       57.167        0.031        0.024       11.416        6.882        0.363      338.443       11.097      866.571
01/17/2015  20:34:00      -55.537       -6.131      -11.024       11.950        9.619        7.606      142.803       92.522       57.847        0.177        0.015       55.874        5.409        0.009      337.798       10.016      866.573
01/17/2015  20:35:00      -43.576      -28.320       -3.269       19.964        8.445       12.871      398.549       71.316      165.672        0.167        0.032       51.970       11.890        0.052      337.622        9.720      866.573
01/17/2015  20:36:00      -11.459      -24.259       -0.639       14.011        9.497        6.121      196.298       90.198       37.466        0.052        0.016       26.829        7.406        0.076      337.702        9.855      866.566
01/17/2015  20:37:00        4.133      -18.551       -1.849        8.991        8.141        3.526       80.841       66.273       12.432        0.026        0.008       19.006        2.971        0.024      337.901       10.188      866.571
01/17/2015  20:38:00      -53.833      -29.466       -9.148       15.962       10.275        5.827      254.799      105.574       33.948        0.212        0.020       61.369        5.428        0.008      337.767        9.965      866.590
01/17/2015  20:39:00      -64.663      -45.511      -14.943       14.975       10.203       10.663      224.242      104.110      113.692        0.346        0.022       79.073        3.893        0.002      337.671        9.802      866.623
01/17/2015  20:40:00      -98.027      -60.233      -11.882       14.271       17.592       11.595      203.652      309.466      134.449        0.701        0.032      115.054        4.728        0.002      337.607        9.695      866.646
01/17/2015  20:41:00      -94.922      -33.309       -8.998       15.238       21.966       11.080      232.210      482.490      122.769        0.552        0.042      100.596        3.067        0.001      337.683        9.824      866.639
01/17/2015  20:42:00      -47.861        3.871       -6.609       18.067       11.837        6.217      326.430      140.123       38.655        0.143        0.025       48.018        5.567        0.013      337.736        9.912      866.615
01/17/2015  20:43:00      -21.809        3.529      -10.652       13.596       11.887        6.390      184.854      141.302       40.836        0.048        0.018       22.093        5.476        0.061      338.219       10.720      866.605
01/17/2015  20:44:00      -51.507       13.759       -9.054       18.075        9.637        6.380      326.694       92.877       40.704        0.169        0.023       53.313        6.556        0.015      338.094       10.512      866.626
01/17/2015  20:45:00     -136.174      -21.706      -17.546       42.747       35.680       13.609     1827.282     1273.028      185.196        1.130        0.164      137.893       14.379        0.011      337.602        9.686      866.663
01/17/2015  20:46:00     -199.971      -65.148      -14.153       46.456       55.175       26.725     2158.180     3044.310      714.245        2.517        0.296      210.316       17.106        0.007      337.291        9.162      866.701
01/17/2015  20:47:00      -22.749      -15.662        5.957       80.367       23.204       20.470     6458.830      538.428      419.004        0.411        0.371       27.619       25.640        0.862      337.453        9.437      866.689
01/17/2015  20:48:00       32.963       21.381       34.995       32.790       26.099       24.059     1075.166      681.164      578.815        0.255        0.117       39.290       26.622        0.459      337.452        9.436      866.634
01/17/2015  20:49:00       -8.508       34.168       48.620       20.354       33.903       24.865      414.304     1149.404      618.262        0.289        0.109       35.211       24.176        0.471      337.719        9.883      866.617
01/17/2015  20:50:00      -51.175      -33.416      -10.955       35.561       27.302       17.977     1264.552      745.386      323.157        0.309        0.117       61.118       13.260        0.047      337.904       10.194      866.639
01/17/2015  20:51:00     -124.370      -10.172       -6.165       45.552       30.112       24.393     2074.994      906.726      595.026        0.959        0.179      124.785       21.256        0.029      337.328        9.228      866.662
01/17/2015  20:52:00     -157.599      -11.151       -6.289       36.721       32.736       26.714     1348.454     1071.665      713.656        1.407        0.157      157.993       22.476        0.020      337.526        9.560      866.642
01/17/2015  20:53:00     -100.021       22.499      -12.141       38.720       17.902       13.810     1499.257      320.494      190.710        0.633        0.101      102.520       13.918        0.018      337.605        9.692      866.593
01/17/2015  20:54:00      -49.308       19.345       -8.619       22.086       13.562       13.513      487.781      183.920      182.589        0.187        0.043       52.967       12.002        0.051      337.907       10.199      866.554
01/17/2015  20:55:00       16.065       23.697       -3.859       19.025        9.793       13.441      361.943       95.909      180.663        0.074        0.032       28.629       12.549        0.192      338.302       10.862      866.554
01/17/2015  20:56:00       31.561       15.050        1.405       13.235       12.523        7.839      175.173      156.815       61.445        0.081        0.020       34.966        4.247        0.015      338.503       11.198      866.589
01/17/2015  20:57:00      -10.503        1.524       -4.086       39.028        7.151        6.950     1523.180       51.142       48.305        0.088        0.081       10.613       11.505        1.175      338.337       10.919      866.601
01/17/2015  20:58:00     -150.951      -20.722      -20.359       45.703       30.718       17.414     2088.804      943.571      303.242        1.348        0.167      152.367        8.356        0.003      337.340        9.248      866.604
01/17/2015  20:59:00     -164.243      -34.491      -13.928       59.592       39.102       26.816     3551.215     1528.931      719.101        1.708        0.290      167.826       29.809        0.032      337.330        9.229      866.623
01/17/2015  21:00:00      -11.847      -30.036        1.907       49.893       19.564       16.994     2489.356      382.734      288.798        0.210        0.158       32.288        9.067        0.079      337.561        9.617      866.638
01/17/2015  21:01:00       36.077       -7.225        5.084       36.378       26.309       24.005     1323.380      692.154      576.249        0.199        0.130       36.794       24.179        0.432      337.595        9.676      866.625
01/17/2015  21:02:00      -17.765        4.500        3.844       13.308       15.446       14.801      177.092      238.571      219.075        0.049        0.032       18.326       13.107        0.512      338.012       10.374      866.621
01/17/2015  21:03:00      -75.707       17.080      -17.703       29.997       38.436       15.251      899.791     1477.347      232.578        0.447        0.130       77.610       14.739        0.036      338.028       10.402      866.637
01/17/2015  21:04:00     -140.000       28.095      -12.329       50.958       41.257       26.153     2596.718     1702.162      683.976        1.276        0.249      142.791       25.035        0.031      337.826       10.061      866.652
01/17/2015  21:05:00      -51.383       20.232        2.970       40.341       37.498       19.669     1627.427     1406.105      386.876        0.324        0.171       55.223       18.603        0.113      337.834       10.076      866.664
01/17/2015  21:06:00       22.172      -20.328       -3.280       19.468       24.801       10.456      379.014      615.105      109.338        0.101        0.055       30.080       12.770        0.180      338.037       10.416      866.661
01/17/2015  21:07:00        4.047      -13.287        0.079       32.450       30.473       23.537     1052.995      928.614      554.004        0.136        0.127       13.889       26.885        3.747      338.343       10.930      866.684
01/17/2015  21:08:00     -141.961      -47.871       -4.315       62.466       38.073       26.937     3902.040     1449.522      725.581        1.427        0.304      149.815       31.352        0.044      337.690        9.833      866.709
01/17/2015  21:09:00     -129.624      -50.333        1.624       92.994       37.463       27.310     8647.953     1403.488      745.821        1.507        0.540      139.054       31.755        0.052      337.409        9.364      866.747
01/17/2015  21:10:00       19.297       11.716       22.076       13.418       17.826       12.508      180.031      317.761      156.453        0.083        0.033       22.575        8.724        0.149      337.497        9.511      866.730
01/17/2015  21:11:00       16.894       -7.836       -6.252       23.115       24.200       15.431      534.283      585.619      238.118        0.087        0.068       18.623       13.458        0.522      337.744        9.925      866.716
01/17/2015  21:12:00       -0.780      -29.818       -1.720       12.518       32.830       14.192      156.701     1077.780      201.408        0.116        0.072       29.828       17.509        0.345      338.109       10.537      866.728
01/17/2015  21:13:00      -48.898        8.280       -5.227       13.700        9.120        9.712      187.700       83.183       94.320        0.143        0.018       49.594        7.831        0.025      338.139       10.587      866.721
01/17/2015  21:14:00       -9.448        2.686        4.837       16.344        6.893        9.707      267.138       47.507       94.224        0.026        0.020        9.823       11.233        1.308      337.993       10.341      866.716
01/17/2015  21:15:00      -77.754      -61.436      -13.316       52.077       27.455       13.337     2712.046      753.788      177.884        0.682        0.182       99.097       18.209        0.034      337.780        9.987      866.761
01/17/2015  21:16:00     -100.175      -75.802       -1.170       55.476       38.790       18.706     3077.596     1504.637      349.928        1.036        0.247      125.622       25.906        0.043      337.398        9.344      866.800
01/17/2015  21:17:00      -71.944       28.944       -6.965       21.854       26.854       16.704      477.599      721.114      279.029        0.377        0.074       77.548       17.820        0.053      337.698        9.847      866.745
01/17/2015  21:18:00      -56.153       77.084      -15.894       52.922       17.311       18.065     2800.734      299.687      326.328        0.639        0.171       95.368       25.019        0.069      338.060       10.455      866.676
01/17/2015  21:19:00       16.575       46.191       -5.182       18.221       26.361       13.315      332.020      694.879      177.286        0.182        0.060       49.075       13.621        0.077      338.079       10.488      866.650
01/17/2015  21:20:00       31.601      -20.176       -6.801       12.413       15.926       11.324      154.092      253.642      128.228        0.099        0.027       37.493        8.349        0.050      338.016       10.380      866.695
01/17/2015  21:21:00      -33.974      -17.592       -7.486       47.463       21.677       11.830     2252.754      469.912      139.956        0.219        0.143       38.259       16.355        0.183      338.115       10.548      866.741
01/17/2015  21:22:00      -96.124       12.772      -10.881       33.463       20.411       17.803     1119.756      416.612      316.940        0.569        0.093       96.969       19.136        0.039      337.394        9.338      866.778
01/17/2015  21:23:00      -91.001       30.020       -8.370       21.049       18.962       11.272      443.041      359.552      127.061        0.509        0.046       95.825        9.381        0.010      337.518        9.545      866.770
01/17/2015  21:24:00      -57.307       63.188      -15.182       24.338       23.732       13.779      592.321      563.193      189.850        0.443        0.067       85.304       10.559        0.015      337.718        9.882      866.737
01/17/2015  21:25:00      -26.340       73.813      -17.244       26.016       18.477       10.497      676.831      341.393      110.197        0.378        0.056       78.372       13.311        0.029      338.270       10.807      866.681
01/17/2015  21:26:00      -33.599       29.542      -12.978       11.514       35.749        5.894      132.572     1277.956       34.739        0.181        0.072       44.739        9.616        0.046      338.431       11.077      866.695
01/17/2015  21:27:00      -52.282      -34.545       -9.411       12.784       12.952        6.573      163.432      167.756       43.205        0.219        0.019       62.664        5.386        0.007      337.898       10.183      866.746
01/17/2015  21:28:00      -75.503        4.933       -8.983       21.562       16.370       14.933      464.904      267.966      222.989        0.338        0.048       75.664        2.795        0.001      337.408        9.363      866.749
01/17/2015  21:29:00       -9.418       -7.025       -5.688       20.241       12.682        6.696      409.703      160.839       44.840        0.039        0.031       11.749        9.733        0.686      337.893       10.175      866.732
01/17/2015  21:30:00       15.246       25.528        4.337       30.965       13.705       13.431      958.860      187.836      180.387        0.111        0.066       29.734        6.049        0.041      337.935       10.247      866.701
01/17/2015  21:31:00      -54.373        5.540      -12.736       10.430       14.036        5.522      108.784      197.000       30.494        0.174        0.017       54.655        3.491        0.004      337.793       10.006      866.736
01/17/2015  21:32:00      -92.002        7.497      -11.427       17.458       12.460        6.693      304.786      155.249       44.802        0.458        0.025       92.307        6.855        0.006      337.495        9.507      866.775
01/17/2015  21:33:00      -94.514      -34.162      -18.752       19.279       28.207       16.350      371.684      795.648      267.310        0.594        0.072      100.498       13.564        0.018      337.325        9.223      866.805
01/17/2015  21:34:00     -113.489      -58.681      -18.239       41.323       35.533       17.398     1707.570     1262.563      302.700        0.996        0.164      127.762       10.267        0.006      337.056        8.772      866.840
01/17/2015  21:35:00     -109.685       -9.701       -5.069       48.008       51.894       18.947     2304.803     2693.028      358.977        0.875        0.268      110.114       12.067        0.012      337.017        8.706      866.851
01/17/2015  21:36:00      -68.935       29.705      -16.390       19.629       22.825       12.570      385.309      520.961      158.017        0.348        0.053       75.063        3.376        0.002      337.399        9.348      866.843
01/17/2015  21:37:00      -58.916        3.170      -11.260        9.533       18.220        8.129       90.887      331.967       66.074        0.205        0.024       59.002        6.610        0.013      337.778        9.982      866.847
01/17/2015  21:38:00      -71.495      -22.530       -8.644       22.404       33.947       10.302      501.959     1152.396      106.136        0.373        0.088       74.961       14.559        0.038      337.861       10.122      866.857
01/17/2015  21:39:00      -38.334      -58.265        3.649       63.493       54.561       27.090     4031.405     2976.901      733.887        0.631        0.387       69.744       24.822        0.127      338.535       11.256      866.837
01/17/2015  21:40:00     -136.200      -59.000       -7.872       53.511       35.931       24.778     2863.382     1291.013      613.953        1.343        0.238      148.430       24.289        0.027      337.009        8.694      866.869
01/17/2015  21:41:00     -118.841       18.859      -11.916       29.840       22.507       17.674      890.427      506.548      312.373        0.816        0.085      120.328       12.383        0.011      336.942        8.581      866.883
01/17/2015  21:42:00      -70.924      -17.237       -9.035        9.888       24.233        5.794       97.781      587.236       33.574        0.306        0.036       72.988        5.049        0.005      337.524        9.556      866.886
01/17/2015  21:43:00      -88.982      -17.107      -11.643       19.213       20.849       11.318      369.125      434.692      128.086        0.464        0.047       90.611        8.661        0.009      337.001        8.681      866.906
01/17/2015  21:44:00      -35.472      -17.610       -2.279       35.315       22.074        9.411     1247.160      487.278       88.571        0.170        0.091       39.603       15.606        0.155      337.715        9.878      866.919
01/17/2015  21:45:00     -132.649      -37.455      -10.163       43.684       32.246       20.769     1908.323     1039.818      431.333        1.124        0.169      137.835       11.504        0.007      337.097        8.841      866.965
01/17/2015  21:46:00      -43.726      -22.572        1.129       40.421       37.480       16.129     1633.857     1404.739      260.144        0.286        0.165       49.208       21.121        0.184      337.439        9.412      866.991
01/17/2015  21:47:00     -119.916      -51.035       -9.489       17.020       24.269       14.221      289.683      588.980      202.247        0.908        0.054      130.324       11.195        0.007      337.248        9.094      867.030
01/17/2015  21:48:00     -148.887      -49.980      -14.943       13.675       13.012       12.833      187.001      169.314      164.690        1.270        0.026      157.052        8.442        0.003      337.304        9.187      867.063
01/17/2015  21:49:00      -97.639      -23.937      -11.773       23.696       32.003        9.964      561.522     1024.216       99.288        0.596        0.084      100.530        8.460        0.007      337.344        9.255      867.064
01/17/2015  21:50:00      -96.562      -64.689       -5.671       24.536       23.883       11.855      601.996      570.381      140.550        0.743        0.066      116.228        6.555        0.003      337.806       10.028      867.031
01/17/2015  21:51:00     -147.758        9.888       -9.860       37.675       21.796       18.691     1419.404      475.069      349.369        1.214        0.112      148.088       13.907        0.009      337.501        9.519      867.010
01/17/2015  21:52:00     -116.405        6.781       -2.175       56.806       30.637       19.734     3226.916      938.597      389.436        0.908        0.228      116.603       22.922        0.039      337.496        9.510      866.980
01/17/2015  21:53:00     -127.393       10.747       -9.003       61.149       43.392       23.341     3739.156     1882.827      544.786        1.130        0.308      127.846       29.457        0.053      338.278       10.820      866.952
01/17/2015  21:54:00     -101.802      -31.781       -3.464       63.639       38.347       22.369     4049.887     1470.486      500.390        0.870        0.301      106.648       28.808        0.073      337.970       10.303      866.930
01/17/2015  21:55:00      -66.345      -26.672       -2.710       35.697       21.959       12.495     1274.274      482.214      156.114        0.352        0.096       71.505       14.667        0.042      337.895       10.179      866.901
01/17/2015  21:56:00     -112.417       16.660       -0.329       32.522       19.919       11.747     1057.706      396.758      138.002        0.725        0.080      113.644        9.563        0.007      338.158       10.620      866.891
01/17/2015  21:57:00      -52.489      -35.242       -2.148       20.083       27.471       14.003      403.319      754.632      196.078        0.268        0.068       63.223       12.152        0.037      338.213       10.711      866.882
01/17/2015  21:58:00      -20.514      -31.808        6.810       19.604       18.581       12.327      384.316      345.261      151.962        0.118        0.044       37.849       10.203        0.073      337.894       10.176      866.912
01/17/2015  21:59:00       63.996     -113.270       -8.754       69.310       34.153       24.671     4803.817     1166.431      608.657        1.179        0.329      130.098       35.104        0.073      338.120       10.556      866.927
01/17/2015  22:00:00      -14.470      -90.518      -10.072       68.030       32.046       30.337     4628.024     1026.941      920.333        0.754        0.329       91.667       21.795        0.057      338.036       10.415      866.932
01/17/2015  22:01:00       -0.919      -58.770       -8.437       28.798       44.305       27.004      829.319     1962.970      729.234        0.352        0.176       58.777       14.122        0.058      338.211       10.707      866.887
01/17/2015  22:02:00       -9.005      -66.884       -8.774       25.312       40.501       23.941      640.681     1640.327      573.183        0.374        0.143       67.487       21.809        0.104      338.460       11.127      866.860
01/17/2015  22:03:00       -1.642      -59.763       -2.183       56.702       41.557       30.365     3215.066     1726.951      922.036        0.472        0.293       59.785       25.177        0.177      338.266       10.801      866.853
01/17/2015  22:04:00      -56.553      -78.430       -8.634       66.994       56.165       26.858     4488.237     3154.506      721.330        0.889        0.418       96.693       20.465        0.045      338.354       10.949      866.840
01/17/2015  22:05:00      -86.394      -77.886        2.569       52.529       34.961       26.028     2759.325     1222.289      677.439        0.910        0.233      116.319       24.938        0.046      338.299       10.857      866.860
01/17/2015  22:06:00     -101.611      -53.164      -13.341       35.533       39.559       17.972     1262.618     1564.876      322.986        0.824        0.158      114.679       13.227        0.013      338.279       10.822      866.868
01/17/2015  22:07:00      -90.495      -55.387       -1.088       39.863       39.951       20.395     1589.033     1596.098      415.959        0.743        0.180      106.099       25.130        0.056      338.167       10.635      866.873
01/17/2015  22:08:00     -106.361      -33.766       -5.499       40.972       25.567       20.507     1678.720      653.676      420.540        0.762        0.138      111.592       20.008        0.032      338.243       10.762      866.877
01/17/2015  22:09:00      -86.586     -142.957       -9.367       35.077       37.050       27.107     1230.413     1372.705      734.799        1.568        0.167      167.134       24.023        0.021      338.490       11.177      866.917
01/17/2015  22:10:00     -100.646     -130.804       -2.392       70.843       52.764       35.402     5018.741     2784.078     1253.296        1.815        0.453      165.043       35.888        0.047      338.511       11.212      866.942
01/17/2015  22:11:00     -111.725     -137.932       -9.327       53.606       41.024       29.905     2873.601     1682.958      894.296        1.852        0.273      177.504       24.158        0.019      338.534       11.249      866.935
01/17/2015  22:12:00      -93.431     -110.778       -2.540       39.656       33.285       25.013     1572.579     1107.910      625.662        1.216        0.165      144.918       19.886        0.019      338.407       11.038      866.920
01/17/2015  22:13:00      -79.959     -175.928        7.789       57.847       75.043       33.097     3346.285     5631.492     1095.402        2.374        0.504      193.246       31.281        0.026      338.628       11.408      866.939
01/17/2015  22:14:00      -97.053     -162.667       10.862       77.042       72.307       44.352     5935.416     5228.292     1967.100        2.456        0.657      189.420       39.650        0.044      338.745       11.605      866.968
01/17/2015  22:15:00      -93.258      -60.314        8.055       76.683       65.037       30.509     5880.349     4229.832      930.783        1.172        0.552      111.063       36.266        0.107      338.601       11.364      867.018
01/17/2015  22:16:00      -20.503      -15.975       -6.685       29.168       50.574       28.974      850.768     2557.701      839.465        0.248        0.212       25.992       25.017        0.926      338.370       10.974      867.059
01/17/2015  22:17:00      -25.540       -7.546       16.377       16.939       25.115       19.432      286.919      630.771      377.613        0.114        0.065       26.632       17.503        0.432      338.077       10.482      867.085
01/17/2015  22:18:00      -27.352       20.673       17.003       17.350       15.429       17.384      301.006      238.062      302.207        0.115        0.042       34.286       11.254        0.108      337.862       10.123      867.094
01/17/2015  22:19:00      -52.863       51.529       -4.325       24.526       38.719       15.603      601.548     1499.179      243.445        0.391        0.117       73.822       13.606        0.034      338.060       10.456      867.090
01/17/2015  22:20:00      -31.978       47.317       -8.174       19.825       20.015       10.428      393.031      400.583      108.751        0.212        0.045       57.109        6.767        0.014      338.207       10.703      867.065
01/17/2015  22:21:00      -40.037      -58.692        0.833       26.953       64.249       19.270      726.463     4127.944      371.338        0.514        0.261       71.047       18.016        0.064      338.855       11.790      867.052
01/17/2015  22:22:00      -94.890      -97.273        3.577       79.854       60.509       36.692     6376.674     3661.388     1346.274        1.493        0.569      135.890       36.118        0.071      338.908       11.878      867.047
01/17/2015  22:23:00      -65.190      -72.615        7.539       54.832       49.649       34.978     3006.550     2465.032     1223.458        0.814        0.335       97.584       34.688        0.126      338.742       11.601      867.063
01/17/2015  22:24:00      -54.122      -97.690        7.742       64.320       94.918       40.675     4137.051     9009.361     1654.433        1.366        0.740      111.681       47.319        0.180      338.918       11.894      867.080
01/17/2015  22:25:00     -102.110      -88.959      -15.414       46.917       78.684       27.134     2201.232     6191.224      736.263        1.385        0.456      135.426       28.516        0.044      339.155       12.293      867.069
01/17/2015  22:26:00     -145.158      -98.070       -0.899       55.519       48.614       31.275     3082.353     2363.322      978.145        1.856        0.321      175.182       30.785        0.031      338.930       11.914      867.086
01/17/2015  22:27:00     -128.234      -39.585        5.088      119.532       73.508       51.196    14288.009     5403.376     2621.004        2.017        1.116      134.205       57.918        0.186      338.886       11.842      867.100
01/17/2015  22:28:00     -143.094      -91.939        6.005      112.618       78.205       44.013    12682.870     6116.011     1937.133        2.485        1.037      170.084       48.138        0.080      339.244       12.443      867.089
01/17/2015  22:29:00      -75.866       -0.453       36.555      113.592       82.127       48.842    12903.137     6744.889     2385.533        1.456        1.102       75.867       59.391        0.613      339.285       12.513      867.056
01/17/2015  22:30:00     -174.463     -122.874       -3.828      151.537      117.379       64.399    22963.497    13777.769     4147.248        4.321        2.044      213.390       70.771        0.110      339.559       12.972      867.057
01/17/2015  22:31:00     -254.389     -181.151       -8.388      157.044      104.141       74.941    24662.778    10845.279     5616.225        6.936        2.056      312.297       86.031        0.076      339.666       13.153      867.070
01/17/2015  22:32:00     -185.397      -77.510       -3.786       81.484       78.530       37.983     6639.584     6167.013     1442.691        2.732        0.712      200.948       28.888        0.021      339.630       13.092      867.098
01/17/2015  22:33:00     -208.735     -100.977        2.075      220.140      134.849       71.838    48461.693    18184.194     5160.706        6.278        3.590      231.876       88.298        0.145      339.706       13.220      867.109
01/17/2015  22:34:00      -99.255      -95.832      -20.922       87.897       64.398       47.873     7725.896     4147.076     2291.808        1.682        0.708      137.969       36.018        0.068      339.691       13.198      867.111
01/17/2015  22:35:00     -112.964      -43.833       20.820       82.085       76.923       57.771     6737.878     5917.131     3337.463        1.555        0.800      121.170       58.044        0.229      339.644       13.118      867.104
01/17/2015  22:36:00      -34.421      -65.971       25.966       59.138      102.931       53.639     3497.344    10594.705     2877.095        1.159        0.848       74.410       47.178        0.402      339.579       13.010      867.118
01/17/2015  22:37:00     -251.335      -74.866      -17.656      195.566      107.312       65.673    38246.058    11515.958     4312.932        6.157        2.704      262.249       85.529        0.106      339.786       13.355      867.117
01/17/2015  22:38:00     -205.792      -63.242        4.123      145.940      109.974       67.678    21298.470    12094.202     4580.363        4.216        1.899      215.290       78.690        0.134      339.666       13.153      867.139
01/17/2015  22:39:00     -324.240      -12.532       -3.666      215.679      132.270       73.060    46517.557    17495.436     5337.751        8.731        3.468      324.482       96.965        0.089      339.731       13.262      867.133
01/17/2015  22:40:00     -245.016      -42.207      -13.571      135.200      103.628       58.015    18279.113    10738.699     3365.719        4.719        1.619      248.625       66.004        0.070      339.693       13.198      867.119
01/17/2015  22:41:00     -385.016      -52.499      -27.042      187.372      134.815       76.704    35108.350    18175.082     5883.439       10.544        2.958      388.579       85.480        0.048      339.741       13.278      867.095
01/17/2015  22:42:00     -305.022      -73.269        3.621      206.914      153.657       74.591    42813.303    23610.606     5563.816        8.519        3.599      313.698       84.642        0.073      339.704       13.218      867.069
01/17/2015  22:43:00     -432.852     -203.938      -18.779      234.262      167.759       85.985    54878.784    28142.919     7393.428       15.984        4.521      478.489       97.795        0.042      339.805       13.387      867.056
01/17/2015  22:44:00     -403.280     -198.770      -10.769      209.316      161.428       81.490    43813.084    26059.122     6640.689       13.937        3.826      449.605       76.174        0.029      339.817       13.406      867.014
01/17/2015  22:45:00     -313.716     -224.028       -7.971      181.393      158.084       94.336    32903.356    24990.621     8899.276       10.772        3.340      385.495       89.311        0.054      339.754       13.300      867.001
01/17/2015  22:46:00     -196.549     -105.612       11.014      201.186      134.532       89.355    40475.679    18098.910     7984.393        5.822        3.328      223.126      106.615        0.228      339.682       13.181      866.993
01/17/2015  22:47:00     -449.829     -152.362      -24.471      179.964      151.119       85.793    32387.197    22836.883     7360.450       14.436        3.129      474.932       86.635        0.033      339.807       13.391      866.998
01/17/2015  22:48:00     -404.922     -145.427       -1.808      251.124      187.461      102.677    63063.299    35141.660    10542.528       14.691        5.437      430.245      115.857        0.073      339.742       13.282      866.985
01/17/2015  22:49:00     -448.163     -107.538      -27.529      210.577      171.443       81.422    44342.540    29392.664     6629.603       14.675        4.018      460.884       97.071        0.044      339.750       13.295      866.963
01/17/2015  22:50:00     -482.282      -84.623      -31.527      221.814      183.207       78.741    49201.572    33564.983     6200.170       16.484        4.448      489.650       71.527        0.021      339.792       13.366      866.945
01/17/2015  22:51:00     -283.930      -98.102      -11.424      118.018      119.443       68.852    13928.209    14266.713     4740.531        6.165        1.647      300.400       66.071        0.048      339.674       13.168      866.933
01/17/2015  22:52:00     -315.561     -154.389       -5.836      200.630      146.351       93.377    40252.545    21418.547     8719.353        9.691        3.520      351.304      111.167        0.100      339.698       13.207      866.901
01/17/2015  22:53:00     -354.914     -120.475      -31.851      163.597      163.152       76.420    26764.038    26618.509     5839.989       10.035        2.961      374.804       71.012        0.036      339.684       13.182      866.877
01/17/2015  22:54:00     -221.587     -127.449        2.054      186.238      152.609       83.662    34684.779    23289.628     6999.328        6.515        3.249      255.624       89.011        0.121      339.671       13.161      866.892
01/17/2015  22:55:00     -333.817     -166.961      -14.677      161.513      126.844       70.460    26086.307    16089.510     4964.661        9.333        2.357      373.243       58.039        0.024      339.639       13.107      866.894
01/17/2015  22:56:00     -216.215     -103.806      -16.696      136.938      120.626       66.081    18752.020    14550.728     4366.724        4.773        1.883      239.843       71.862        0.090      339.636       13.103      866.890
01/17/2015  22:57:00     -271.986      -87.892      -12.322      193.251      122.377       66.585    37346.050    14976.089     4433.561        6.929        2.838      285.834       93.773        0.108      339.641       13.110      866.873
01/17/2015  22:58:00     -270.814      -79.449       13.273      166.987      146.367       76.691    27884.561    21423.439     5881.527        6.750        2.759      282.228       88.010        0.097      339.579       13.006      866.902
01/17/2015  22:59:00     -229.812     -119.432       -4.710      131.719      114.967       63.046    17349.854    13217.323     3974.817        5.082        1.727      258.993       63.643        0.060      339.563       12.981      866.943
01/17/2015  23:00:00     -249.382      -67.166       23.461      209.941      168.239      100.164    44075.344    28304.473    10032.755        7.482        4.121      258.269      126.190        0.239      339.553       12.962      866.927
01/17/2015  23:01:00     -314.701     -255.696      -10.545      216.933      139.051       92.027    47060.024    19335.180     8469.005       11.968        3.743      405.484      104.191        0.066      339.662       13.146      866.940
01/17/2015  23:02:00     -252.120     -163.182        4.638      176.761      156.145       92.179    31244.408    24381.152     8497.031        7.716        3.206      300.322      103.586        0.119      339.630       13.092      866.948
01/17/2015  23:03:00     -323.001     -123.014        3.618      176.151      143.913       85.455    31029.075    20710.837     7302.563        8.925        2.952      345.633       90.430        0.068      339.593       13.029      866.957
01/17/2015  23:04:00     -279.898     -129.258      -14.565      157.754      142.713       73.273    24886.469    20366.943     5368.910        7.293        2.531      308.303       71.256        0.053      339.591       13.026      866.993
01/17/2015  23:05:00     -287.759      -56.593      -18.298      138.872       97.176       57.501    19285.419     9443.183     3306.418        5.918        1.602      293.271       35.115        0.014      339.552       12.959      866.989
01/17/2015  23:06:00     -279.876      -39.699       -8.079      132.320      120.169       68.358    17508.610    14440.509     4672.873        5.829        1.831      282.678       70.646        0.062      339.555       12.966      867.009
01/17/2015  23:07:00     -244.288     -171.660      -14.688      147.125      115.470       77.185    21645.837    13333.353     5957.461        6.514        2.047      298.569       66.406        0.049      339.531       12.926      867.010
01/17/2015  23:08:00     -329.808     -101.498      -39.568      136.768      105.512       66.647    18705.518    11132.771     4441.790        7.745        1.714      345.073       51.798        0.023      339.537       12.934      867.020
01/17/2015  23:09:00     -214.540      -29.016        0.285      113.694       86.638       49.723    12926.314     7506.128     2472.369        3.488        1.145      216.494       51.559        0.057      339.504       12.880      867.010
01/17/2015  23:10:00     -202.931     -137.498       11.906      162.776      144.024       63.740    26496.145    20743.045     4062.844        5.576        2.565      245.126       75.379        0.095      339.504       12.880      866.982
01/17/2015  23:11:00     -259.720     -117.546       -3.705      134.690      106.118       62.961    18141.313    11261.022     3964.106        5.732        1.668      285.081       52.088        0.033      339.494       12.862      867.008
01/17/2015  23:12:00     -303.187      -75.378      -18.680      120.690      123.010       57.983    14566.000    15131.404     3362.082        6.550        1.653      312.416       42.341        0.018      339.483       12.841      867.016
01/17/2015  23:13:00     -269.638     -114.250       -8.986      128.488       93.105       60.951    16509.060     8668.497     3715.075        5.736        1.445      292.844       62.657        0.046      339.481       12.840      866.992
01/17/2015  23:14:00     -229.230      -96.640       -2.004      141.543      125.947       67.180    20034.413    15862.645     4513.200        5.114        2.021      248.768       75.565        0.092      339.443       12.778      867.006
01/17/2015  23:15:00     -219.336      -42.629       -4.246      127.531       68.822       59.439    16264.249     4736.455     3532.983        3.723        1.227      223.440       67.858        0.092      339.403       12.711      867.009
01/17/2015  23:16:00     -141.183      -51.442       11.974       88.441       81.337       47.165     7821.835     6615.753     2224.510        1.969        0.833      150.263       37.864        0.063      339.325       12.580      867.008
01/17/2015  23:17:00     -413.794       17.741      -20.886      184.513      131.005       76.015    34044.907    17162.299     5778.205       11.447        2.849      414.175       84.607        0.042      339.479       12.837      867.003
01/17/2015  23:18:00     -196.162      -65.043       12.641      132.418      113.795       62.930    17534.581    12949.412     3960.233        3.865        1.722      206.665       75.346        0.133      339.432       12.757      867.007
01/17/2015  23:19:00     -253.144      -53.330       -8.396      145.673       86.946       52.913    21220.559     7559.525     2799.798        4.928        1.579      258.701       61.890        0.057      339.432       12.759      867.013
01/17/2015  23:20:00     -283.872      -17.845      -13.746      118.594       85.039       61.769    14064.520     7231.667     3815.384        5.310        1.256      284.432       67.182        0.056      339.455       12.797      867.036
01/17/2015  23:21:00     -310.044        4.647       -5.822      134.549      122.875       56.290    18103.314    15098.230     3168.540        6.627        1.819      310.078       61.432        0.039      339.454       12.794      867.042
01/17/2015  23:22:00     -177.494      -53.598        0.038      117.355       88.794       47.908    13772.288     7884.416     2295.196        2.916        1.198      185.410       54.864        0.088      339.396       12.699      867.042
01/17/2015  23:23:00     -265.052     -124.799      -25.525      170.346       87.093       65.435    29017.885     7585.253     4281.684        6.368        2.044      292.963       81.881        0.078      339.504       12.878      867.038
01/17/2015  23:24:00     -361.865      -17.643      -22.730      182.601      129.145       77.956    33343.265    16678.523     6077.142        9.393        2.805      362.295       79.840        0.049      339.495       12.864      867.019
01/17/2015  23:25:00     -353.511      -14.964      -13.998      141.323      100.357       60.718    19972.135    10071.615     3686.720        7.955        1.687      353.827       64.912        0.034      339.542       12.944      867.035
01/17/2015  23:26:00     -350.504      -93.382      -18.273      159.409      130.813       73.291    25411.134    17112.060     5371.609        8.989        2.395      362.730       71.532        0.039      339.586       13.017      867.050
01/17/2015  23:27:00     -291.257     -128.832      -11.252      172.312      156.692       68.684    29691.392    24552.507     4717.498        8.025        2.948      318.478       71.583        0.051      339.563       12.978      867.065
01/17/2015  23:28:00     -338.332      -94.054       -3.374      122.186       81.678       60.918    14929.514     6671.287     3711.035        7.431        1.266      351.162       53.060        0.023      339.578       13.004      867.093
01/17/2015  23:29:00     -236.942      -30.373       -3.355      110.903       86.028       46.565    12299.461     7400.863     2168.298        3.947        1.093      238.880       51.459        0.046      339.450       12.789      867.080
01/17/2015  23:30:00     -285.478       -5.068      -10.064      149.646       78.131       52.889    22393.795     6104.510     2797.226        5.645        1.565      285.523       71.426        0.063      339.434       12.762      867.059
01/17/2015  23:31:00     -263.585      -58.293      -12.896      107.926       97.843       58.773    11647.995     9573.287     3454.234        4.885        1.234      269.954       60.198        0.050      339.473       12.827      867.049
01/17/2015  23:32:00     -228.420      -73.434      -12.195      114.163      102.417       54.533    13033.273    10489.214     2973.851        4.210        1.325      239.934       45.664        0.036      339.482       12.843      867.029
01/17/2015  23:33:00     -317.935      -76.420       -8.329      140.314       97.512       56.605    19688.052     9508.535     3204.093        6.969        1.620      326.991       66.902        0.042      339.479       12.836      866.991
01/17/2015  23:34:00     -281.177      -63.082       -5.539      126.225       80.542       54.156    15932.638     6487.022     2932.823        5.421        1.268      288.167       59.986        0.043      339.428       12.752      866.978
01/17/2015  23:35:00     -175.275      -17.667       -1.687      128.567       89.795       53.977    16529.492     8063.115     2913.522        2.927        1.375      176.163       67.699        0.148      339.326       12.580      866.986
01/17/2015  23:36:00     -277.502     -100.132       -7.171      117.984       98.176       48.011    13920.215     9638.539     2305.017        5.647        1.293      295.015       37.555        0.016      339.455       12.797      866.972
01/17/2015  23:37:00     -278.134     -155.460      -11.142      126.989       91.666       43.954    16126.171     8402.604     1931.956        6.405        1.323      318.632       45.578        0.020      339.437       12.767      866.955
01/17/2015  23:38:00     -271.667      -87.595      -19.682      133.391       99.414       53.027    17793.027     9883.067     2811.892        5.617        1.524      285.439       63.316        0.049      339.499       12.870      866.932
01/17/2015  23:39:00     -179.676     -119.941       -7.359      116.617       89.705       42.034    13599.489     8047.010     1766.838        3.506        1.171      216.031       51.917        0.058      339.395       12.696      866.936
01/17/2015  23:40:00     -183.498      -98.152        9.304      134.983       74.226       52.458    18220.455     5509.488     2751.861        3.493        1.324      208.099       61.510        0.087      339.411       12.725      866.948
01/17/2015  23:41:00      -45.491     -184.819       -2.779       57.925       64.873       41.425     3355.315     4208.462     1716.045        2.276        0.464      190.336       31.660        0.028      339.458       12.803      866.948
01/17/2015  23:42:00      -83.913     -161.246        2.794       70.317      100.111       40.822     4944.461    10022.283     1666.427        2.484        0.832      181.774       43.268        0.057      339.383       12.678      866.924
01/17/2015  23:43:00       19.999     -113.872       -2.727       60.437       66.030       35.857     3652.665     4359.953     1285.716        1.133        0.465      115.615       34.604        0.090      339.150       12.286      866.923
01/17/2015  23:44:00       20.801      -18.241       29.923       39.526       50.454       39.227     1562.295     2545.622     1538.729        0.365        0.282       27.666       33.500        1.466      338.877       11.828      866.893
01/17/2015  23:45:00      -32.705       -5.082       41.317       50.572       59.512       41.706     2557.556     3541.733     1739.361        0.532        0.392       33.098       45.887        1.922      338.896       11.858      866.857
01/17/2015  23:46:00      -12.485      -46.774       -6.160       69.503       56.246       29.289     4830.661     3163.570      857.874        0.562        0.443       48.411       24.413        0.254      339.041       12.104      866.863
01/17/2015  23:47:00      -91.318     -166.342      -20.222      106.791       85.479       34.995    11404.397     7306.646     1224.622        2.817        0.997      189.760       33.452        0.031      339.235       12.426      866.857
01/17/2015  23:48:00      -59.770     -104.833       -3.926       86.221      101.788       58.574     7434.019    10360.878     3430.928        1.790        1.061      120.675       36.666        0.092      339.332       12.591      866.815
01/17/2015  23:49:00        9.665      -22.043       25.542       52.270       40.104       39.829     2732.177     1608.307     1586.374        0.358        0.296       24.068       30.225        1.577      339.199       12.369      866.741
01/17/2015  23:50:00       35.569        3.253       23.609       41.555       27.737       26.514     1726.806      769.339      703.014        0.252        0.160       35.717       20.748        0.337      339.071       12.152      866.691
01/17/2015  23:51:00        5.366       45.202       51.275       23.242       24.055       14.900      540.207      578.645      222.024        0.302        0.067       45.520        9.168        0.041      338.874       11.822      866.663
01/17/2015  23:52:00       12.388      -54.499       -7.878       36.040       48.156       25.948     1298.871     2319.032      673.311        0.374        0.215       55.889       28.501        0.260      338.981       12.002      866.681
01/17/2015  23:53:00        7.113      -28.432        3.178       42.871       52.836       26.943     1837.906     2791.606      725.918        0.311        0.268       29.308       25.572        0.761      339.071       12.153      866.689
01/17/2015  23:54:00       -5.303       -0.870       20.095       27.032       34.562       27.399      730.712     1194.535      750.681        0.155        0.134        5.374       15.281        8.085      338.851       11.783      866.700
01/17/2015  23:55:00      -56.911      -53.066        8.885       26.593       47.466       20.848      707.174     2253.016      434.622        0.476        0.170       77.813       15.791        0.041      338.972       11.988      866.727
01/17/2015  23:56:00       -3.062        9.593        4.494       59.118       48.702       29.911     3494.973     2371.891      894.667        0.344        0.338       10.070       18.085        3.225      339.022       12.072      866.702
01/17/2015  23:57:00       64.541      -49.726      -17.394       48.510       45.383       26.142     2353.177     2059.660      683.412        0.602        0.255       81.476       15.450        0.036      339.013       12.057      866.687
01/17/2015  23:58:00      -11.667      -55.406       14.963       49.822       61.187       37.592     2482.209     3743.836     1413.165        0.553        0.382       56.621       22.491        0.158      339.080       12.168      866.698
01/17/2015  23:59:00       24.601       -3.538       35.604       49.347       87.274       43.812     2435.144     7616.744     1919.451        0.693        0.599       24.854       42.046        2.862      338.953       11.955      866.686
